[[{"header":{"parameterUnit":"m.s-1","parameterCategory":1,"la1":30.6,"la2":29.2853,"lo1":-89.7004,"lo2":-87.6739,"dy":0.0162,"dx":0.0183,"nx":112,"ny":82,"refTime":"2023-04-07T00:00:00:Z","depth":0,"parameterNumber":2,"parameterNumberName":"U-component_of_WINDS"},"data":[0.0,0.0,0.0,0.0,0.0,0.0,0.0,0.0,0.0,0.0,0.0,0.0,0.0,0.0,0.0,0.0,0.0,0.0,0.0,0.0,0.0,0.0,0.0,0.0,0.0,0.0,0.0,0.0,0.0,0.0,0.0,0.0,0.0,0.0,0.0,0.0,0.0,0.0,0.0,0.0,0.0,0.0,0.0,0.0,0.0,0.0,0.0,0.0,0.0,0.0,0.0,0.0,0.0,0.0,0.0,0.0,0.0,0.0,0.0,0.0,0.0,0.0,0.0,0.0,0.0,0.0,0.0,0.0,0.0,0.0,0.0,0.0,0.0,0.0,0.0,0.0,0.0,0.0,0.0,0.0,0.0,0.0,0.0,0.0,0.0,0.0,0.0,0.0,0.0,0.0,0.0,3.0293,3.0644,3.0898,3.0898,3.0898,3.0898,3.0898,0.0,0.0,0.0,0.0,0.0,0.0,0.0,0.0,0.0,0.0,0.0,0.0,0.0,0.0,0.0,0.0,0.0,0.0,0.0,0.0,0.0,0.0,0.0,0.0,0.0,0.0,0.0,0.0,0.0,0.0,0.0,0.0,0.0,0.0,0.0,0.0,0.0,0.0,0.0,0.0,0.0,0.0,0.0,0.0,0.0,0.0,0.0,0.0,0.0,0.0,0.0,0.0,0.0,0.0,0.0,0.0,0.0,0.0,0.0,0.0,0.0,0.0,0.0,0.0,0.0,0.0,0.0,0.0,0.0,0.0,0.0,0.0,0.0,0.0,0.0,0.0,0.0,0.0,0.0,0.0,0.0,0.0,0.0,0.0,0.0,0.0,0.0,0.0,0.0,0.0,0.0,0.0,0.0,0.0,0.0,0.0,0.0,0.0,0.0,0.0,0.0,0.0,0.0,0.0,3.0351,3.0742,3.0859,3.0898,3.0898,3.0898,3.0898,3.0898,0.0,0.0,0.0,0.0,0.0,0.0,0.0,0.0,0.0,0.0,0.0,0.0,0.0,0.0,0.0,0.0,0.0,0.0,0.0,0.0,0.0,0.0,0.0,0.0,0.0,0.0,0.0,0.0,0.0,0.0,0.0,0.0,0.0,0.0,0.0,0.0,0.0,0.0,0.0,0.0,0.0,0.0,0.0,0.0,0.0,0.0,0.0,0.0,0.0,0.0,0.0,0.0,0.0,0.0,0.0,0.0,0.0,0.0,0.0,0.0,0.0,0.0,0.0,0.0,0.0,0.0,0.0,0.0,0.0,0.0,0.0,0.0,0.0,0.0,0.0,0.0,0.0,0.0,0.0,0.0,0.0,0.0,0.0,0.0,0.0,0.0,0.0,0.0,0.0,0.0,0.0,0.0,0.0,0.0,0.0,0.0,0.0,0.0,0.0,0.0,0.0,0.0,0.0,3.0566,3.0742,3.1191,3.123,3.1328,3.1592,3.1612,3.1612,3.1612,3.1612,0.0,0.0,0.0,0.0,0.0,0.0,0.0,0.0,0.0,0.0,0.0,0.0,0.0,0.0,0.0,0.0,0.0,0.0,0.0,0.0,0.0,0.0,0.0,0.0,0.0,0.0,0.0,0.0,0.0,0.0,0.0,0.0,0.0,0.0,0.0,0.0,0.0,0.0,0.0,0.0,0.0,0.0,0.0,0.0,0.0,0.0,0.0,0.0,0.0,0.0,0.0,0.0,0.0,0.0,0.0,0.0,0.0,0.0,0.0,0.0,0.0,0.0,0.0,0.0,0.0,0.0,0.0,0.0,0.0,0.0,0.0,0.0,0.0,0.0,0.0,0.0,0.0,0.0,0.0,0.0,0.0,0.0,0.0,0.0,0.0,0.0,0.0,0.0,0.0,0.0,0.0,0.0,0.0,0.0,0.0,0.0,0.0,0.0,0.0,0.0,0.0,0.0,3.1035,3.1191,3.1621,3.168,3.1816,3.2179,3.2198,3.2198,3.2198,3.2198,0.0,0.0,0.0,0.0,0.0,0.0,0.0,0.0,0.0,0.0,0.0,0.0,0.0,0.0,0.0,0.0,0.0,0.0,0.0,0.0,0.0,0.0,0.0,0.0,0.0,0.0,0.0,0.0,0.0,0.0,0.0,0.0,0.0,0.0,0.0,0.0,0.0,0.0,0.0,0.0,0.0,0.0,0.0,0.0,0.0,0.0,0.0,0.0,0.0,0.0,0.0,0.0,0.0,0.0,0.0,0.0,0.0,0.0,0.0,0.0,0.0,0.0,0.0,0.0,0.0,0.0,0.0,0.0,0.0,0.0,0.0,0.0,0.0,0.0,0.0,0.0,0.0,0.0,0.0,0.0,0.0,0.0,0.0,0.0,0.0,0.0,0.0,0.0,0.0,0.0,0.0,0.0,0.0,0.0,0.0,0.0,0.0,0.0,0.0,0.0,0.0,0.0,3.1465,3.1641,3.2101,3.2159,3.2159,3.2198,3.2198,3.2198,3.2198,3.2198,0.0,0.0,0.0,0.0,0.0,0.0,0.0,0.0,0.0,0.0,0.0,0.0,0.0,0.0,0.0,0.0,0.0,0.0,0.0,0.0,0.0,0.0,0.0,0.0,0.0,0.0,0.0,0.0,0.0,0.0,0.0,0.0,0.0,0.0,0.0,0.0,0.0,0.0,0.0,0.0,0.0,0.0,0.0,0.0,0.0,0.0,0.0,0.0,0.0,0.0,0.0,0.0,0.0,0.0,0.0,0.0,0.0,0.0,0.0,0.0,0.0,0.0,0.0,0.0,0.0,0.0,0.0,0.0,0.0,0.0,0.0,0.0,0.0,0.0,0.0,0.0,0.0,0.0,0.0,0.0,0.0,0.0,0.0,0.0,0.0,0.0,0.0,0.0,0.0,0.0,0.0,0.0,0.0,0.0,0.0,0.0,0.0,0.0,0.0,0.0,0.0,0.0,3.1934,3.209,0.0,3.2559,3.2656,3.293,3.2949,3.2949,3.2949,0.0,0.0,0.0,0.0,0.0,0.0,0.0,0.0,0.0,0.0,0.0,0.0,0.0,0.0,0.0,0.0,0.0,0.0,0.0,0.0,0.0,0.0,0.0,0.0,0.0,0.0,0.0,0.0,0.0,0.0,0.0,0.0,0.0,0.0,0.0,0.0,0.0,0.0,0.0,0.0,0.0,0.0,0.0,0.0,0.0,0.0,0.0,0.0,0.0,0.0,0.0,0.0,0.0,0.0,0.0,0.0,0.0,0.0,0.0,0.0,0.0,0.0,0.0,0.0,0.0,0.0,0.0,0.0,0.0,0.0,0.0,0.0,0.0,0.0,0.0,0.0,0.0,0.0,0.0,0.0,0.0,0.0,0.0,0.0,0.0,0.0,0.0,0.0,0.0,0.0,0.0,0.0,0.0,0.0,0.0,0.0,0.0,0.0,0.0,0.0,0.0,0.0,3.2335,3.2394,3.2609,0.0,3.3203,3.3379,3.3789,3.3796,3.3796,3.3796,0.0,0.0,0.0,0.0,0.0,0.0,0.0,0.0,0.0,0.0,0.0,0.0,0.0,0.0,0.0,0.0,0.0,0.0,0.0,0.0,0.0,0.0,0.0,0.0,0.0,0.0,0.0,0.0,0.0,0.0,0.0,0.0,0.0,0.0,0.0,0.0,0.0,0.0,0.0,0.0,0.0,0.0,0.0,0.0,0.0,0.0,0.0,0.0,0.0,0.0,0.0,0.0,0.0,0.0,0.0,0.0,0.0,0.0,0.0,0.0,0.0,0.0,0.0,0.0,0.0,0.0,0.0,0.0,0.0,0.0,0.0,0.0,0.0,0.0,0.0,0.0,0.0,0.0,0.0,0.0,0.0,0.0,0.0,0.0,0.0,0.0,0.0,0.0,0.0,0.0,0.0,0.0,0.0,0.0,0.0,0.0,0.0,0.0,0.0,0.0,0.0,0.0,3.2754,3.2812,3.3144,3.4016,3.4114,3.429,3.4668,3.4707,3.4707,0.0,0.0,0.0,0.0,0.0,0.0,0.0,0.0,0.0,0.0,0.0,0.0,0.0,0.0,0.0,0.0,0.0,0.0,0.0,0.0,0.0,0.0,0.0,0.0,0.0,0.0,0.0,0.0,0.0,0.0,0.0,0.0,0.0,0.0,0.0,0.0,0.0,0.0,0.0,0.0,0.0,0.0,0.0,0.0,0.0,0.0,0.0,0.0,0.0,0.0,0.0,0.0,0.0,0.0,0.0,0.0,0.0,0.0,0.0,0.0,0.0,0.0,0.0,0.0,0.0,0.0,0.0,0.0,0.0,0.0,0.0,0.0,0.0,0.0,0.0,0.0,0.0,0.0,0.0,0.0,0.0,0.0,0.0,0.0,0.0,0.0,0.0,0.0,0.0,0.0,0.0,0.0,0.0,0.0,0.0,0.0,0.0,0.0,0.0,0.0,0.0,0.0,0.0,3.3665,3.3965,3.4238,3.4492,3.4512,3.457,3.4687,3.4707,3.4707,3.4707,0.0,0.0,0.0,0.0,0.0,0.0,0.0,0.0,0.0,0.0,0.0,0.0,0.0,0.0,0.0,0.0,0.0,0.0,0.0,0.0,0.0,0.0,0.0,0.0,0.0,0.0,0.0,0.0,0.0,0.0,0.0,0.0,0.0,0.0,0.0,0.0,0.0,0.0,0.0,0.0,0.0,0.0,0.0,0.0,0.0,0.0,0.0,0.0,0.0,0.0,0.0,0.0,0.0,0.0,0.0,0.0,0.0,0.0,0.0,0.0,0.0,0.0,0.0,0.0,0.0,0.0,0.0,0.0,0.0,0.0,0.0,0.0,0.0,0.0,0.0,0.0,0.0,0.0,0.0,0.0,0.0,0.0,0.0,0.0,0.0,0.0,0.0,0.0,0.0,0.0,0.0,0.0,0.0,0.0,0.0,0.0,0.0,0.0,0.0,0.0,0.0,0.0,3.4297,3.4551,3.4766,3.4961,3.498,3.5039,3.5215,3.5234,3.5234,3.5234,0.0,0.0,0.0,0.0,0.0,0.0,0.0,0.0,0.0,0.0,0.0,0.0,0.0,0.0,0.0,0.0,0.0,0.0,0.0,0.0,0.0,0.0,0.0,0.0,0.0,0.0,0.0,0.0,0.0,0.0,0.0,0.0,0.0,0.0,0.0,0.0,0.0,0.0,0.0,0.0,0.0,0.0,0.0,0.0,0.0,0.0,0.0,0.0,0.0,0.0,0.0,0.0,0.0,0.0,0.0,0.0,0.0,0.0,0.0,0.0,0.0,0.0,0.0,0.0,0.0,0.0,0.0,0.0,0.0,0.0,0.0,0.0,0.0,0.0,0.0,0.0,0.0,0.0,0.0,0.0,0.0,0.0,0.0,0.0,0.0,0.0,0.0,0.0,0.0,0.0,0.0,0.0,0.0,0.0,0.0,0.0,0.0,0.0,0.0,0.0,0.0,0.0,3.4766,3.4805,3.498,3.541,3.5449,3.5605,3.5996,3.5982,3.5982,3.5982,0.0,0.0,0.0,0.0,0.0,0.0,0.0,0.0,0.0,0.0,0.0,0.0,0.0,0.0,0.0,0.0,0.0,0.0,0.0,0.0,0.0,0.0,0.0,0.0,0.0,0.0,0.0,0.0,0.0,0.0,0.0,0.0,0.0,0.0,0.0,0.0,0.0,0.0,0.0,0.0,0.0,0.0,0.0,0.0,0.0,0.0,0.0,0.0,0.0,0.0,0.0,0.0,0.0,0.0,0.0,0.0,0.0,0.0,0.0,0.0,3.8391,0.0,0.0,0.0,0.0,0.0,0.0,0.0,0.0,0.0,0.0,0.0,0.0,0.0,0.0,0.0,0.0,0.0,0.0,0.0,0.0,0.0,0.0,0.0,0.0,0.0,0.0,0.0,0.0,0.0,0.0,0.0,0.0,0.0,0.0,0.0,0.0,0.0,0.0,0.0,0.0,0.0,3.5234,3.5527,3.5747,3.5879,3.5845,3.5918,3.5982,3.5982,3.5982,3.5982,0.0,0.0,0.0,0.0,0.0,0.0,0.0,0.0,0.0,0.0,0.0,0.0,0.0,0.0,0.0,0.0,0.0,0.0,0.0,0.0,0.0,0.0,0.0,0.0,0.0,0.0,0.0,0.0,0.0,0.0,0.0,0.0,0.0,0.0,0.0,0.0,0.0,0.0,0.0,0.0,0.0,0.0,0.0,0.0,0.0,0.0,0.0,0.0,0.0,0.0,0.0,0.0,0.0,0.0,0.0,0.0,0.0,0.0,0.0,0.0,0.0,3.8761,0.0,0.0,0.0,0.0,0.0,0.0,0.0,0.0,0.0,0.0,0.0,0.0,0.0,0.0,0.0,0.0,0.0,0.0,0.0,0.0,0.0,0.0,0.0,0.0,0.0,0.0,0.0,0.0,0.0,0.0,0.0,0.0,0.0,0.0,0.0,0.0,0.0,0.0,0.0,0.0,3.5703,3.5879,3.5982,3.5982,3.5982,3.5982,3.5982,3.5982,3.5982,3.5982,3.5982,0.0,0.0,0.0,0.0,0.0,0.0,0.0,0.0,0.0,0.0,0.0,0.0,0.0,0.0,0.0,0.0,0.0,0.0,0.0,0.0,0.0,0.0,0.0,0.0,0.0,0.0,0.0,0.0,0.0,0.0,0.0,0.0,0.0,0.0,0.0,0.0,0.0,0.0,0.0,0.0,0.0,0.0,0.0,0.0,0.0,0.0,0.0,0.0,0.0,0.0,0.0,0.0,0.0,3.9244,3.9189,4.0387,3.7883,3.7423,3.8671,3.9725,3.9295,3.7946,0.0,0.0,0.0,0.0,0.0,0.0,0.0,0.0,0.0,0.0,0.0,0.0,0.0,0.0,0.0,0.0,0.0,0.0,0.0,0.0,0.0,0.0,0.0,0.0,0.0,3.457,3.4648,0.0,0.0,0.0,0.0,0.0,0.0,0.0,0.0,0.0,0.0,0.0,0.0,3.5982,3.5982,3.5982,3.5982,3.5982,3.5982,3.5982,3.5982,3.5982,3.5982,3.6094,3.6133,0.0,0.0,0.0,0.0,0.0,0.0,0.0,0.0,0.0,0.0,0.0,0.0,0.0,0.0,0.0,0.0,0.0,0.0,0.0,0.0,0.0,0.0,0.0,0.0,0.0,0.0,0.0,0.0,0.0,0.0,0.0,0.0,3.7739,3.7889,0.0,0.0,0.0,0.0,0.0,0.0,0.0,0.0,0.0,0.0,0.0,0.0,0.0,3.893,3.9001,3.7742,3.7811,3.9216,3.7627,3.7002,3.7224,3.7164,3.7226,3.7475,3.8521,0.0,3.6826,3.7025,0.0,0.0,0.0,0.0,0.0,0.0,0.0,0.0,0.0,0.0,0.0,0.0,0.0,0.0,0.0,0.0,0.0,0.0,0.0,0.0,0.0,0.0,3.4726,3.5117,3.5254,3.5371,0.0,3.5117,3.4609,3.4609,0.0,0.0,0.0,0.0,0.0,0.0,0.0,0.0,3.5982,3.5982,3.5982,3.5982,3.5982,3.5982,3.5982,3.5982,3.5982,3.5982,3.6367,3.6616,3.6616,3.6934,0.0,0.0,0.0,0.0,0.0,0.0,0.0,0.0,0.0,0.0,0.0,0.0,0.0,0.0,0.0,0.0,0.0,0.0,0.0,0.0,0.0,0.0,0.0,0.0,0.0,0.0,0.0,0.0,0.0,3.7839,3.814,3.8492,3.8517,3.8743,0.0,0.0,0.0,0.0,0.0,0.0,0.0,0.0,0.0,3.7655,3.7845,3.8091,3.8395,3.799,3.826,3.9213,3.7651,3.7349,3.8163,3.6524,3.6289,3.7114,3.6666,3.6091,3.5634,3.7156,3.7806,3.7938,0.0,0.0,0.0,0.0,3.8334,3.7062,3.6403,3.5704,0.0,3.4346,0.0,0.0,0.0,0.0,0.0,0.0,0.0,0.0,0.0,0.0,0.0,3.5703,3.5742,3.5801,3.5942,3.5723,3.5449,0.0,3.5605,3.5742,3.5742,0.0,0.0,0.0,0.0,0.0,3.6348,3.6387,3.6484,3.6719,3.6738,3.6738,3.6738,3.6738,3.6738,3.6738,3.6914,3.7031,3.7031,3.7207,3.7207,0.0,0.0,0.0,0.0,0.0,0.0,0.0,0.0,0.0,0.0,0.0,0.0,0.0,0.0,0.0,0.0,0.0,0.0,0.0,0.0,0.0,0.0,0.0,0.0,0.0,0.0,0.0,0.0,3.8567,3.8818,3.9271,3.9088,3.9382,0.0,0.0,0.0,0.0,0.0,0.0,3.7097,3.816,3.8189,3.6773,3.7035,3.7385,3.7766,3.7709,3.8087,3.8872,3.7244,3.7116,3.8204,3.5929,3.5533,3.6585,3.5508,3.5039,3.5178,3.695,3.7443,3.7191,3.7972,3.8534,3.8872,3.8872,3.7943,3.6682,3.6682,3.5972,3.5039,3.5039,0.0,3.5039,3.5039,0.0,0.0,0.0,0.0,3.5625,3.5903,3.5982,3.5982,3.5982,3.5982,3.6021,3.6152,3.6191,3.6152,0.0,3.5982,3.6055,3.6172,0.0,0.0,0.0,0.0,3.6465,3.6832,3.6871,3.6988,3.7266,3.7305,3.7305,3.7305,3.7305,3.7305,3.7305,3.7402,3.7461,3.7461,3.7559,3.7578,3.7461,0.0,0.0,0.0,0.0,0.0,0.0,0.0,0.0,0.0,0.0,0.0,0.0,0.0,0.0,0.0,0.0,0.0,0.0,0.0,0.0,0.0,0.0,0.0,0.0,0.0,0.0,0.0,0.0,0.0,4.0399,3.9515,0.0,0.0,0.0,0.0,3.8915,3.939,3.9179,3.7993,3.8431,3.8196,3.7097,3.7107,3.7128,3.7149,3.567,3.569,3.718,3.5581,3.4851,3.4969,3.5256,3.5418,3.5505,3.5815,3.5923,3.5879,3.5185,3.5788,3.7116,3.7159,3.7191,3.7212,3.7212,3.6461,3.5485,3.5485,3.5692,3.5923,3.5923,3.5923,3.5923,3.5923,3.5923,0.0,0.0,3.5996,3.5962,3.5982,3.5982,3.5982,3.5982,3.5982,3.6133,3.6577,3.6675,3.6523,0.0,3.5982,3.6152,3.6597,0.0,3.6812,3.7168,3.7226,3.7246,3.7266,3.7266,3.7266,3.7305,3.7305,3.7305,3.7305,3.7305,3.7305,3.7305,3.7676,3.7855,3.7855,3.8301,3.832,3.7874,3.7855,0.0,0.0,0.0,0.0,0.0,0.0,0.0,0.0,0.0,0.0,0.0,0.0,0.0,0.0,0.0,0.0,0.0,0.0,0.0,0.0,0.0,0.0,0.0,0.0,0.0,0.0,0.0,0.0,4.0868,3.9129,0.0,4.0531,3.9529,3.8499,3.7788,3.8844,3.8476,3.6014,3.7034,3.7012,3.5613,3.5849,3.6009,3.6009,3.5711,3.5815,3.6396,3.5815,3.5547,3.5547,3.5723,3.5801,3.5801,3.5923,3.5982,3.5962,3.565,3.5862,3.6396,3.6396,3.6396,3.6396,3.6396,3.6129,3.5801,3.5801,3.5898,3.5982,3.5982,3.5982,3.5982,3.5982,3.5982,3.5982,3.5982,3.623,3.6445,3.6445,3.6641,3.6836,3.6836,3.6836,3.6894,3.7031,3.707,3.7031,3.6875,3.6836,3.6894,3.7051,3.707,3.7129,3.7266,3.7305,3.7402,3.7676,3.7695,3.7812,3.8086,3.8359,3.8516,3.8516,3.8789,3.8965,3.8965,3.9101,3.9199,3.9199,3.9336,3.9355,3.9199,3.9199,3.9121,0.0,0.0,0.0,0.0,0.0,0.0,0.0,0.0,0.0,0.0,0.0,0.0,0.0,0.0,0.0,0.0,0.0,0.0,0.0,0.0,0.0,0.0,0.0,0.0,0.0,0.0,3.9255,4.1062,3.8843,3.7938,3.9897,3.8916,3.7859,3.7159,3.8229,3.7763,3.5087,3.6093,3.6239,3.517,3.5586,3.582,3.582,3.623,3.6445,3.6445,3.6445,3.6445,3.6445,3.6445,3.6445,3.6445,3.6445,3.6445,3.6445,3.6445,3.6445,3.6426,3.6099,3.5982,3.5982,3.5982,3.5982,3.6001,3.6191,3.623,3.6269,3.6406,3.6445,3.6445,3.6445,3.6445,3.6445,3.6445,3.666,3.691,3.691,3.7187,3.75,3.75,3.7617,3.7773,3.791,3.793,3.7988,3.8144,3.7695,3.7383,3.7676,3.7734,3.7832,3.8125,3.8184,3.8281,3.8555,3.8557,3.8691,3.9021,3.9277,3.9434,3.9434,3.9726,3.9902,3.9902,3.9902,3.9902,3.9902,3.9902,3.9902,3.9902,3.9902,3.9902,3.9902,0.0,0.0,0.0,0.0,0.0,0.0,0.0,0.0,0.0,0.0,0.0,0.0,0.0,0.0,0.0,0.0,0.0,0.0,0.0,0.0,0.0,0.0,0.0,4.1963,3.976,3.8754,4.0893,3.8733,3.7678,3.9299,3.7995,3.7083,3.7083,3.7501,3.7053,3.553,3.582,3.6035,3.6021,3.6465,3.6714,3.6714,3.709,3.7305,3.7305,3.7305,3.7324,3.7324,3.7324,3.7344,3.7344,3.7344,3.7344,3.7344,3.7344,3.7344,3.7246,3.6387,3.6021,3.6021,3.6021,3.6021,3.6113,3.6543,3.6714,3.6792,3.7168,3.7305,3.7305,3.7305,3.7324,3.7324,3.7324,3.7344,3.7363,3.7363,3.7676,3.7952,3.7952,3.8301,3.8767,3.9141,3.9219,3.9355,3.9824,3.8555,3.7656,3.8513,3.865,3.8943,3.9766,3.9902,0.0,3.9902,3.9902,3.9922,3.9922,3.9941,3.9961,3.9961,3.9961,3.9961,3.9961,3.9961,3.9941,3.9941,3.9941,3.9941,3.9941,3.9941,3.9941,3.9941,0.0,0.0,0.0,0.0,0.0,0.0,0.0,0.0,0.0,0.0,0.0,0.0,0.0,0.0,0.0,0.0,0.0,0.0,0.0,0.0,0.0,0.0,3.8772,4.1738,3.9392,3.8015,3.9762,3.7539,3.6509,3.8102,3.7069,3.6296,3.6296,3.6415,3.6431,3.6343,3.646,3.6621,3.6934,3.707,3.7129,3.7129,3.7246,3.7305,3.7305,3.7598,3.7754,3.7773,3.8086,3.8223,3.8223,3.8223,3.8223,3.8223,3.8223,3.8223,3.818,3.7285,3.6953,3.6953,3.6953,3.6953,3.6953,3.709,3.7129,3.7148,3.7266,3.7305,3.7344,3.7656,3.7754,3.7812,3.8125,3.8437,3.8672,3.8672,3.9023,3.9355,3.9355,3.9453,3.957,3.9687,3.9707,3.9824,4.0273,3.9961,3.9609,3.9551,3.9531,3.9609,3.9863,3.9902,0.0,3.9902,4.0156,4.0351,4.0351,4.0898,4.1269,4.1269,4.1562,4.1601,4.1289,4.1269,4.1133,4.084,4.082,4.082,4.082,4.082,4.082,0.0,0.0,0.0,0.0,0.0,0.0,0.0,0.0,0.0,0.0,0.0,0.0,0.0,0.0,0.0,0.0,0.0,0.0,0.0,0.0,0.0,0.0,3.871,3.7573,4.0244,3.8157,3.7074,3.8893,3.7057,3.6014,3.6955,3.6592,3.6289,3.6289,3.6465,3.666,3.6949,3.6934,3.7129,3.7539,3.7734,3.791,3.8086,3.8281,3.8379,3.8379,3.8633,3.875,3.8769,3.9004,3.9121,0.0,3.9121,3.9121,3.9121,3.9121,3.9121,0.0,0.0,0.0,0.0,0.0,3.7832,3.7851,3.8027,3.8086,3.8125,3.832,3.8379,3.8437,3.8672,3.875,3.8809,3.9062,3.9297,3.9531,3.9707,4.0098,4.0469,4.0644,4.082,4.0957,4.0957,4.0957,4.1035,4.123,4.1289,0.0,4.0996,4.082,4.0762,4.0937,4.0957,4.0957,4.0957,4.1133,4.1289,4.1289,4.1758,4.207,4.207,4.2285,0.0,0.0,0.0,4.0082,3.8861,3.8803,0.0,0.0,0.0,3.8803,3.8803,0.0,0.0,0.0,4.014,4.0549,0.0,0.0,0.0,0.0,0.0,0.0,0.0,0.0,0.0,0.0,0.0,0.0,0.0,0.0,0.0,0.0,3.7786,3.6559,3.8171,3.673,3.6249,3.8163,3.7038,3.6113,3.6118,3.6523,3.6773,3.6773,3.7129,3.7383,3.7441,0.0,0.0,0.0,0.0,3.8906,3.9277,3.9687,3.9902,3.9902,4.0,4.0039,4.0039,4.0137,4.0176,4.0176,4.0176,4.0176,4.0176,4.0176,4.0176,4.0078,3.9101,3.8767,3.8767,3.8767,3.8767,3.8806,3.916,0.0,0.0,3.9766,3.9902,3.9922,4.0019,4.0039,4.0059,4.0156,4.0176,4.0273,4.0644,4.1016,4.1445,4.1777,4.2148,4.2382,4.2382,4.2382,4.2361,4.2119,4.2078,4.2017,4.1814,4.1809,4.1992,4.2323,4.2382,4.2301,4.2041,4.204,4.1998,4.1737,0.0,0.0,4.1773,4.1773,4.0865,3.8812,3.8635,3.7652,3.5599,3.5515,3.5515,3.5515,3.5515,3.5515,3.5515,3.5548,3.5565,3.569,3.9717,4.0531,0.0,0.0,0.0,0.0,0.0,0.0,0.0,0.0,0.0,0.0,0.0,0.0,0.0,0.0,0.0,3.891,3.728,3.6235,3.6966,3.6706,3.6583,3.704,3.6784,3.668,3.7012,3.7129,3.7168,3.7168,3.7559,3.7949,3.8337,3.8652,3.9043,3.9492,3.959,3.9687,3.9766,3.9844,3.9902,3.9902,0.0,0.0,4.0996,4.1621,4.1933,4.1933,4.1933,4.1933,4.1933,4.1933,4.1933,4.1777,4.0234,3.9648,3.9648,3.9648,3.9648,3.9648,3.9726,3.9766,3.9766,3.9863,3.9902,4.0019,4.0761,4.0957,0.0,4.1738,4.1933,4.1913,4.1991,4.2089,4.2207,4.2285,4.2323,4.2382,4.2382,4.2382,4.1937,4.045,4.0134,3.9645,3.8141,4.0331,4.2304,4.2382,4.2382,4.176,3.9862,3.9933,3.9454,3.7602,3.7665,3.7853,3.7853,3.7853,3.7547,3.6778,3.6392,3.5975,3.5515,3.5515,3.5515,3.5515,3.5515,3.5515,3.5515,3.5895,3.6069,3.6069,3.661,3.6599,0.0,0.0,0.0,0.0,0.0,0.0,0.0,0.0,0.0,0.0,0.0,4.0924,0.0,0.0,3.8383,3.7746,3.6944,3.6504,3.6934,3.6992,3.6992,3.6992,3.6992,3.7148,3.7578,3.7812,3.8027,3.8242,3.8652,3.9004,3.9219,3.9434,3.9844,4.0508,4.0527,4.0742,4.1152,4.1152,4.1152,4.1172,4.1601,4.1797,4.1816,4.2226,4.2382,4.2382,4.2382,4.2382,4.2382,4.2382,4.2382,4.2304,4.1504,4.1152,4.1152,4.1152,4.1152,4.1152,4.1152,4.1152,4.1152,4.1152,4.1152,4.125,4.168,4.1797,4.1894,4.2305,4.2382,4.244,4.2695,4.2754,4.2812,4.3008,4.2171,4.1354,4.1354,4.0428,3.9301,3.8385,3.8209,3.7896,3.6969,3.8361,3.9598,3.9598,3.9598,3.9206,3.8059,3.8046,3.7742,3.6635,3.6672,3.6787,3.6787,3.575,3.4992,3.4804,3.3482,3.2699,3.2699,3.2699,3.2699,3.2699,3.2699,3.2699,3.2699,3.2906,3.3039,3.3039,3.2831,3.3347,0.0,0.0,0.0,0.0,0.0,0.0,0.0,4.2958,4.2233,4.0537,4.0181,3.9758,3.8353,3.8171,3.7887,3.6878,3.6773,3.7007,3.748,3.7539,3.7617,3.7793,3.7656,3.7754,3.8262,3.8633,3.9002,3.9316,3.9766,4.0059,4.0137,4.0215,4.0625,4.1387,4.1426,4.1738,4.2382,4.2382,4.2382,4.2382,4.2479,4.2558,4.2558,4.2637,4.2635,4.2635,4.2635,4.2635,4.2635,4.2635,4.2635,4.2635,4.2635,4.2635,4.2616,4.244,4.2382,4.2382,4.2382,4.2382,4.2382,4.2382,4.2382,4.2401,4.2519,4.2558,4.2558,4.2616,4.2635,4.2754,4.3105,4.2898,4.2647,4.2974,4.1286,3.9607,3.9607,3.8118,3.6658,3.6226,3.614,3.5967,3.5533,3.551,3.583,3.6674,3.6787,3.6658,3.6183,3.614,3.5967,3.549,3.5446,3.5478,3.5542,3.3927,3.288,3.288,3.1139,3.0087,3.0087,3.0087,3.0087,3.0087,3.0087,3.0087,3.0087,3.0087,3.0087,3.0087,3.0087,3.1025,4.5397,4.5748,4.6125,4.62,4.5061,4.3473,0.0,0.0,3.8663,3.6924,3.6573,3.6505,3.6336,3.6636,3.6878,3.6729,3.6992,3.75,3.8356,3.8474,3.873,3.9512,3.8906,3.8787,3.959,3.9726,3.9766,3.9824,4.0215,4.0625,4.1054,4.1387,4.1797,4.2226,4.2285,4.2284,4.2382,4.2382,4.2382,4.2401,4.2812,4.3008,4.3008,4.3398,4.3555,4.3555,4.3555,4.3555,4.3555,4.3555,4.3555,4.3555,4.3555,4.3555,4.3476,4.2715,4.2382,4.2382,4.2382,4.2382,4.2382,4.2382,4.2382,4.25,4.2891,4.3008,4.3086,4.3457,4.3555,4.3574,4.3633,4.2126,4.0625,4.068,3.8885,3.7175,3.7175,3.7003,3.6183,3.417,3.3775,3.3131,3.1048,3.0925,3.2416,3.6232,3.6787,3.6053,3.4038,3.3775,3.2999,3.087,3.0647,3.0801,3.1075,3.1076,3.1102,3.1102,3.0826,3.0688,3.0688,3.0688,3.0688,3.0688,3.0688,3.0688,3.0688,3.0688,3.0688,3.0688,3.0688,3.0544,4.4725,4.4628,4.4798,4.4798,4.4251,4.324,4.1597,3.9856,3.8121,3.6369,3.623,3.6406,3.6406,3.6738,3.7242,0.0,3.7965,3.834,3.9219,3.9336,3.957,4.0195,4.0156,4.0137,4.0254,4.0488,4.0742,4.0996,4.1387,4.1679,4.1894,4.207,4.2363,4.2793,4.2812,4.293,4.3164,4.3164,4.3164,4.3164,4.3359,4.3437,4.3437,4.3633,4.3711,4.3711,4.3711,4.3711,4.3711,4.3711,4.3711,4.3711,4.3711,4.3711,4.3672,4.3301,4.3164,4.3164,4.3164,4.3164,4.3164,4.3164,4.3164,4.3203,4.3379,4.3437,4.3476,4.3652,4.3711,4.3402,4.2057,4.1016,3.9963,3.8587,3.6485,3.4856,3.5015,3.4018,3.2848,3.2031,3.1892,3.1575,3.0603,3.0528,3.124,3.3051,3.3291,3.2932,3.2014,3.1892,3.153,3.0512,3.0421,3.0474,3.0595,3.0728,3.0795,3.0795,3.0795,3.0795,3.0795,3.0795,3.0795,3.0795,3.0795,3.0795,3.0795,3.0795,3.0795,3.0795,3.0795,3.0662,4.3357,4.2989,4.2989,4.2989,4.2643,4.1956,4.0763,3.9231,3.7725,3.6464,3.6543,3.6871,3.6871,3.7285,3.7851,3.8513,3.8826,3.9199,3.9961,4.0176,4.041,4.082,4.125,4.1406,4.1074,4.1328,4.1641,4.1953,4.2266,4.244,4.2598,4.2598,4.2812,4.3242,4.3242,4.3398,4.3691,4.3711,4.3711,4.3711,4.3711,4.3711,4.3711,4.3711,4.3711,4.3711,4.3711,4.3711,4.3711,4.3711,4.3711,4.3711,4.3711,4.3711,4.3711,4.3711,4.3711,4.3711,4.3711,4.3711,4.3711,4.3711,4.3711,4.3711,4.3711,4.3278,4.2761,4.2761,4.2284,4.1449,3.9876,3.9,3.8117,3.6486,3.4342,3.2759,3.2946,3.1676,3.0587,3.0755,3.0795,3.0795,3.0795,3.0862,3.0915,3.0915,3.0982,3.0982,3.0808,3.0795,3.0795,3.0795,3.0862,3.0915,3.0915,3.0982,3.1036,3.1036,3.1036,3.1036,3.1036,3.1036,3.1036,3.1036,3.1036,3.1036,3.1036,3.1036,3.1036,3.1036,3.1036,3.1036,4.1277,4.1277,4.1277,4.1277,4.0018,3.8729,3.8696,3.7685,3.6744,3.6695,3.6992,3.7285,3.7285,3.7969,3.8591,3.8611,3.9297,4.0019,4.0411,4.0859,4.1289,4.1719,4.2129,4.2343,0.0,4.2343,4.2362,4.2362,4.2382,4.2617,4.3027,4.3066,4.3242,4.3672,4.3691,4.3691,4.3711,4.3711,4.3711,4.3711,4.3711,4.3711,4.3711,4.3711,4.3711,4.3711,4.3711,4.3711,4.3711,4.3711,4.3711,4.3711,4.3711,4.3711,4.3711,4.3711,4.3711,4.3711,4.3711,4.3711,4.3711,4.3711,4.3711,4.3711,4.3711,4.2159,4.0385,4.0385,3.8758,3.7086,3.732,3.569,3.4023,3.4247,3.2549,3.0861,3.0907,3.0828,3.0782,3.0795,3.0795,3.0795,3.0795,3.1022,3.1209,3.1209,3.1463,3.1483,3.0862,3.0795,3.0795,3.0795,3.1049,3.1209,3.1209,3.1476,3.1684,3.1684,3.1684,3.1684,3.1684,3.1684,3.1684,3.1684,3.1684,3.1684,3.1684,3.1684,3.1684,3.1684,3.1684,3.1684,3.9157,3.9464,3.9464,3.9464,3.9226,3.8992,3.8992,3.8029,3.709,3.709,3.7422,3.7793,3.8086,3.8613,3.918,3.9766,4.0117,4.0566,4.1269,4.1504,4.1738,4.2168,4.2598,0.0,0.0,0.0,0.0,4.2851,4.3105,4.334,4.3496,4.3496,4.3555,4.3691,4.3711,4.3711,4.3711,4.3711,4.3711,4.3711,4.3711,4.3711,4.3711,4.3711,4.3711,4.3711,4.3711,4.3711,4.3711,4.3711,4.3711,4.373,4.4043,4.416,4.4199,4.4473,4.4548,4.4492,4.3906,4.3711,4.3443,4.1932,4.1453,4.1215,3.9841,3.8925,3.8372,3.8523,3.8023,3.7045,3.562,3.4682,3.3736,3.2289,3.1381,3.0849,3.1036,3.1076,3.1142,3.133,3.1417,3.1417,3.1417,3.145,3.1517,3.1517,3.161,3.1644,3.1396,3.1417,3.1417,3.1417,3.1463,3.1517,3.1517,3.1657,3.1711,3.1711,3.1711,3.1711,3.1711,3.1711,3.1757,3.1957,3.1957,3.2051,3.23,3.23,3.23,3.23,3.23,3.23,3.7374,3.7798,3.7921,3.7921,3.8214,3.8541,3.8541,3.8007,3.7519,3.7519,3.7988,3.8457,3.875,3.9277,3.9863,4.0391,4.0781,4.1172,4.1719,4.207,4.2363,4.2637,4.3027,4.3301,0.0,0.0,0.0,4.3301,4.3555,4.3711,4.3711,4.3711,4.3711,4.3711,4.3711,4.3711,4.3711,4.3711,4.3711,4.3711,4.3867,4.3945,4.3965,4.4101,4.418,4.418,4.418,4.418,4.418,4.418,4.418,4.4116,4.3545,4.3344,4.3235,4.2604,4.2395,4.2451,4.274,4.2865,4.2467,4.0118,3.9372,3.9123,3.7841,3.6869,3.6253,3.6387,3.5868,3.4924,3.3468,3.3145,3.2807,3.1448,3.1102,3.1156,3.1343,3.1383,3.1436,3.1684,3.1711,3.1711,3.1711,3.1805,3.1864,3.2019,3.2032,3.1992,3.1837,3.1824,3.1912,3.2019,3.2032,3.2032,3.2032,3.2032,3.2032,3.2032,3.2032,3.2032,3.2032,3.2032,3.2112,3.2251,3.2265,3.2407,3.2594,3.2594,3.2594,3.2594,3.2594,3.2594,3.6021,3.6348,3.6714,3.6734,3.7012,3.7324,3.7324,3.7656,3.7933,3.7952,3.8633,3.9219,3.9258,3.9961,4.0489,4.0508,4.125,4.1816,4.1836,4.2539,4.3127,0.0,0.0,0.0,0.0,0.0,0.0,4.3711,0.0,4.3711,4.3711,4.3711,4.3711,4.3711,4.3711,4.3711,4.373,4.3769,4.3769,4.3769,4.4219,4.4433,4.4433,4.4844,4.4977,4.4977,4.4977,4.4977,4.4977,4.4892,4.4807,4.4574,4.2197,4.1224,4.0963,3.8634,3.7792,3.8103,4.0325,4.1155,4.0796,3.8319,3.7504,3.752,3.7403,3.5809,3.4064,3.4079,3.2482,3.0902,3.1169,3.1249,3.1316,3.1597,3.1711,3.1711,3.1711,3.1711,3.1724,3.1738,3.1751,3.1764,3.1764,3.1944,3.2225,3.2554,3.2594,3.2487,3.2158,3.2131,3.2238,3.2567,3.2594,3.2594,3.2594,3.2594,3.2594,3.2594,3.2594,3.2594,3.2594,3.2594,3.2607,3.2621,3.2621,3.2621,3.2634,3.2634,3.2634,3.2634,3.2634,3.2648,3.6426,3.6616,3.6773,3.7051,3.7461,3.7773,3.7773,3.8105,3.8496,3.8809,3.9043,3.9394,4.0059,4.0371,4.0625,4.0957,4.1465,4.1914,4.2187,4.2734,0.0,4.3496,0.0,4.3711,4.3711,4.3711,0.0,0.0,4.3711,4.3711,4.3711,4.3711,4.3711,4.3711,4.3711,4.3867,4.4219,4.4531,4.4687,4.4645,4.4805,4.4863,4.4863,4.4938,4.4977,4.4977,4.4977,4.4977,4.4849,4.3079,4.2309,4.2111,3.9952,3.9076,3.9065,3.8749,3.8667,3.8486,3.7258,3.7646,3.8274,3.5868,3.5104,3.4804,3.3292,3.2422,3.2014,3.2294,3.1907,3.151,3.153,3.1557,3.157,3.1698,3.1711,3.1711,3.1711,3.1711,3.1778,3.1944,3.2219,3.2367,3.2367,3.2433,3.25,3.2581,3.2594,3.2567,3.2487,3.2474,3.2514,3.2581,3.2594,3.2594,3.2594,3.2594,3.2594,3.2594,3.2594,3.2594,3.2594,3.2594,3.2701,3.2915,3.2915,3.2973,3.3187,3.3187,3.3187,3.3187,3.3187,3.332,3.6636,3.6968,3.7266,3.7519,3.7891,3.8203,3.8203,3.8535,3.8926,3.9141,3.9512,3.9922,4.0391,4.0684,4.0937,4.1387,4.1797,4.2226,4.2656,4.3086,4.3437,0.0,4.3711,0.0,4.3711,4.3711,4.3711,0.0,4.3711,4.3711,4.3711,4.3711,4.3789,4.4004,4.4004,4.4219,4.4668,4.4902,4.4977,4.4977,4.5215,4.5312,4.5312,4.5508,4.5586,4.5586,0.0,4.4943,4.3821,4.2473,4.1311,4.0114,3.7873,3.6998,3.6892,3.6082,3.5788,3.5602,3.4186,3.4327,3.4831,3.3528,3.3112,3.2877,3.1779,3.1423,3.145,3.1671,3.1711,3.1711,3.1711,3.1711,3.1711,3.1711,3.1711,3.1751,3.1837,3.1864,3.1944,3.2238,3.2474,3.2634,3.2768,3.2781,3.2835,3.2906,3.2969,3.2969,3.2969,3.2862,3.2835,3.2969,3.2969,3.2969,3.2969,3.2969,3.2969,3.2969,3.2969,3.2969,3.2969,3.2969,3.3,3.316,3.3307,3.3454,3.3614,3.3748,3.3814,3.3814,3.3814,3.3908,3.6773,3.7324,3.7894,3.7988,3.8301,3.8611,3.8611,3.8906,3.9219,3.9277,3.9941,4.0508,4.0605,4.0918,4.1348,4.1738,4.2148,4.2578,4.3008,4.3437,4.3711,4.3711,4.3711,4.3711,4.3711,4.3711,4.3711,4.3711,4.3769,4.3769,4.3711,4.3769,4.4004,4.4473,4.4531,4.4746,4.5117,4.5176,4.5153,4.5195,4.5586,4.5762,4.5762,4.5808,4.5807,4.5788,4.548,0.0,4.2085,4.1753,4.0401,3.8262,3.5788,3.4826,3.456,3.2455,3.1711,3.1711,3.1711,3.1711,3.1711,3.1711,3.1711,3.1711,3.1711,3.1711,3.1711,3.1711,3.1711,3.1711,3.1711,3.1711,3.1724,3.1764,3.173,3.181,3.2104,3.2185,3.2291,3.2607,3.2688,3.2795,3.2986,3.304,3.312,3.3374,3.3414,3.3427,3.3467,3.3213,3.3146,3.344,3.3467,3.3494,3.3534,3.3534,3.3534,3.3534,3.3534,3.3534,3.3534,3.3534,3.3534,3.3534,3.3801,3.3948,3.3948,3.4202,3.4322,3.4322,3.4322,3.4336,3.709,3.7539,3.7972,3.8379,3.8552,3.8611,3.8611,3.8906,3.9316,3.9687,4.0176,4.0644,4.0996,4.1152,4.1348,4.1738,4.2148,4.2578,4.3008,4.3437,4.3711,4.3711,4.3711,4.3711,4.3711,4.3711,0.0,0.0,4.4062,4.4101,4.373,4.4062,4.4473,4.486,4.5273,4.5488,4.5566,4.5898,4.6074,4.6074,4.6152,4.6191,4.6148,4.4151,4.3219,4.313,4.1124,0.0,3.9494,3.7436,3.6329,3.5695,3.3276,3.2313,3.2266,3.1853,3.1711,3.1711,3.1711,3.1711,3.1711,3.1711,3.1711,3.1711,3.1711,3.1711,3.1711,3.1711,3.1711,3.1711,3.1711,3.1711,3.1778,3.1971,3.2024,3.2104,3.246,3.2701,3.2839,3.2942,3.3093,3.328,3.3334,3.3334,3.336,3.34,3.3414,3.3507,3.3774,3.3534,3.3454,3.3774,3.3801,3.3895,3.4148,3.4162,3.4162,3.4162,3.4162,3.4162,3.4162,3.4162,3.4162,3.4162,3.4215,3.4242,3.4242,3.4295,3.4322,3.4322,3.4322,3.4456,3.7246,3.7773,3.832,3.8552,3.8611,3.8669,3.8848,3.9238,3.9687,4.0137,4.0566,4.0918,4.1172,4.1211,4.1348,4.1738,4.2148,4.2578,4.3008,4.3437,4.3711,4.3711,4.3711,4.3711,4.3711,4.3711,4.3808,4.4043,4.4277,4.4297,4.4082,4.4707,4.5156,4.5351,4.5781,4.5996,4.5996,4.6191,4.6308,4.6265,4.4977,4.4365,4.4277,4.186,4.0718,4.0672,3.9477,0.0,3.6975,3.5788,3.4546,3.3323,3.2124,3.1711,3.1711,3.1711,3.1711,3.1711,3.1711,3.1711,3.1711,3.1711,3.1711,3.1711,3.1711,3.1711,3.1711,3.1711,3.1784,3.1891,3.1891,3.2059,3.2206,3.2353,3.2452,3.2599,3.2795,3.3,3.32,3.32,3.332,3.3414,3.3414,3.3414,3.3414,3.3414,3.3547,3.3721,3.3868,3.3881,3.3948,3.4095,3.4108,3.4162,3.4309,3.4322,3.4322,3.4322,3.4322,3.4322,3.4322,3.4322,3.4322,3.4322,3.4469,3.4549,3.4549,3.4696,3.4776,3.4776,3.4776,3.4857,3.7305,3.793,3.8611,3.8611,3.8611,3.8728,3.9101,3.9551,4.0019,4.043,4.0879,4.1211,4.1211,4.1211,4.1348,4.1738,4.2148,4.2578,4.3008,4.3437,4.3711,4.3711,4.3711,4.3711,4.3711,4.3711,0.0,4.4355,4.457,4.4668,4.4668,4.5312,4.5766,4.5801,4.6133,4.6308,4.6308,4.5744,4.5524,4.548,4.2996,4.1843,4.1753,3.9295,3.82,3.817,3.7666,0.0,0.0,3.4546,3.3403,3.1711,3.1711,3.1711,3.1711,3.1711,3.1711,3.1711,3.1711,3.1711,3.1724,3.1791,3.1764,3.1724,3.1791,3.1805,3.1818,3.1885,3.2024,3.2198,3.2198,3.242,3.2607,3.2674,3.2915,3.3066,3.3066,3.3253,3.3414,3.3414,3.3414,3.3414,3.3414,3.3414,3.3414,3.3414,3.3681,3.3908,3.3975,3.4229,3.4442,3.4509,3.4456,3.4442,3.4509,3.4509,3.4509,3.4509,3.4509,3.4509,3.4509,3.4509,3.4509,3.4509,3.4736,3.4909,3.4909,3.5084,3.5191,3.5191,3.5191,3.5191,3.7305,3.793,3.8611,3.8611,3.8611,3.8728,3.9101,3.9551,4.0019,4.043,4.0879,4.1211,4.1211,4.1211,4.1348,4.1738,4.2148,4.2578,4.3008,4.3437,4.3711,4.3711,4.3711,4.3711,4.3711,4.3711,4.3887,4.4355,4.5117,4.5566,4.5566,4.5688,4.5859,4.623,4.6289,4.6308,4.6308,4.4055,4.2952,4.2907,4.0492,3.9341,3.9266,3.6791,3.5649,3.5509,3.3323,0.0,0.0,3.2043,3.1901,3.1711,3.1711,3.1711,3.1711,3.1711,3.1711,3.1711,3.1711,3.1711,3.1764,3.1971,3.1891,3.1764,3.1984,3.2064,3.2118,3.2433,3.2527,3.2554,3.2554,3.2567,3.2661,3.2929,3.316,3.3374,3.3374,3.3387,3.3414,3.3414,3.3414,3.3414,3.3414,3.3414,3.3414,3.3414,3.3681,3.3975,3.4242,3.4536,3.483,3.5084,3.4883,3.483,3.5097,3.511,3.511,3.511,3.511,3.511,3.511,3.511,3.511,3.511,3.5137,3.5151,3.5151,3.5177,3.5191,3.5191,3.5191,3.5191,3.7305,3.793,3.8611,3.8611,3.8611,3.8787,3.9453,3.9766,4.0098,4.0781,4.1055,4.1211,4.1211,4.1211,4.1269,4.1387,4.1992,4.248,4.2656,4.3281,4.3711,4.3711,4.3711,4.3711,4.3711,0.0,4.4414,4.5117,4.5723,4.6055,4.6055,4.6055,4.6133,4.6289,4.4826,4.4055,4.4055,4.1663,4.0446,4.0401,3.7941,3.6791,3.6698,3.4233,3.3135,3.3088,3.2124,0.0,0.0,3.1711,3.1711,3.1711,3.1711,3.1711,3.1711,3.1711,3.1711,3.1711,3.1711,3.1831,3.1944,3.2064,3.2144,3.226,3.238,3.242,3.2447,3.2567,3.2728,3.2848,3.2848,3.2982,3.3093,3.3213,3.3334,3.3414,3.3414,3.3414,3.3414,3.3414,3.3414,3.3414,3.3414,3.3414,3.348,3.3668,3.3948,3.4255,3.4549,3.4843,3.507,3.5191,3.5097,3.507,3.5191,3.5191,3.5191,3.5191,3.5191,3.5191,3.5191,3.5191,3.5191,3.5191,3.5191,3.5191,3.5191,3.5191,3.5191,3.5191,3.5191,3.5191,3.7305,3.793,3.8611,3.8611,3.8611,3.8845,3.9687,3.9902,4.0137,4.1035,4.1211,4.1211,4.1211,4.1211,4.1211,4.1211,4.1875,4.2382,4.2382,4.3164,4.3711,4.3711,4.3711,4.3711,4.3711,4.4238,4.4883,4.5625,4.6055,4.6308,4.6308,4.5612,4.5197,4.5197,4.3504,4.2264,4.1529,3.9113,3.7895,3.7895,3.5416,3.4233,3.4186,3.2489,3.1711,3.1711,3.1711,0.0,0.0,3.1711,3.1711,3.1711,3.1711,3.1711,3.1711,3.1711,3.1711,3.1724,3.177,3.1931,3.2131,3.2305,3.2554,3.2741,3.2822,3.2795,3.2741,3.2822,3.2946,3.3106,3.3106,3.3253,3.3414,3.3414,3.3414,3.3414,3.3414,3.3414,3.3414,3.3414,3.3414,3.3414,3.3414,3.3414,3.3521,3.3841,3.4135,3.4429,3.4775,3.5017,3.5191,3.5191,3.5191,3.5191,3.5191,3.5191,3.5191,3.5191,3.5191,3.5191,3.5191,3.5191,3.5191,3.5191,3.5191,3.5191,3.5191,3.5191,3.5191,3.5191,3.5191,3.5191,3.7305,3.793,3.8611,3.8611,3.8611,3.8845,3.9687,3.9902,4.0137,4.1035,4.1211,4.1211,4.1211,4.1211,4.1211,4.1211,4.1875,4.2382,4.2382,4.3164,4.3711,4.3711,4.3711,4.3711,4.3711,4.4492,4.5195,4.5644,4.6055,0.0,4.6308,4.3948,4.2621,4.2621,4.2621,4.1439,3.9084,3.656,3.5323,3.5323,3.2913,3.1758,3.1758,3.1711,3.1711,0.0,0.0,0.0,0.0,3.1711,3.1711,3.1711,3.1711,3.1711,3.1711,3.1711,3.1711,3.1751,3.1998,3.2104,3.2198,3.2786,3.2973,3.3026,3.332,3.32,3.3026,3.332,3.34,3.3414,3.3414,3.3414,3.3414,3.3414,3.3414,3.3414,3.3414,3.3414,3.3414,3.3414,3.3414,3.3414,3.3414,3.3414,3.3521,3.3841,3.4135,3.4429,3.4775,3.5017,3.5191,3.5191,3.5191,3.5191,3.5191,3.5191,3.5191,3.5191,3.5191,3.5191,3.5191,3.5191,3.5191,3.5191,3.5191,3.5191,3.5191,3.5191,3.5191,3.5191,3.5191,3.5191,3.7305,3.793,3.8611,3.8611,3.8611,3.8845,3.9687,3.9902,4.0137,4.1035,4.1211,4.1211,4.1211,4.1211,4.1211,4.1211,4.1875,4.2382,4.2382,4.3164,4.3711,4.3711,4.3711,4.3945,4.4551,4.4863,4.5332,4.6055,4.623,4.6308,4.6308,4.3948,4.2577,4.2577,3.9341,3.7252,3.6467,3.4046,3.2866,3.2819,3.209,3.1711,3.1711,3.1711,3.1711,0.0,0.0,0.0,0.0,3.1711,3.1711,3.1711,3.1711,3.1711,3.1711,3.1711,3.1711,3.1724,3.1818,3.2112,3.2487,3.2674,3.2946,3.3293,3.3387,3.3347,3.3293,3.3387,3.3414,3.3414,3.3414,3.3414,3.3414,3.3414,3.3414,3.3414,3.3414,3.3414,3.3414,3.3414,3.3414,3.3414,3.3414,3.3414,3.3521,3.3841,3.4135,3.4429,3.4775,3.5017,3.5191,3.5191,3.5191,3.5191,3.5191,3.5191,3.5191,3.5191,3.5191,3.5191,3.5191,3.5191,3.5191,3.5191,3.5191,3.5191,3.5191,3.5191,3.5191,3.5191,3.5191,3.5191,3.7246,3.793,3.8611,3.8611,3.8611,3.8787,3.9473,3.9766,4.0098,4.0781,4.1055,4.1211,4.1211,4.1211,4.1211,4.1211,4.1875,4.2382,4.2382,4.3164,4.3711,4.3711,4.3711,4.4062,4.4941,4.419,4.3979,4.4857,4.4055,4.3549,4.3549,4.1169,3.9841,3.9841,3.6883,3.4872,3.3966,3.2455,3.1711,3.1711,3.1711,3.1711,3.1711,3.1711,3.1711,0.0,0.0,0.0,0.0,3.1711,3.1711,3.1711,3.1711,3.1711,3.1711,3.1711,3.1711,3.1724,3.1845,3.2193,3.2607,3.2728,3.3026,3.3414,3.3414,3.3414,3.3414,3.3414,3.3414,3.3414,3.3414,3.3414,3.3414,3.3414,3.3414,3.3414,3.3414,3.3414,3.3414,3.3414,3.3414,3.3414,3.3414,3.3414,3.3521,3.3841,3.4135,3.4429,3.4775,3.5017,3.5191,3.5191,3.5191,3.5191,3.5191,3.5191,3.5191,3.5191,3.5191,3.5191,3.5191,3.5191,3.5191,3.5191,3.5191,3.5191,3.5191,3.5191,3.5191,3.5191,3.5191,3.5191,0.0,3.791,3.8571,3.8611,3.8611,3.8728,3.9101,3.9551,0.0,4.043,4.0879,4.1211,4.1211,4.1211,4.1211,4.1211,4.1875,4.2382,4.2382,4.3164,4.3711,4.3711,4.3711,4.4043,4.4902,4.2783,4.173,4.2487,4.0339,3.8993,3.8993,3.6652,3.5277,3.5277,3.5152,3.3952,3.1711,3.1711,3.1711,3.1711,3.1711,3.1711,3.1711,3.1711,3.1711,0.0,0.0,0.0,0.0,3.1711,3.1711,3.1711,3.1711,3.1711,3.1711,3.1711,3.1711,3.1751,3.1984,3.2313,3.2621,3.2929,3.3173,3.3414,3.3414,3.3414,3.3414,3.3414,3.3414,3.3414,3.3414,3.3414,3.3414,3.3414,3.3414,3.3414,3.3414,3.3414,3.3414,3.3414,3.3414,3.3414,3.3414,3.3414,3.3507,3.3814,3.4108,3.4402,3.4748,3.499,3.5177,3.5191,3.5191,3.5191,3.5191,3.5191,3.5191,3.5191,3.5191,3.5191,3.5191,3.5191,3.5191,3.5191,3.5191,3.5191,3.5191,3.5191,3.5191,3.5191,3.5191,3.5191,3.7187,0.0,3.8164,3.8496,3.8611,3.8728,0.0,3.9551,4.0019,4.043,4.0879,4.1211,4.1211,4.1211,4.1211,4.1211,4.1875,4.2382,4.2382,4.3164,4.3711,4.3711,4.3711,4.3926,4.4492,4.2616,4.1622,4.2108,4.0202,3.8993,3.8993,3.6652,3.5277,3.5277,3.3497,3.2266,3.1724,3.1711,3.1711,3.1711,3.1711,3.1711,3.1711,3.1711,3.1711,0.0,0.0,0.0,3.1711,3.1711,3.1711,3.1711,3.1711,3.1711,3.1711,3.1711,3.1711,3.1724,3.1744,3.1957,3.2291,3.2812,3.3173,3.3414,3.3414,3.3414,3.3414,3.3414,3.3414,3.3414,3.3414,3.3414,3.3414,3.3414,3.3414,3.3414,3.3414,3.3414,3.3414,3.3414,3.3414,3.3414,3.3414,3.3414,3.344,3.3507,3.3788,3.4095,3.4389,3.4683,3.495,3.5177,3.5191,3.5191,3.5191,3.5191,3.5191,3.5191,3.5191,3.5191,3.5191,3.5191,3.5191,3.5191,3.5191,3.5191,3.5191,3.5191,3.5191,3.5191,3.5191,3.5191,3.7129,3.7598,3.7991,3.8476,3.8611,3.8669,3.8867,3.9414,3.9961,4.0195,4.0742,4.1211,4.1211,4.1211,4.1269,4.1426,4.2012,4.2518,4.2949,4.3418,4.3319,4.2284,4.2141,4.1891,0.0,3.9329,3.8291,3.8685,3.6833,3.5649,3.5649,3.4373,3.3638,3.3638,3.2361,3.1711,3.1711,3.1711,3.1711,3.1711,3.1711,3.1711,3.1711,3.1711,3.1711,0.0,0.0,0.0,3.1711,3.1711,3.1711,3.1711,3.1711,3.1711,3.1711,3.1711,3.1711,3.1711,3.1711,3.1864,3.2171,3.2688,3.2973,3.3213,3.3213,3.3307,3.3414,3.3414,3.3414,3.3414,3.3414,3.3414,3.3414,3.3414,3.3414,3.3414,3.3414,3.3414,3.3414,3.3414,3.3414,3.3414,3.3414,3.3414,3.3414,3.3414,3.3681,3.3948,3.4095,3.4376,3.467,3.4963,3.499,3.5044,3.5191,3.5191,3.5191,3.5191,3.5191,3.5191,3.5191,3.5191,3.5191,3.5191,3.5191,3.5191,3.5191,3.5191,3.5191,3.5191,3.5191,3.5191,3.707,3.7559,3.7949,3.8493,3.8611,3.8611,3.8611,3.9199,3.9805,3.9883,4.0527,4.1132,4.1211,4.1211,4.1348,4.1738,4.2207,4.2793,4.3594,4.3711,4.2844,4.0554,4.0301,3.9519,3.7564,3.5455,3.4381,3.4755,3.2845,3.1711,3.1711,3.1711,3.1711,3.1711,3.1711,3.1711,3.1711,3.1711,3.1711,3.1711,3.1711,3.1711,3.1711,3.1711,3.1711,3.1711,0.0,0.0,3.1711,3.1711,3.1711,3.1711,3.1711,3.1711,3.1711,3.1711,3.1711,3.1711,3.1711,3.1864,3.2144,3.2447,3.2728,3.2969,3.2969,3.312,3.3347,3.3347,3.3374,3.3414,3.3414,3.3414,3.3414,3.3414,3.3414,3.3414,3.3414,3.3414,3.3414,3.3414,3.3414,3.3414,3.3414,3.3414,3.3414,3.3414,3.3641,3.3828,3.3881,3.4108,3.4362,3.467,3.4696,3.4751,3.511,3.5137,3.5151,3.5191,3.5191,3.5191,3.5191,3.5191,3.5191,3.5191,3.5191,3.5191,3.5191,3.5191,3.5191,3.5191,3.5191,3.5191,3.707,3.7344,3.7578,3.8415,3.8611,3.8611,3.8611,3.8965,3.9414,3.9824,4.0293,4.0742,4.1152,4.1211,4.1348,4.1738,4.2461,4.3144,4.3633,4.3711,4.2844,4.0554,4.0301,3.9413,3.7129,3.5271,3.4246,3.429,3.2687,3.1711,3.1711,3.1711,3.1711,3.1711,3.1711,3.1711,3.1711,3.1711,3.1711,3.1711,3.1711,3.1711,3.1711,3.1711,3.1711,3.1711,0.0,3.1711,3.1711,3.1711,3.1711,3.1711,3.1711,3.1711,3.1711,3.1711,3.1711,3.1711,3.1711,3.1864,3.2104,3.2158,3.242,3.2661,3.2661,3.2862,3.304,3.304,3.3213,3.3414,3.3414,3.3414,3.3414,3.3414,3.3414,3.3414,3.3414,3.3414,3.3414,3.3414,3.3414,3.3414,3.3414,3.3414,3.3414,3.3414,3.3454,3.3587,3.3855,3.3921,3.4068,3.4362,3.4389,3.4509,3.4803,3.4882,3.4989,3.5177,3.5191,3.5191,3.5191,3.5191,3.5191,3.5191,3.5191,3.5191,3.5191,3.5191,3.5191,3.5191,3.5191,3.5191,3.6797,3.7129,3.7441,3.8066,3.8398,3.8611,3.8611,3.8906,3.9336,3.9805,4.0234,4.0664,4.1094,4.1211,4.1387,4.2031,4.2851,4.3476,4.3672,4.3711,4.2368,0.0,0.0,3.6986,3.3424,3.2502,3.2225,3.2334,3.1776,3.1503,3.1711,3.1711,3.1711,3.1711,3.1711,3.1711,3.1711,3.1711,3.1711,3.1711,3.1711,3.1711,3.1711,3.1711,3.1711,3.1711,0.0,3.1711,3.1711,3.1711,3.1711,3.1711,3.1711,3.1711,3.1711,3.1711,3.1711,3.1711,3.1711,3.1805,3.1864,3.1864,3.2064,3.2353,3.2353,3.2554,3.2822,3.2982,3.3187,3.3414,3.3414,3.3414,3.3414,3.3414,3.3414,3.3414,3.3414,3.3414,3.3414,3.3414,3.3414,3.3414,3.3414,3.3414,3.3414,3.3414,3.3414,3.3467,3.3614,3.3627,3.3748,3.4055,3.4082,3.4202,3.4496,3.4721,3.4883,3.5177,3.5191,3.5191,3.5191,3.5191,3.5191,3.5191,3.5191,3.5191,3.5191,3.5191,3.5191,3.5191,3.5191,3.5191,3.6577,3.6973,3.7402,3.7777,3.8242,3.8611,3.8611,3.8828,3.9219,3.9785,4.0156,4.0547,4.1113,4.1328,4.1719,4.2461,4.3203,4.3526,4.2969,4.2886,4.1202,3.6572,3.601,3.4417,3.0303,3.0181,3.052,3.0768,3.1062,3.1356,3.1698,3.1711,3.1711,3.1711,3.1711,3.1711,3.1711,3.1711,3.1711,3.1711,3.1711,3.1711,3.1711,3.1711,3.1711,3.1711,3.1711,3.1711,3.1711,3.1711,3.1711,3.1711,3.1711,3.1711,3.1711,3.1711,3.1711,3.1711,3.1711,3.1711,3.1711,3.1711,3.1824,3.1998,3.1998,3.2211,3.2541,3.2706,3.2986,3.324,3.3374,3.3414,3.3414,3.3414,3.3414,3.3414,3.3414,3.3414,3.3414,3.3414,3.3414,3.3414,3.3414,3.3414,3.3414,3.3414,3.3414,3.3414,3.3414,3.3414,3.3507,3.3748,3.3774,3.3895,3.4189,3.4496,3.479,3.5084,3.5164,3.5191,3.5191,3.5191,3.5191,3.5191,3.5191,3.5191,3.5191,3.5191,3.5191,3.5191,3.5191,3.5191,3.6577,3.6973,3.7402,3.7777,3.8242,3.8611,3.8611,3.863,3.8867,3.9726,3.9922,4.0195,4.1016,4.1816,4.248,4.2949,4.3418,4.2969,4.0848,0.0,3.8843,3.4198,3.3644,3.2646,3.0137,3.0181,3.052,3.0768,3.1062,3.1356,3.1698,3.1711,3.1711,3.1711,3.1711,3.1711,3.1711,3.1711,3.1711,3.1711,3.1711,3.1711,3.1711,3.1711,3.1711,3.1711,3.1711,3.1711,3.1711,3.1711,3.1711,3.1711,3.1711,3.1711,3.1711,3.1711,3.1711,3.1711,3.1711,3.1711,3.1711,3.1711,3.1724,3.1751,3.1751,3.1904,3.2144,3.2158,3.2372,3.2781,3.3267,3.3414,3.3414,3.3414,3.3414,3.3414,3.3414,3.3414,3.3414,3.3414,3.3414,3.3414,3.3414,3.3414,3.3414,3.3414,3.3414,3.3414,3.3414,3.3414,3.3414,3.344,3.344,3.3574,3.3895,3.4189,3.4482,3.4829,3.5044,3.5191,3.5191,3.5191,3.5191,3.5191,3.5191,3.5191,3.5191,3.5191,3.5191,3.5191,3.5191,3.5191,3.623,3.6777,3.7344,3.75,3.8066,3.8611,3.8611,3.8611,3.8865,3.9707,3.9902,4.0234,4.1367,4.2031,4.2558,4.3008,4.3437,4.2886,4.0638,4.0301,3.857,3.3951,3.3395,3.2484,3.0137,3.002,3.0207,3.0547,3.0795,3.1089,3.1383,3.157,3.1711,3.1711,3.1711,3.1711,3.1711,3.1711,3.1711,3.1711,3.1711,3.1711,3.1711,3.1711,3.1711,3.1711,3.1711,3.1711,3.1711,3.1711,3.1711,3.1711,3.1711,3.1711,3.1711,3.1711,3.1711,3.1711,3.1711,3.1711,3.1711,3.1711,3.1711,3.1711,3.1711,3.1791,3.1877,3.2051,3.2185,3.2398,3.2986,3.3146,3.3187,3.3374,3.3414,3.3414,3.3414,3.3414,3.3414,3.3414,3.3414,3.3414,3.3414,3.3414,3.3414,3.3414,3.3414,3.3414,3.3414,3.3414,3.3414,3.3414,3.3414,3.3534,3.3855,3.3988,3.4175,3.4469,3.4763,3.5004,3.5191,3.5191,3.5191,3.5191,3.5191,3.5191,3.5191,3.5191,3.5191,3.5191,3.5191,3.5191,3.5982,3.6641,3.7305,3.7305,3.7949,3.865,3.8787,3.8769,3.8984,3.9746,4.0215,4.0801,4.1816,4.2344,4.2773,4.3203,4.3516,4.2659,3.9607,3.9183,3.7459,3.2823,3.2307,3.1657,3.0048,2.9913,3.0034,3.0386,3.0635,3.0915,3.1209,3.1503,3.1711,3.1711,3.1711,3.1711,3.1711,3.1711,3.1711,3.1711,3.1711,3.1711,3.1711,3.1711,3.1711,3.1711,3.1711,3.1711,3.1711,3.1711,3.1711,3.1711,3.1711,3.1711,3.1711,3.1711,3.1711,3.1711,3.1711,3.1711,3.1711,3.1711,3.1711,3.1711,3.1711,3.1711,3.1751,3.1904,3.1971,3.2078,3.2572,3.2772,3.2969,3.32,3.328,3.3293,3.3387,3.3414,3.3414,3.3414,3.3414,3.3414,3.3414,3.3414,3.3414,3.3414,3.3414,3.3414,3.3414,3.3414,3.3414,3.3414,3.3414,3.3494,3.3721,3.3734,3.3868,3.4162,3.4376,3.4656,3.5044,3.5057,3.5097,3.5191,3.5191,3.5191,3.5191,3.5191,3.5191,3.5191,3.5191,3.5191,3.5982,3.6641,3.7305,3.7305,3.7949,3.8728,3.9101,3.9199,3.9336,3.9805,4.0918,4.1933,4.2344,4.2773,4.3223,4.3633,4.3711,4.2057,3.7432,3.6787,3.5071,3.0437,2.9913,2.9913,2.9913,2.9913,3.0034,3.0386,3.0621,3.0915,3.1162,3.1503,3.1711,3.1711,3.1711,3.1711,3.1711,3.1711,3.1711,3.1711,3.1711,3.1711,3.1711,3.1711,3.1711,3.1711,3.1711,3.1711,3.1711,3.1711,3.1711,3.1711,3.1711,3.1711,3.1711,3.1711,3.1711,3.1711,3.1711,3.1711,3.1711,3.1711,3.1711,3.1711,3.1711,3.1711,3.1711,3.1711,3.1711,3.1778,3.2024,3.2318,3.2661,3.2906,3.2973,3.3053,3.3347,3.3414,3.3414,3.3414,3.3414,3.3414,3.3414,3.3414,3.3414,3.3414,3.3414,3.3414,3.3414,3.3414,3.3414,3.3414,3.3414,3.3414,3.3414,3.3414,3.3547,3.3855,3.3881,3.4148,3.4788,3.4815,3.4897,3.5191,3.5191,3.5191,3.5191,3.5191,3.5191,3.5191,3.5191,3.5191,3.5982,3.6641,3.7305,3.7305,3.7949,3.8728,3.9101,3.9199,3.9414,4.0176,4.1113,4.1933,4.2344,4.2773,0.0,4.3633,4.3711,4.2057,3.7432,3.6787,3.5071,3.0437,2.9913,2.9913,2.9913,2.9913,2.9953,3.0047,3.0515,3.0822,3.0915,3.1396,3.1711,3.1711,3.1711,3.1711,3.1711,3.1711,3.1711,3.1711,3.1711,3.1711,3.1711,3.1711,3.1711,3.1711,3.1711,3.1711,3.1711,3.1711,3.1711,3.1711,3.1711,3.1711,3.1711,3.1711,3.1711,3.1711,3.1711,3.1711,3.1711,3.1711,3.1711,3.1711,3.1711,3.1711,3.1711,3.1711,3.1711,3.1738,3.1818,3.1912,3.2099,3.2607,3.2875,3.3,3.3093,3.3267,3.3414,3.3414,3.3414,3.3414,3.3414,3.3414,3.3414,3.3414,3.3414,3.3414,3.3414,3.3414,3.3414,3.3414,3.3414,3.3414,3.3414,3.3414,3.3454,3.3547,3.3547,3.3828,3.4429,3.4456,3.4589,3.4883,3.4949,3.499,3.5191,3.5191,3.5191,3.5191,3.5191,3.5191,3.623,3.6777,3.7344,3.75,3.8066,3.873,3.9336,3.9609,3.998,4.0859,4.1562,4.2187,4.2598,4.3027,0.0,4.3672,4.2927,4.1034,3.7304,3.601,3.4067,3.0348,2.9913,2.9913,2.9913,2.9913,2.9913,2.9913,3.0354,3.0675,3.0782,3.1236,3.1543,3.1711,3.1711,3.1711,3.1711,3.1711,3.1711,3.1711,3.1711,3.1711,3.1711,3.1711,3.1711,3.1711,3.1711,3.1711,3.1711,3.1711,3.1711,3.1711,3.1711,3.1711,3.1711,3.1711,3.1711,3.1711,3.1711,3.1711,3.1711,3.1711,3.1711,3.1711,3.1711,3.1711,3.1711,3.1711,3.1711,3.1711,3.1711,3.1711,3.1831,3.2313,3.2505,3.2692,3.2933,3.312,3.328,3.3387,3.3414,3.3414,3.3414,3.3414,3.3414,3.3414,3.3414,3.3414,3.3414,3.3414,3.3414,3.3414,3.3414,3.3414,3.3414,3.3414,3.3414,3.3414,3.3414,3.3574,3.3948,3.4082,3.4282,3.4589,3.4589,3.467,3.4843,3.4843,3.4843,3.4843,3.4843,3.4843,3.6577,3.6973,3.7402,3.7777,3.832,3.8943,3.9707,4.0254,4.082,4.1641,4.2129,4.2518,4.2988,4.3418,4.3711,4.3711,4.1807,3.948,3.7132,3.4853,3.2528,3.0182,2.9913,2.9913,2.9913,2.9913,2.9913,2.9913,3.0194,3.0533,3.0782,3.1062,3.1356,3.1711,3.1711,3.1711,3.1711,3.1711,3.1711,3.1711,3.1711,3.1711,3.1711,3.1711,3.1711,3.1711,3.1711,3.1711,3.1711,3.1711,3.1711,3.1711,3.1711,3.1711,3.1711,3.1711,3.1711,3.1711,3.1711,3.1711,3.1711,3.1711,3.1711,3.1711,3.1711,3.1711,3.1711,3.1711,3.1711,3.1711,3.1711,3.1711,3.1778,3.1998,3.2078,3.2251,3.2786,3.2946,3.3053,3.332,3.3387,3.3414,3.3414,3.3414,3.3414,3.3414,3.3414,3.3414,3.3414,3.3414,3.3414,3.3414,3.3414,3.3414,3.3414,3.3414,3.3414,3.3414,3.3414,3.3414,3.3414,3.3694,3.3975,3.4269,3.4282,3.4295,3.4322,3.4322,3.4322,3.4322,3.4322,3.4322,3.6577,3.6973,3.7402,3.7777,3.8769,3.9668,3.9844,4.0488,4.1172,4.1699,4.2129,4.2518,4.2988,4.3418,4.3711,4.3711,4.1807,3.948,3.7132,3.4853,3.2528,3.0182,2.9913,2.9913,2.9913,2.9913,2.9913,2.9913,3.0194,3.0533,3.0782,3.1062,3.1356,3.1711,3.1711,3.1711,3.1711,3.1711,3.1711,3.1711,3.1711,3.1711,3.1711,3.1711,3.1711,3.1711,3.1711,3.1711,3.1711,3.1711,3.1711,3.1711,3.1711,3.1711,3.1711,3.1711,3.1711,3.1711,3.1711,3.1711,3.1711,3.1711,3.1711,3.1711,3.1711,3.1711,3.1711,3.1711,3.1711,3.1711,3.1711,3.1711,3.1724,3.1744,3.1931,3.2131,3.2265,3.2652,3.3,3.3053,3.3253,3.3414,3.3414,3.3414,3.3414,3.3414,3.3414,3.3414,3.3414,3.3414,3.3414,3.3414,3.3414,3.3414,3.3414,3.3414,3.3414,3.3414,3.3414,3.3414,3.3414,3.348,3.3654,3.3975,3.3975,3.4095,3.4322,3.4322,3.4322,3.4322,3.4322,3.4322,3.6797,3.7129,3.7441,3.8086,3.9062,3.9902,3.9902,4.0566,4.1348,4.1973,4.2226,4.2617,4.3262,4.2649,4.2057,4.2057,3.9225,3.6572,3.5316,3.316,3.1257,3.0048,2.9913,2.9913,2.9913,2.9913,2.9913,2.9913,3.006,3.0274,3.0568,3.0862,3.1156,3.145,3.1644,3.1711,3.1711,3.1711,3.1711,3.1711,3.1711,3.1711,3.1711,3.1711,3.1711,3.1711,3.1711,3.1711,3.1711,3.1711,3.1711,3.1711,3.1711,3.1711,3.1711,3.1711,3.1711,3.1711,3.1711,3.1711,3.1711,3.1711,3.1711,3.1711,3.1711,3.1711,3.1711,3.1711,3.1711,3.1711,3.1711,3.1711,3.1711,3.1711,3.1831,3.1931,3.2078,3.2345,3.2639,3.2919,3.3106,3.3253,3.3387,3.3414,3.3414,3.3414,3.3414,3.3414,3.3414,3.3414,3.3414,3.3414,3.3414,3.3414,3.3414,3.3414,3.3414,3.3414,3.3414,3.3414,3.3414,3.3414,3.3494,3.3654,3.3654,3.3734,3.3881,3.3881,3.3881,3.3881,3.3881,3.3881,3.707,3.7402,3.7695,3.8435,3.9238,3.9902,3.9902,4.0566,4.1387,4.2148,4.2343,4.2695,4.3555,4.1848,4.0301,4.0301,3.6442,3.3395,3.3395,3.139,2.9913,2.9913,2.9913,2.9913,2.9913,2.9913,2.9913,2.9913,2.9913,3.0047,3.0386,3.0635,3.0929,3.1162,3.1517,3.1711,3.1711,3.1711,3.1711,3.1711,3.1711,3.1711,3.1711,3.1711,3.1711,3.1711,3.1711,3.1711,3.1711,3.1711,3.1711,3.1711,3.1711,3.1711,3.1711,3.1711,3.1711,3.1711,3.1711,3.1711,3.1711,3.1711,3.1711,3.1711,3.1711,3.1711,3.1711,3.1711,3.1711,3.1711,3.1711,3.1711,3.1711,3.1711,3.1711,3.1778,3.1971,3.2064,3.2251,3.2732,3.2906,3.3066,3.336,3.3414,3.3414,3.3414,3.3414,3.3414,3.3414,3.3414,3.3414,3.3414,3.3414,3.3414,3.3414,3.3414,3.3414,3.3414,3.3414,3.3414,3.3414,3.3414,3.3414,3.3414,3.3414,3.3414,3.3414,3.3414,3.3414,3.3414,3.3414,3.3414,3.707,3.7832,3.8474,3.8591,3.9238,3.9902,3.9902,4.0566,4.1348,4.1777,4.2168,4.2695,4.3555,4.1848,4.0301,4.0301,3.6442,3.3395,3.3395,3.139,2.9913,2.9913,2.9913,2.9913,2.9913,2.9913,2.9913,2.9913,2.9913,3.0047,3.0386,3.0635,3.0929,3.1162,3.1517,3.1711,3.1711,3.1711,3.1711,3.1711,3.1711,3.1711,3.1711,3.1711,3.1711,3.1711,3.1711,3.1711,3.1711,3.1711,3.1711,3.1711,3.1711,3.1711,3.1711,3.1711,3.1711,3.1711,3.1711,3.1711,3.1711,3.1711,3.1711,3.1711,3.1711,3.1711,3.1711,3.1711,3.1711,3.1711,3.1711,3.1711,3.1711,3.1711,3.1711,3.1724,3.1764,3.1931,3.2118,3.2198,3.2625,3.3066,3.336,3.3414,3.3414,3.3414,3.3414,3.3414,3.3414,3.3414,3.3414,3.3414,3.3414,3.3414,3.3414,3.3414,3.3414,3.3414,3.3414,3.3414,3.3414,3.3414,3.3414,3.3414,3.3414,3.3414,3.3414,3.3414,3.3414,3.3414,3.3414,3.3414,3.7422,3.8105,3.8611,3.8611,3.9043,3.957,3.9844,4.0371,4.0996,4.166,4.2129,4.2617,4.3242,4.0618,3.8331,3.8331,3.446,3.1435,3.1435,3.0571,2.9913,2.9913,2.9913,2.9913,2.9913,2.9913,2.9913,2.9913,2.9913,2.9967,3.01,3.0394,3.0688,3.0969,3.1263,3.1503,3.1711,3.1711,3.1711,3.1711,3.1711,3.1711,3.1711,3.1711,3.1711,3.1711,3.1711,3.1711,3.1711,3.1711,3.1711,3.1711,3.1711,3.1711,3.1711,3.1711,3.1711,3.1711,3.1711,3.1711,3.1711,3.1711,3.1711,3.1711,3.1711,3.1711,3.1711,3.1711,3.1711,3.1711,3.1711,3.1711,3.1711,3.1711,3.1711,3.1711,3.1711,3.177,3.1904,3.2064,3.2572,3.3013,3.3146,3.3307,3.3414,3.3414,3.3414,3.3414,3.3414,3.3414,3.3414,3.3414,3.3414,3.3414,3.3414,3.3414,3.3414,3.3414,3.3414,3.3414,3.3414,3.3414,3.3414,3.3414,3.3414,3.3414,3.3414,3.3414,3.3414,3.3414,3.3414,3.3414,3.7754,3.8242,3.8611,3.8611,3.8887,3.9316,3.9785,4.0215,4.0742,4.1484,4.1973,4.2182,4.2063,3.9161,3.6787,3.6787,3.2911,2.9913,2.9913,2.9913,2.9913,2.9913,2.9913,2.9913,2.9913,2.9913,2.9913,2.9913,2.9913,2.9913,2.9913,3.0194,3.0507,3.0675,3.1036,3.133,3.1557,3.1684,3.1711,3.1711,3.1711,3.1711,3.1711,3.1711,3.1711,3.1711,3.1711,3.1711,3.1711,3.1711,3.1711,3.1711,3.1711,3.1711,3.1711,3.1711,3.1711,3.1711,3.1711,3.1711,3.1711,3.1711,3.1711,3.1711,3.1711,3.1711,3.1711,3.1711,3.1711,3.1711,3.1711,3.1711,3.1711,3.1711,3.1711,3.1711,3.1711,3.1711,3.1805,3.2051,3.2519,3.2942,3.3009,3.3213,3.3414,3.3414,3.3414,3.3414,3.3414,3.3414,3.3414,3.3414,3.3414,3.3414,3.3414,3.3414,3.3414,3.3414,3.3414,3.3414,3.3414,3.3414,3.3414,3.3414,3.3414,3.3414,3.3414,3.3414,3.3414,3.3414,3.3414,3.3414,3.7874,3.8242,3.8611,3.8611,3.8887,3.9316,3.9785,4.0215,4.0644,4.1113,4.1543,4.1298,3.954,3.7875,3.6787,3.6787,3.2911,2.9913,2.9913,2.9913,2.9913,2.9913,2.9913,2.9913,2.9913,2.9913,2.9913,2.9913,2.9913,2.9913,2.9913,3.0194,3.0413,3.0426,3.0929,3.1236,3.1249,3.153,3.1711,3.1711,3.1711,3.1711,3.1711,3.1711,3.1711,3.1711,3.1711,3.1711,3.1711,3.1711,3.1711,3.1711,3.1711,3.1711,3.1711,3.1711,3.1711,3.1711,3.1711,3.1711,3.1711,3.1711,3.1711,3.1711,3.1711,3.1711,3.1711,3.1711,3.1711,3.1711,3.1711,3.1711,3.1711,3.1711,3.1711,3.1711,3.1711,3.1711,3.1805,3.2051,3.2407,3.2701,3.2982,3.3213,3.3414,3.3414,3.3414,3.3414,3.3414,3.3414,3.3414,3.3414,3.3414,3.3414,3.3414,3.3414,3.3414,3.3414,3.3414,3.3414,3.3414,3.3414,3.3414,3.3414,3.3414,3.3414,3.3414,3.3414,3.3414,3.3414,3.3414,3.3414,3.8262,3.8457,3.8611,3.8611,3.8728,3.8906,3.9355,3.869,3.8514,4.0395,4.0154,3.9471,3.8793,3.7455,3.6036,3.4806,3.1953,2.9913,2.9913,2.9913,2.9913,2.9913,2.9913,2.9913,2.9913,2.9913,2.9913,2.9913,2.9913,2.9913,2.9913,3.002,3.0167,3.04,3.0614,3.0849,3.1223,3.1517,3.1711,3.1711,3.1711,3.1711,3.1711,3.1711,3.1711,3.1711,3.1711,3.1711,3.1711,3.1711,3.1711,3.1711,3.1711,3.1711,3.1711,3.1711,3.1711,3.1711,3.1711,3.1711,3.1711,3.1711,3.1711,3.1711,3.1711,3.1711,3.1711,3.1711,3.1711,3.1711,3.1711,3.1711,3.1711,3.1711,3.1711,3.1711,3.1711,3.1711,3.1751,3.1797,3.2064,3.2358,3.2701,3.2995,3.32,3.3387,3.3414,3.3414,3.3414,3.3414,3.3414,3.3414,3.3414,3.3414,3.3414,3.3414,3.3414,3.3414,3.3414,3.3414,3.3414,3.3414,3.3414,3.3414,3.3414,3.3414,3.3414,3.3414,3.3414,3.3414,3.3414,3.3414,3.8532,3.8611,3.8611,3.8611,3.8611,3.8728,3.9101,3.8291,3.7854,3.9164,3.8737,3.7966,3.745,3.5908,3.4418,3.3403,3.1364,2.9913,2.9913,2.9913,2.9913,2.9913,2.9913,2.9913,2.9913,2.9913,2.9913,2.9913,2.9913,0.0,2.9913,2.9913,3.0047,3.04,3.04,3.0635,3.1176,3.1423,3.157,3.1711,3.1711,3.1711,3.1711,3.1711,3.1711,3.1711,3.1711,3.1711,3.1711,3.1711,3.1711,3.1711,3.1711,3.1711,3.1711,3.1711,3.1711,3.1711,3.1711,3.1711,3.1711,3.1711,3.1711,3.1711,3.1711,3.1711,3.1711,3.1711,3.1711,3.1711,3.1711,3.1711,3.1711,3.1711,3.1711,3.1711,3.1711,3.1711,3.1711,3.1711,3.1904,3.2198,3.2541,3.2835,3.308,3.3374,3.3414,3.3414,3.3414,3.3414,3.3414,3.3414,3.3414,3.3414,3.3414,3.3414,3.3414,3.3414,3.3414,3.3414,3.3414,3.3414,3.3414,3.3414,3.3414,3.3414,3.3414,3.3414,3.3414,3.3414,3.3414,3.3414,0.0,0.0,0.0,3.8611,3.8611,3.8691,3.9082,3.9162,3.8779,3.7604,3.7261,3.6786,3.5318,3.3276,3.201,3.2666,3.1165,2.99,2.9913,2.9913,2.9913,2.9913,2.9913,2.9913,2.9913,2.9913,2.9913,2.9913,2.9913,2.9913,2.9913,2.9913,3.0047,3.0386,3.04,3.0635,3.1196,3.1162,3.1356,3.1698,3.1698,3.1711,3.1711,3.1711,3.1711,3.1711,3.1711,3.1711,3.1711,3.1711,3.1711,3.1711,3.1711,3.1711,3.1711,3.1711,3.1711,3.1711,3.1711,3.1711,3.1711,3.1711,3.1711,3.1711,3.1711,3.1711,3.1711,3.1711,3.1711,3.1711,3.1711,3.1711,3.1711,3.1711,3.1711,3.1711,3.1711,3.1711,3.1711,3.1711,3.1891,3.2185,3.2527,3.2822,3.3066,3.336,3.34,3.3414,3.3414,3.3414,3.3414,3.3414,3.3414,3.3414,3.3414,3.3414,3.3414,3.3414,3.3414,3.3414,3.3414,3.3414,3.3414,3.3414,3.3414,3.3414,3.3414,3.3414,3.3414,3.3414,3.3414,3.3414,3.8611,0.0,0.0,0.0,0.0,0.0,3.873,3.7799,3.7239,3.8424,3.6672,3.4771,3.4371,3.2907,3.137,3.0025,2.9697,2.9673,2.9887,2.9913,2.9913,2.9913,2.9913,2.9913,2.9913,2.9913,2.9913,0.0,2.9913,2.9913,2.9913,2.9913,2.9953,3.0034,3.0247,3.048,3.0595,3.0808,3.1062,3.1343,3.1343,3.1463,3.1711,3.1711,3.1711,3.1711,3.1711,3.1711,3.1711,3.1711,3.1711,3.1711,3.1711,3.1711,3.1711,3.1711,3.1711,3.1711,3.1711,3.1711,3.1711,3.1711,3.1711,3.1711,3.1711,3.1711,3.1711,3.1711,3.1711,3.1711,3.1711,3.1711,3.1711,3.1711,3.1711,3.1711,3.1711,3.1711,3.1711,3.1711,3.1778,3.1877,3.2171,3.2514,3.2808,3.3053,3.328,3.3414,3.3414,3.3414,3.3414,3.3414,3.3414,3.3414,3.3414,3.3414,3.3414,3.3414,3.3414,3.3414,3.3414,3.3414,3.3414,3.3414,3.3414,3.3414,3.3414,3.3414,3.3414,3.3414,3.3414,3.3414,0.0,0.0,0.0,0.0,0.0,0.0,3.8611,3.7812,3.7278,3.7972,3.6492,3.4925,3.4408,3.2848,3.1276,3.0099,2.9476,2.9259,2.9673,2.974,2.978,2.99,2.9913,2.9913,2.9913,2.9913,2.9913,2.9913,2.9913,2.9913,2.9913,2.9913,2.9913,2.9913,3.0087,3.0279,3.04,3.0574,3.0755,3.1049,3.1049,3.1196,3.149,3.149,3.1557,3.1711,3.1711,3.1711,3.1711,3.1711,3.1711,3.1711,3.1711,3.1711,3.1711,3.1711,3.1711,3.1711,3.1711,3.1711,3.1711,3.1711,3.1711,3.1711,3.1711,3.1711,3.1711,3.1711,3.1711,3.1711,3.1711,3.1711,3.1711,3.1711,3.1711,3.1711,3.1711,3.1711,3.1711,3.1711,3.1711,3.1805,3.2051,3.2393,3.2688,3.2982,3.3227,3.3414,3.3414,3.3414,3.3414,3.3414,3.3414,3.3414,3.3414,3.3414,3.3414,3.3414,3.3414,3.3414,3.3414,3.3414,3.3414,3.3414,3.3414,3.3414,3.3414,3.3414,3.3414,3.3414,3.3414,3.3414,0.0,0.0,0.0,0.0,0.0,0.0,3.8611,3.8611,3.8275,3.7118,3.6726,3.628,3.5194,3.3211,3.1854,3.2073,3.0325,2.9052,2.9396,2.9432,2.9539,2.9833,2.9873,2.9887,2.9913,2.9913,2.9913,2.9913,2.9913,2.9913,2.9913,2.9913,2.9913,2.9913,2.9913,3.0047,3.036,3.036,3.0507,3.0742,3.0742,3.0902,3.1183,3.1183,3.1343,3.1623,3.1623,3.1684,3.1711,3.1711,3.1711,3.1711,3.1711,3.1711,3.1711,3.1711,3.1711,3.1711,3.1711,3.1711,3.1711,3.1711,3.1711,3.1711,3.1711,3.1711,3.1711,3.1711,3.1711,3.1711,3.1711,3.1711,3.1711,3.1711,3.1711,3.1711,3.1711,3.1711,3.1711,3.1711,3.1711,3.1805,3.2011,3.238,3.2688,3.2942,3.32,3.3414,3.3414,3.3414,3.3414,3.3414,3.3414,3.3414,3.3414,3.3414,3.3414,3.3414,3.3414,3.3414,3.3414,3.3414,3.3414,3.3414,3.3414,3.3414,3.3414,3.3414,3.3414,3.3414,3.3414,3.3414,0.0,0.0,0.0,0.0,0.0,0.0,3.8611,3.8611,3.8601,3.868,3.7592,3.6636,3.6788,3.5297,3.4058,3.414,3.2268,3.0465,2.9249,2.9081,2.9232,2.9539,2.9566,2.9659,2.99,2.9913,2.9913,2.9913,2.9913,2.9913,2.9913,2.9913,2.9913,2.9913,2.9913,2.994,3.0007,3.0007,3.0154,3.0493,3.0493,3.0595,3.0875,3.0875,3.1036,3.1316,3.1316,3.145,3.1711,3.1711,3.1711,3.1711,3.1711,3.1711,3.1711,3.1711,3.1711,3.1711,3.1711,3.1711,3.1711,3.1711,3.1711,3.1711,3.1711,3.1711,3.1711,3.1711,3.1711,3.1711,3.1711,3.1711,3.1711,3.1711,3.1711,3.1711,3.1711,3.1711,3.1711,3.1711,3.1711,3.1738,3.1791,3.2246,3.2607,3.2674,3.308,3.3414,3.3414,3.3414,3.3414,3.3414,3.3414,3.3414,3.3414,3.3414,3.3414,3.3414,3.3414,3.3414,3.3414,3.3414,3.3414,3.3414,3.3414,3.3414,3.3414,3.3414,3.3414,3.3414,3.3414,3.3414,0.0,0.0,0.0,3.8611,0.0,0.0,0.0,3.8767,3.9004,3.9453,3.9032,3.8338,3.7732,3.6879,3.596,3.4854,3.2817,3.1111,3.0325,2.9385,2.8895,2.9232,2.9259,2.9379,2.9673,2.97,2.9766,2.99,2.9913,2.9913,2.9913,2.9913,2.9913,2.9913,2.9913,2.9913,2.9913,2.9913,2.9993,3.014,3.014,3.0287,3.0627,3.0627,3.0742,3.1009,3.1009,3.1183,3.145,3.145,3.153,3.1711,3.1711,3.1711,3.1711,3.1711,3.1711,3.1711,3.1711,3.1711,3.1711,3.1711,3.1711,3.1711,3.1711,3.1711,3.1711,3.1711,3.1711,3.1711,3.1711,3.1711,3.1711,3.1711,3.1711,3.1711,3.1711,3.1711,3.1711,3.1711,3.1711,3.1711,3.1711,3.2206,3.2594,3.2594,3.304,3.3414,3.3414,3.3414,3.3414,3.3414,3.3414,3.3414,3.3414,3.3414,3.3414,3.3414,3.3414,3.3414,3.3414,3.3414,3.3414,3.3414,3.3414,3.3414,3.3414,3.3414,3.3414,3.3414,3.3414,3.3414,0.0,0.0,0.0,0.0,0.0,3.8611,0.0,0.0,0.0,3.9805,4.0234,4.0086,3.8769,3.8548,0.0,3.6241,0.0,0.0,0.0,3.0,0.0,2.8881,2.8908,2.9072,2.9366,2.9446,2.9606,2.99,2.9913,2.9913,2.9913,2.9913,2.9913,2.9913,2.9913,2.9913,2.9913,2.9913,2.9913,2.9913,2.9913,3.0047,3.0319,3.0319,3.048,3.0715,3.0715,3.0875,3.1142,3.1142,3.1316,3.1583,3.165,3.1711,3.1711,3.1711,3.1711,3.1711,3.1711,3.1711,3.1711,3.1711,3.1711,3.1711,3.1711,3.1711,3.1711,3.1711,3.1711,3.1711,3.1711,3.1711,3.1711,3.1711,3.1711,3.1711,3.1711,3.1711,3.1711,3.1711,3.1711,3.1711,3.1711,3.2152,3.2527,3.2581,3.2986,3.3347,3.34,3.3414,3.3414,3.3414,3.3414,3.3414,3.3414,3.3414,3.3414,3.3414,3.3414,3.3414,3.3414,3.3414,3.3414,3.3414,3.3414,3.3414,3.3414,3.3414,3.3414,3.3414,3.3414,3.3414,0.0,0.0,0.0,0.0,3.8611,0.0,0.0,0.0,3.9336,3.9805,0.0,0.0,0.0,0.0,0.0,0.0,0.0,0.0,3.4327,3.0829,2.8353,2.8617,2.8657,2.8764,2.9015,2.9325,2.9606,2.99,2.9913,2.9913,2.9913,2.9913,2.9913,2.9913,2.9913,2.9913,2.9913,2.9913,2.9913,2.9913,2.9913,2.994,2.9967,2.9967,3.0127,3.0453,3.0453,3.0614,3.0849,3.0849,3.1009,3.1303,3.157,3.1711,3.1711,3.1711,3.1711,3.1711,3.1711,3.1711,3.1711,3.1711,3.1711,3.1711,3.1711,3.1711,3.1711,3.1711,3.1711,3.1711,3.1711,3.1711,3.1711,3.1711,3.1711,3.1711,3.1711,3.1711,3.1711,3.1711,3.1711,3.1711,3.1711,3.1931,3.2238,3.2554,3.2875,3.312,3.3374,3.3414,3.3414,3.3414,3.3414,3.3414,3.3414,3.3414,3.3414,3.3414,3.3414,3.3414,3.3414,3.3414,3.3414,3.3414,3.3414,3.3414,3.3414,3.3414,3.3414,3.3414,3.3414,3.3414,0.0,0.0,0.0,0.0,0.0,0.0,0.0,0.0,4.0019,0.0,0.0,0.0,0.0,0.0,0.0,0.0,3.8606,0.0,0.0,0.0,2.9621,0.0,0.0,0.0,2.8764,2.9205,2.9539,2.9659,2.982,2.9913,2.9913,2.9913,2.9913,2.9913,2.9913,2.9913,2.9913,2.9913,2.9913,2.9913,2.9913,2.9913,2.9913,2.9913,2.998,3.01,3.01,3.0274,3.0587,3.0587,3.0715,3.1009,3.1303,3.1517,3.1711,3.1711,3.1711,3.1711,3.1711,3.1711,3.1711,3.1711,3.1711,3.1711,3.1711,3.1711,3.1711,3.1711,3.1711,3.1711,3.1711,3.1711,3.1711,3.1711,3.1711,3.1711,3.1711,3.1711,3.1711,3.1711,3.1711,3.1711,3.1711,3.1904,3.2198,3.2554,3.2835,3.308,3.3374,3.3414,3.3414,3.3414,3.3414,3.3414,3.3414,3.3414,3.3414,3.3414,3.3414,3.3414,3.3414,3.3414,3.3414,3.3414,3.3414,3.3414,3.3414,3.3414,3.3414,3.3414,3.3414,3.3414,3.8906,0.0,0.0,0.0,0.0,0.0,0.0,0.0,0.0,0.0,0.0,0.0,0.0,0.0,0.0,0.0,0.0,3.7697,0.0,3.3798,0.0,0.0,0.0,0.0,0.0,2.8991,2.9312,2.9472,2.9673,2.9833,2.9913,2.9913,2.9913,2.9913,2.9913,2.9913,2.9913,2.9913,2.9913,2.9913,2.9913,2.9913,2.9913,2.9913,2.9913,2.9913,2.9913,3.0034,3.0234,3.0234,3.0408,3.0702,3.0902,3.1169,3.145,3.1657,3.1711,3.1711,3.1711,3.1711,3.1711,3.1711,3.1711,3.1711,3.1711,3.1711,3.1711,3.1711,3.1711,3.1711,3.1711,3.1711,3.1711,3.1711,3.1711,3.1711,3.1711,3.1711,3.1711,3.1711,3.1711,3.1711,3.1711,3.1837,3.2118,3.2541,3.2781,3.2986,3.336,3.3414,3.3414,3.3414,3.3414,3.3414,3.3414,3.3414,3.3414,3.3414,3.3414,3.3414,3.3414,3.3414,3.3414,3.3414,3.3414,3.3414,3.3414,3.3414,3.3414,3.3414,3.3414,3.3414,0.0,0.0,0.0,3.9863,0.0,0.0,0.0,0.0,4.0489,0.0,0.0,0.0,0.0,0.0,0.0,0.0,0.0,0.0,0.0,0.0,0.0,0.0,0.0,0.0,0.0,2.8631,2.8871,0.0,2.9486,2.9619,2.99,2.9913,2.9913,2.9913,2.9913,2.9913,2.9913,2.9913,2.9913,2.9913,2.9913,2.9913,2.9913,2.9913,2.9913,2.9913,2.9913,2.9927,2.9927,2.9927,3.01,3.0426,3.0426,3.0614,3.0889,3.1463,3.1711,3.1711,3.1711,3.1711,3.1711,3.1711,3.1711,3.1711,3.1711,3.1711,3.1711,3.1711,3.1711,3.1711,3.1711,3.1711,3.1711,3.1711,3.1711,3.1711,3.1711,3.1711,3.1711,3.1711,3.1711,3.1711,3.1711,3.1724,3.1925,3.25,3.2607,3.2808,3.3334,3.3414,3.3414,3.3414,3.3414,3.3414,3.3414,3.3414,3.3414,3.3414,3.3414,3.3414,3.3414,3.3414,3.3414,3.3414,3.3414,3.3414,3.3414,3.3414,3.3414,3.3414,3.3414,3.3414,0.0,0.0,3.9902,3.9902,0.0,0.0,0.0,0.0,0.0,0.0,0.0,0.0,0.0,0.0,0.0,0.0,0.0,0.0,0.0,0.0,0.0,0.0,0.0,0.0,0.0,0.0,0.0,2.8885,2.9259,2.9526,2.9619,2.9806,2.9913,2.9913,2.9913,2.9913,2.9913,2.9913,2.9913,2.9913,2.9913,2.9913,2.9913,2.9913,2.9913,2.9913,2.9913,2.9913,2.9913,2.9913,2.998,3.0087,3.0333,3.0467,3.0627,3.1156,3.1383,3.1396,3.1597,3.1711,3.1711,3.1711,3.1711,3.1711,3.1711,3.1711,3.1711,3.1711,3.1711,3.1711,3.1711,3.1711,3.1711,3.1711,3.1711,3.1711,3.1711,3.1711,3.1711,3.1711,3.1711,3.1711,3.1711,3.1711,3.1845,3.2198,3.2474,3.2741,3.308,3.3293,3.3414,3.3414,3.3414,3.3414,3.3414,3.3414,3.3414,3.3414,3.3414,3.3414,3.3414,3.3414,3.3414,3.3414,3.3414,3.3414,3.3414,3.3414,3.3414,3.3414,3.3414,3.3414,4.0312,4.0351,0.0,4.0351,4.0547,0.0,4.0762,0.0,0.0,0.0,0.0,0.0,0.0,0.0,0.0,0.0,0.0,0.0,0.0,3.5782,0.0,0.0,0.0,0.0,0.0,0.0,2.8484,2.8604,2.8951,2.9259,0.0,2.9659,2.9806,2.9913,2.9913,2.9913,2.9913,2.9913,2.9913,2.9913,2.9913,2.9913,2.9913,2.9913,2.9913,2.9913,2.9913,2.9913,2.9913,2.9913,2.9913,2.994,3.0127,3.0207,3.0274,3.0862,3.1129,3.1276,3.157,3.1711,3.1711,3.1711,3.1711,3.1711,3.1711,3.1711,3.1738,3.1845,3.1744,3.1738,3.1845,3.1791,3.1711,3.1711,3.1711,3.1711,3.1711,3.1711,3.1711,3.1711,3.1711,3.1711,3.1711,3.1711,3.177,3.2064,3.2407,3.2701,3.2995,3.3227,3.3414,3.3414,3.3414,3.3414,3.3414,3.3414,3.3414,3.3414,3.3414,3.3414,3.3414,3.3414,3.3507,3.3734,3.3521,3.3521,3.3734,3.3521,3.3414,3.3414,3.3414,3.3414]},{"header":{"parameterUnit":"m.s-1","parameterCategory":1,"la1":30.6,"la2":29.2853,"lo1":-89.7004,"lo2":-87.6739,"dy":0.0162,"dx":0.0183,"nx":112,"ny":82,"refTime":"2023-04-07T00:00:00:Z","depth":0,"parameterNumber":3,"parameterNumberName":"V-component_of_WINDS"},"data":[0.0,0.0,0.0,0.0,0.0,0.0,0.0,0.0,0.0,0.0,0.0,0.0,0.0,0.0,0.0,0.0,0.0,0.0,0.0,0.0,0.0,0.0,0.0,0.0,0.0,0.0,0.0,0.0,0.0,0.0,0.0,0.0,0.0,0.0,0.0,0.0,0.0,0.0,0.0,0.0,0.0,0.0,0.0,0.0,0.0,0.0,0.0,0.0,0.0,0.0,0.0,0.0,0.0,0.0,0.0,0.0,0.0,0.0,0.0,0.0,0.0,0.0,0.0,0.0,0.0,0.0,0.0,0.0,0.0,0.0,0.0,0.0,0.0,0.0,0.0,0.0,0.0,0.0,0.0,0.0,0.0,0.0,0.0,0.0,0.0,0.0,0.0,0.0,0.0,0.0,0.0,5.2469,5.3078,5.3518,5.3518,5.3518,5.3518,5.3518,0.0,0.0,0.0,0.0,0.0,0.0,0.0,0.0,0.0,0.0,0.0,0.0,0.0,0.0,0.0,0.0,0.0,0.0,0.0,0.0,0.0,0.0,0.0,0.0,0.0,0.0,0.0,0.0,0.0,0.0,0.0,0.0,0.0,0.0,0.0,0.0,0.0,0.0,0.0,0.0,0.0,0.0,0.0,0.0,0.0,0.0,0.0,0.0,0.0,0.0,0.0,0.0,0.0,0.0,0.0,0.0,0.0,0.0,0.0,0.0,0.0,0.0,0.0,0.0,0.0,0.0,0.0,0.0,0.0,0.0,0.0,0.0,0.0,0.0,0.0,0.0,0.0,0.0,0.0,0.0,0.0,0.0,0.0,0.0,0.0,0.0,0.0,0.0,0.0,0.0,0.0,0.0,0.0,0.0,0.0,0.0,0.0,0.0,0.0,0.0,0.0,0.0,0.0,0.0,5.257,5.3247,5.345,5.3518,5.3518,5.3518,5.3518,5.3518,0.0,0.0,0.0,0.0,0.0,0.0,0.0,0.0,0.0,0.0,0.0,0.0,0.0,0.0,0.0,0.0,0.0,0.0,0.0,0.0,0.0,0.0,0.0,0.0,0.0,0.0,0.0,0.0,0.0,0.0,0.0,0.0,0.0,0.0,0.0,0.0,0.0,0.0,0.0,0.0,0.0,0.0,0.0,0.0,0.0,0.0,0.0,0.0,0.0,0.0,0.0,0.0,0.0,0.0,0.0,0.0,0.0,0.0,0.0,0.0,0.0,0.0,0.0,0.0,0.0,0.0,0.0,0.0,0.0,0.0,0.0,0.0,0.0,0.0,0.0,0.0,0.0,0.0,0.0,0.0,0.0,0.0,0.0,0.0,0.0,0.0,0.0,0.0,0.0,0.0,0.0,0.0,0.0,0.0,0.0,0.0,0.0,0.0,0.0,0.0,0.0,0.0,0.0,5.2942,5.3247,5.4025,5.4093,5.4262,5.4651,5.4684,5.4684,5.4684,5.4684,0.0,0.0,0.0,0.0,0.0,0.0,0.0,0.0,0.0,0.0,0.0,0.0,0.0,0.0,0.0,0.0,0.0,0.0,0.0,0.0,0.0,0.0,0.0,0.0,0.0,0.0,0.0,0.0,0.0,0.0,0.0,0.0,0.0,0.0,0.0,0.0,0.0,0.0,0.0,0.0,0.0,0.0,0.0,0.0,0.0,0.0,0.0,0.0,0.0,0.0,0.0,0.0,0.0,0.0,0.0,0.0,0.0,0.0,0.0,0.0,0.0,0.0,0.0,0.0,0.0,0.0,0.0,0.0,0.0,0.0,0.0,0.0,0.0,0.0,0.0,0.0,0.0,0.0,0.0,0.0,0.0,0.0,0.0,0.0,0.0,0.0,0.0,0.0,0.0,0.0,0.0,0.0,0.0,0.0,0.0,0.0,0.0,0.0,0.0,0.0,0.0,0.0,5.3754,5.4025,5.4769,5.4871,5.5108,5.5665,5.5699,5.5699,5.5699,5.5699,0.0,0.0,0.0,0.0,0.0,0.0,0.0,0.0,0.0,0.0,0.0,0.0,0.0,0.0,0.0,0.0,0.0,0.0,0.0,0.0,0.0,0.0,0.0,0.0,0.0,0.0,0.0,0.0,0.0,0.0,0.0,0.0,0.0,0.0,0.0,0.0,0.0,0.0,0.0,0.0,0.0,0.0,0.0,0.0,0.0,0.0,0.0,0.0,0.0,0.0,0.0,0.0,0.0,0.0,0.0,0.0,0.0,0.0,0.0,0.0,0.0,0.0,0.0,0.0,0.0,0.0,0.0,0.0,0.0,0.0,0.0,0.0,0.0,0.0,0.0,0.0,0.0,0.0,0.0,0.0,0.0,0.0,0.0,0.0,0.0,0.0,0.0,0.0,0.0,0.0,0.0,0.0,0.0,0.0,0.0,0.0,0.0,0.0,0.0,0.0,0.0,0.0,5.4499,5.4803,5.553,5.5631,5.5631,5.5699,5.5699,5.5699,5.5699,5.5699,0.0,0.0,0.0,0.0,0.0,0.0,0.0,0.0,0.0,0.0,0.0,0.0,0.0,0.0,0.0,0.0,0.0,0.0,0.0,0.0,0.0,0.0,0.0,0.0,0.0,0.0,0.0,0.0,0.0,0.0,0.0,0.0,0.0,0.0,0.0,0.0,0.0,0.0,0.0,0.0,0.0,0.0,0.0,0.0,0.0,0.0,0.0,0.0,0.0,0.0,0.0,0.0,0.0,0.0,0.0,0.0,0.0,0.0,0.0,0.0,0.0,0.0,0.0,0.0,0.0,0.0,0.0,0.0,0.0,0.0,0.0,0.0,0.0,0.0,0.0,0.0,0.0,0.0,0.0,0.0,0.0,0.0,0.0,0.0,0.0,0.0,0.0,0.0,0.0,0.0,0.0,0.0,0.0,0.0,0.0,0.0,0.0,0.0,0.0,0.0,0.0,0.0,5.531,5.5581,0.0,5.6393,5.6562,5.7036,5.707,5.707,5.707,0.0,0.0,0.0,0.0,0.0,0.0,0.0,0.0,0.0,0.0,0.0,0.0,0.0,0.0,0.0,0.0,0.0,0.0,0.0,0.0,0.0,0.0,0.0,0.0,0.0,0.0,0.0,0.0,0.0,0.0,0.0,0.0,0.0,0.0,0.0,0.0,0.0,0.0,0.0,0.0,0.0,0.0,0.0,0.0,0.0,0.0,0.0,0.0,0.0,0.0,0.0,0.0,0.0,0.0,0.0,0.0,0.0,0.0,0.0,0.0,0.0,0.0,0.0,0.0,0.0,0.0,0.0,0.0,0.0,0.0,0.0,0.0,0.0,0.0,0.0,0.0,0.0,0.0,0.0,0.0,0.0,0.0,0.0,0.0,0.0,0.0,0.0,0.0,0.0,0.0,0.0,0.0,0.0,0.0,0.0,0.0,0.0,0.0,0.0,0.0,0.0,0.0,5.5936,5.6037,5.6409,0.0,5.7509,5.7814,5.8524,5.861,5.861,5.861,0.0,0.0,0.0,0.0,0.0,0.0,0.0,0.0,0.0,0.0,0.0,0.0,0.0,0.0,0.0,0.0,0.0,0.0,0.0,0.0,0.0,0.0,0.0,0.0,0.0,0.0,0.0,0.0,0.0,0.0,0.0,0.0,0.0,0.0,0.0,0.0,0.0,0.0,0.0,0.0,0.0,0.0,0.0,0.0,0.0,0.0,0.0,0.0,0.0,0.0,0.0,0.0,0.0,0.0,0.0,0.0,0.0,0.0,0.0,0.0,0.0,0.0,0.0,0.0,0.0,0.0,0.0,0.0,0.0,0.0,0.0,0.0,0.0,0.0,0.0,0.0,0.0,0.0,0.0,0.0,0.0,0.0,0.0,0.0,0.0,0.0,0.0,0.0,0.0,0.0,0.0,0.0,0.0,0.0,0.0,0.0,0.0,0.0,0.0,0.0,0.0,0.0,5.6731,5.6833,5.7408,5.8844,5.9013,5.9317,6.0047,6.0114,6.0114,0.0,0.0,0.0,0.0,0.0,0.0,0.0,0.0,0.0,0.0,0.0,0.0,0.0,0.0,0.0,0.0,0.0,0.0,0.0,0.0,0.0,0.0,0.0,0.0,0.0,0.0,0.0,0.0,0.0,0.0,0.0,0.0,0.0,0.0,0.0,0.0,0.0,0.0,0.0,0.0,0.0,0.0,0.0,0.0,0.0,0.0,0.0,0.0,0.0,0.0,0.0,0.0,0.0,0.0,0.0,0.0,0.0,0.0,0.0,0.0,0.0,0.0,0.0,0.0,0.0,0.0,0.0,0.0,0.0,0.0,0.0,0.0,0.0,0.0,0.0,0.0,0.0,0.0,0.0,0.0,0.0,0.0,0.0,0.0,0.0,0.0,0.0,0.0,0.0,0.0,0.0,0.0,0.0,0.0,0.0,0.0,0.0,0.0,0.0,0.0,0.0,0.0,0.0,5.8235,5.8829,5.9302,5.9742,5.9776,5.9877,6.008,6.0114,6.0114,6.0114,0.0,0.0,0.0,0.0,0.0,0.0,0.0,0.0,0.0,0.0,0.0,0.0,0.0,0.0,0.0,0.0,0.0,0.0,0.0,0.0,0.0,0.0,0.0,0.0,0.0,0.0,0.0,0.0,0.0,0.0,0.0,0.0,0.0,0.0,0.0,0.0,0.0,0.0,0.0,0.0,0.0,0.0,0.0,0.0,0.0,0.0,0.0,0.0,0.0,0.0,0.0,0.0,0.0,0.0,0.0,0.0,0.0,0.0,0.0,0.0,0.0,0.0,0.0,0.0,0.0,0.0,0.0,0.0,0.0,0.0,0.0,0.0,0.0,0.0,0.0,0.0,0.0,0.0,0.0,0.0,0.0,0.0,0.0,0.0,0.0,0.0,0.0,0.0,0.0,0.0,0.0,0.0,0.0,0.0,0.0,0.0,0.0,0.0,0.0,0.0,0.0,0.0,5.9404,5.9844,6.0216,6.0554,6.0588,6.0689,6.0994,6.1028,6.1028,6.1028,0.0,0.0,0.0,0.0,0.0,0.0,0.0,0.0,0.0,0.0,0.0,0.0,0.0,0.0,0.0,0.0,0.0,0.0,0.0,0.0,0.0,0.0,0.0,0.0,0.0,0.0,0.0,0.0,0.0,0.0,0.0,0.0,0.0,0.0,0.0,0.0,0.0,0.0,0.0,0.0,0.0,0.0,0.0,0.0,0.0,0.0,0.0,0.0,0.0,0.0,0.0,0.0,0.0,0.0,0.0,0.0,0.0,0.0,0.0,0.0,0.0,0.0,0.0,0.0,0.0,0.0,0.0,0.0,0.0,0.0,0.0,0.0,0.0,0.0,0.0,0.0,0.0,0.0,0.0,0.0,0.0,0.0,0.0,0.0,0.0,0.0,0.0,0.0,0.0,0.0,0.0,0.0,0.0,0.0,0.0,0.0,0.0,0.0,0.0,0.0,0.0,0.0,6.0216,6.0283,6.0588,6.1332,6.14,6.167,6.2347,6.24,6.24,6.24,0.0,0.0,0.0,0.0,0.0,0.0,0.0,0.0,0.0,0.0,0.0,0.0,0.0,0.0,0.0,0.0,0.0,0.0,0.0,0.0,0.0,0.0,0.0,0.0,0.0,0.0,0.0,0.0,0.0,0.0,0.0,0.0,0.0,0.0,0.0,0.0,0.0,0.0,0.0,0.0,0.0,0.0,0.0,0.0,0.0,0.0,0.0,0.0,0.0,0.0,0.0,0.0,0.0,0.0,0.0,0.0,0.0,0.0,0.0,0.0,4.5753,0.0,0.0,0.0,0.0,0.0,0.0,0.0,0.0,0.0,0.0,0.0,0.0,0.0,0.0,0.0,0.0,0.0,0.0,0.0,0.0,0.0,0.0,0.0,0.0,0.0,0.0,0.0,0.0,0.0,0.0,0.0,0.0,0.0,0.0,0.0,0.0,0.0,0.0,0.0,0.0,0.0,6.1028,6.1535,6.1994,6.2144,6.2164,6.2212,6.24,6.24,6.24,6.24,0.0,0.0,0.0,0.0,0.0,0.0,0.0,0.0,0.0,0.0,0.0,0.0,0.0,0.0,0.0,0.0,0.0,0.0,0.0,0.0,0.0,0.0,0.0,0.0,0.0,0.0,0.0,0.0,0.0,0.0,0.0,0.0,0.0,0.0,0.0,0.0,0.0,0.0,0.0,0.0,0.0,0.0,0.0,0.0,0.0,0.0,0.0,0.0,0.0,0.0,0.0,0.0,0.0,0.0,0.0,0.0,0.0,0.0,0.0,0.0,0.0,4.7021,0.0,0.0,0.0,0.0,0.0,0.0,0.0,0.0,0.0,0.0,0.0,0.0,0.0,0.0,0.0,0.0,0.0,0.0,0.0,0.0,0.0,0.0,0.0,0.0,0.0,0.0,0.0,0.0,0.0,0.0,0.0,0.0,0.0,0.0,0.0,0.0,0.0,0.0,0.0,0.0,6.1839,6.2144,6.24,6.24,6.24,6.24,6.24,6.24,6.24,6.24,6.24,0.0,0.0,0.0,0.0,0.0,0.0,0.0,0.0,0.0,0.0,0.0,0.0,0.0,0.0,0.0,0.0,0.0,0.0,0.0,0.0,0.0,0.0,0.0,0.0,0.0,0.0,0.0,0.0,0.0,0.0,0.0,0.0,0.0,0.0,0.0,0.0,0.0,0.0,0.0,0.0,0.0,0.0,0.0,0.0,0.0,0.0,0.0,0.0,0.0,0.0,0.0,0.0,0.0,5.0684,5.0727,4.9929,5.1903,5.2284,5.1318,5.0109,4.9901,5.0299,0.0,0.0,0.0,0.0,0.0,0.0,0.0,0.0,0.0,0.0,0.0,0.0,0.0,0.0,0.0,0.0,0.0,0.0,0.0,0.0,0.0,0.0,0.0,0.0,0.0,5.9877,6.0013,0.0,0.0,0.0,0.0,0.0,0.0,0.0,0.0,0.0,0.0,0.0,0.0,6.24,6.24,6.24,6.24,6.24,6.24,6.24,6.24,6.24,6.24,6.2516,6.2584,0.0,0.0,0.0,0.0,0.0,0.0,0.0,0.0,0.0,0.0,0.0,0.0,0.0,0.0,0.0,0.0,0.0,0.0,0.0,0.0,0.0,0.0,0.0,0.0,0.0,0.0,0.0,0.0,0.0,0.0,0.0,0.0,4.4975,4.5155,0.0,0.0,0.0,0.0,0.0,0.0,0.0,0.0,0.0,0.0,0.0,0.0,0.0,5.0335,5.0428,5.1474,5.1568,5.0706,5.1848,5.2296,5.2186,5.3137,5.3474,5.3396,5.4379,0.0,5.2229,5.2088,0.0,0.0,0.0,0.0,0.0,0.0,0.0,0.0,0.0,0.0,0.0,0.0,0.0,0.0,0.0,0.0,0.0,0.0,0.0,0.0,0.0,0.0,6.0148,6.0825,6.1061,6.1264,0.0,6.0825,5.9945,5.9945,0.0,0.0,0.0,0.0,0.0,0.0,0.0,0.0,6.24,6.24,6.24,6.24,6.24,6.24,6.24,6.24,6.24,6.24,6.299,6.3342,6.3342,6.3971,0.0,0.0,0.0,0.0,0.0,0.0,0.0,0.0,0.0,0.0,0.0,0.0,0.0,0.0,0.0,0.0,0.0,0.0,0.0,0.0,0.0,0.0,0.0,0.0,0.0,0.0,0.0,0.0,0.0,4.5095,4.5454,4.5822,4.5852,4.6172,0.0,0.0,0.0,0.0,0.0,0.0,0.0,0.0,0.0,5.1828,5.2269,5.2669,5.3028,5.3941,5.4325,5.422,5.5363,5.5568,5.5012,5.6579,5.6962,5.6474,5.7694,5.7687,5.6682,5.5086,5.4688,5.5072,0.0,0.0,0.0,0.0,5.513,5.6462,5.6935,5.7698,0.0,5.8969,0.0,0.0,0.0,0.0,0.0,0.0,0.0,0.0,0.0,0.0,0.0,6.1839,6.1907,6.2009,6.2333,6.1873,6.14,0.0,6.167,6.1907,6.1907,0.0,0.0,0.0,0.0,0.0,6.2956,6.3024,6.3193,6.3599,6.3632,6.3632,6.3632,6.3632,6.3632,6.3632,6.3937,6.414,6.414,6.4444,6.4444,0.0,0.0,0.0,0.0,0.0,0.0,0.0,0.0,0.0,0.0,0.0,0.0,0.0,0.0,0.0,0.0,0.0,0.0,0.0,0.0,0.0,0.0,0.0,0.0,0.0,0.0,0.0,0.0,4.5963,4.6262,4.6749,4.7207,4.7774,0.0,0.0,0.0,0.0,0.0,0.0,5.3041,5.2523,5.2743,5.4071,5.4649,5.5166,5.5663,5.6502,5.7001,5.7226,5.8391,5.8472,5.772,5.9575,5.9948,5.9266,6.028,6.0689,6.0473,5.793,5.7519,5.8378,5.7031,5.6794,5.7226,5.7226,5.8079,5.9206,5.9206,5.9868,6.0689,6.0689,0.0,6.0689,6.0689,0.0,0.0,0.0,0.0,6.1704,6.2265,6.24,6.24,6.24,6.24,6.2468,6.2618,6.2685,6.2618,0.0,6.24,6.2448,6.2651,0.0,0.0,0.0,0.0,6.3159,6.3714,6.3781,6.3984,6.4546,6.4613,6.4613,6.4613,6.4613,6.4613,6.4613,6.4783,6.4884,6.4884,6.5053,6.5087,6.4884,0.0,0.0,0.0,0.0,0.0,0.0,0.0,0.0,0.0,0.0,0.0,0.0,0.0,0.0,0.0,0.0,0.0,0.0,0.0,0.0,0.0,0.0,0.0,0.0,0.0,0.0,0.0,0.0,0.0,4.8199,4.9677,0.0,0.0,0.0,0.0,5.0888,5.1508,5.2646,5.4512,5.5206,5.6362,5.816,5.8247,5.828,5.8312,5.9365,5.9399,5.8432,5.951,5.9986,5.9962,6.0835,6.1192,6.1187,6.1955,6.2299,6.2144,6.056,5.934,5.8472,5.8399,5.8378,5.8411,5.8411,5.9571,6.1153,6.1153,6.1665,6.2299,6.2299,6.2299,6.2299,6.2299,6.2299,0.0,0.0,6.2347,6.2367,6.24,6.24,6.24,6.24,6.24,6.2584,6.3274,6.3443,6.326,0.0,6.24,6.2618,6.3308,0.0,6.368,6.4377,6.4478,6.4512,6.4546,6.4546,6.4546,6.4613,6.4613,6.4613,6.4613,6.4613,6.4613,6.4613,6.5256,6.5649,6.5649,6.6339,6.6373,6.5683,6.5649,0.0,0.0,0.0,0.0,0.0,0.0,0.0,0.0,0.0,0.0,0.0,0.0,0.0,0.0,0.0,0.0,0.0,0.0,0.0,0.0,0.0,0.0,0.0,0.0,0.0,0.0,0.0,0.0,4.9029,5.1167,0.0,5.1761,5.3116,5.4538,5.5695,5.5346,5.5983,5.8057,5.7783,5.8168,5.9491,6.0033,6.0301,6.0301,6.1157,6.1413,6.1025,6.1413,6.1569,6.1569,6.1873,6.2009,6.2009,6.2299,6.24,6.2367,6.1825,6.134,6.1025,6.1025,6.1025,6.1025,6.1025,6.1411,6.2009,6.2009,6.2178,6.24,6.24,6.24,6.24,6.24,6.24,6.24,6.24,6.2753,6.3125,6.3125,6.3463,6.3802,6.3802,6.3802,6.3903,6.414,6.4208,6.414,6.3869,6.3802,6.3903,6.4174,6.4208,6.4309,6.4546,6.4613,6.4783,6.5256,6.529,6.5493,6.5967,6.644,6.6711,6.6711,6.7184,6.7489,6.7489,6.7726,6.7895,6.7895,6.8132,6.8166,6.7895,6.7895,6.776,0.0,0.0,0.0,0.0,0.0,0.0,0.0,0.0,0.0,0.0,0.0,0.0,0.0,0.0,0.0,0.0,0.0,0.0,0.0,0.0,0.0,0.0,0.0,0.0,0.0,0.0,5.1857,5.0991,5.3524,5.5072,5.435,5.5772,5.7199,5.8399,5.8032,5.8569,6.0391,6.0069,6.0163,6.0839,6.1637,6.2042,6.2042,6.2753,6.3125,6.3125,6.3125,6.3125,6.3125,6.3125,6.3125,6.3125,6.3125,6.3125,6.3125,6.3125,6.3125,6.3091,6.2603,6.24,6.24,6.24,6.24,6.2434,6.2685,6.2753,6.2821,6.3057,6.3125,6.3125,6.3125,6.3125,6.3125,6.3125,6.3497,6.3849,6.3849,6.441,6.4952,6.4952,6.5155,6.5425,6.5662,6.5696,6.5797,6.6068,6.529,6.4749,6.5256,6.5358,6.5527,6.6034,6.6136,6.6305,6.6779,6.6867,6.7015,6.7501,6.803,6.8301,6.8301,6.8808,6.9113,6.9113,6.9113,6.9113,6.9113,6.9113,6.9113,6.9113,6.9113,6.9113,6.9113,0.0,0.0,0.0,0.0,0.0,0.0,0.0,0.0,0.0,0.0,0.0,0.0,0.0,0.0,0.0,0.0,0.0,0.0,0.0,0.0,0.0,0.0,0.0,5.0962,5.2943,5.4645,5.4144,5.6753,5.8158,5.6981,5.7952,5.8632,5.8632,5.9292,6.017,6.1308,6.2042,6.2415,6.2468,6.3159,6.3511,6.3511,6.4241,6.4613,6.4613,6.4613,6.4647,6.4647,6.4647,6.4681,6.4681,6.4681,6.4681,6.4681,6.4681,6.4681,6.4512,6.3024,6.2468,6.2468,6.2468,6.2468,6.255,6.3294,6.3511,6.3646,6.4377,6.4613,6.4613,6.4613,6.4647,6.4647,6.4647,6.4681,6.4715,6.4715,6.5256,6.5818,6.5818,6.6339,6.7062,6.7793,6.7929,6.8166,6.8977,6.6779,6.5222,6.6622,6.6859,6.7366,6.8876,6.9113,0.0,6.9113,6.9113,6.9147,6.9147,6.918,6.9214,6.9214,6.9214,6.9214,6.9214,6.9214,6.918,6.918,6.918,6.918,6.918,6.918,6.918,6.918,0.0,0.0,0.0,0.0,0.0,0.0,0.0,0.0,0.0,0.0,0.0,0.0,0.0,0.0,0.0,0.0,0.0,0.0,0.0,0.0,0.0,0.0,5.7011,5.4088,5.5868,5.7096,5.6133,5.8712,6.0091,5.8954,6.0344,6.1312,6.1312,6.1514,6.2003,6.2868,6.3071,6.3429,6.3971,6.4208,6.4309,6.4309,6.4512,6.4613,6.4613,6.5121,6.5392,6.5425,6.5967,6.6203,6.6203,6.6203,6.6203,6.6203,6.6203,6.6203,6.6047,6.458,6.4005,6.4005,6.4005,6.4005,6.4005,6.4241,6.4309,6.4343,6.4546,6.4613,6.4681,6.5222,6.5392,6.5493,6.6034,6.6576,6.6981,6.6981,6.759,6.8166,6.8166,6.8335,6.8538,6.8741,6.8774,6.8977,6.9755,6.9214,6.8605,6.8504,6.847,6.8605,6.9045,6.9113,0.0,6.9113,6.9553,6.9891,6.9891,7.0838,7.1481,7.1481,7.1988,7.2056,7.1515,7.1481,7.1244,7.0737,7.0703,7.0703,7.0703,7.0703,7.0703,0.0,0.0,0.0,0.0,0.0,0.0,0.0,0.0,0.0,0.0,0.0,0.0,0.0,0.0,0.0,0.0,0.0,0.0,0.0,0.0,0.0,0.0,5.8416,5.9478,5.7608,5.8686,5.933,5.8483,6.0397,6.1523,6.0825,6.2044,6.2854,6.2854,6.3159,6.3497,6.3917,6.3971,6.4309,6.5019,6.5358,6.5662,6.5967,6.6305,6.6474,6.6474,6.6914,6.7117,6.7151,6.7557,6.776,0.0,6.776,6.776,6.776,6.776,6.776,0.0,0.0,0.0,0.0,0.0,6.5527,6.5561,6.5865,6.5967,6.6034,6.6373,6.6474,6.6576,6.6981,6.7117,6.7218,6.7658,6.8064,6.847,6.8774,6.9451,7.0094,7.0398,7.0703,7.0939,7.0939,7.0939,7.1075,7.1503,7.1605,0.0,7.1007,7.0703,7.0601,7.0906,7.0939,7.0939,7.0939,7.1334,7.1605,7.1605,7.2326,7.2868,7.2868,7.324,0.0,0.0,0.0,7.3535,7.357,7.3557,0.0,0.0,0.0,7.3557,7.3557,0.0,0.0,0.0,7.1584,7.1398,0.0,0.0,0.0,0.0,0.0,0.0,0.0,0.0,0.0,0.0,0.0,0.0,0.0,0.0,0.0,0.0,6.0543,6.2064,6.1086,6.1281,6.1385,6.0999,6.187,6.255,6.2637,6.326,6.3612,6.3612,6.4309,6.4749,6.485,0.0,0.0,0.0,0.0,6.7387,6.803,6.8741,6.9113,6.9113,6.9282,6.935,6.935,6.9519,6.9586,6.9586,6.9586,6.9586,6.9586,6.9586,6.9586,6.9417,6.7726,6.7062,6.7062,6.7062,6.7062,6.7129,6.7827,0.0,0.0,6.8876,6.9113,6.9147,6.9316,6.935,6.9383,6.9553,6.9586,6.9755,7.0398,7.1041,7.1695,7.236,7.3003,7.35,7.35,7.35,7.3557,7.3786,7.3809,7.3889,7.4094,7.3243,7.2732,7.3398,7.35,7.3546,7.365,7.3741,7.3855,7.3958,0.0,0.0,7.4117,7.4117,7.4487,7.5358,7.5317,7.5726,7.667,7.6708,7.6708,7.6708,7.6708,7.6708,7.6708,7.6779,7.6815,7.6756,7.4796,7.4358,0.0,0.0,0.0,0.0,0.0,0.0,0.0,0.0,0.0,0.0,0.0,0.0,0.0,0.0,0.0,6.006,6.136,6.2525,6.2912,6.3019,6.3045,6.2959,6.3154,6.3531,6.4106,6.4309,6.4377,6.4377,6.5053,6.573,6.6318,6.6948,6.7624,6.8402,6.8571,6.8741,6.8876,6.9011,6.9113,6.9113,0.0,0.0,7.0917,7.209,7.2631,7.2631,7.2631,7.2631,7.2631,7.2631,7.2631,7.236,6.9688,6.8673,6.8673,6.8673,6.8673,6.8673,6.8808,6.8876,6.8876,6.9045,6.9113,6.9316,7.0511,7.085,0.0,7.2293,7.2631,7.2688,7.2823,7.2992,7.3105,7.324,7.3398,7.35,7.35,7.35,7.3934,7.5379,7.5681,7.6158,7.7663,7.5355,7.3364,7.35,7.35,7.381,7.4675,7.5301,7.5993,7.6883,7.7547,7.7934,7.7934,7.7934,7.7735,7.7324,7.6729,7.6494,7.6708,7.6708,7.6708,7.6708,7.6708,7.6708,7.6708,7.7307,7.7571,7.7571,7.6539,7.6197,0.0,0.0,0.0,0.0,0.0,0.0,0.0,0.0,0.0,0.0,0.0,5.8992,0.0,0.0,6.0907,6.1899,6.2562,6.3226,6.3971,6.4072,6.4072,6.4072,6.4072,6.4343,6.5087,6.5493,6.5865,6.6237,6.6948,6.7557,6.7929,6.8301,6.9011,7.0161,7.0195,7.0567,7.1278,7.1278,7.1278,7.1312,7.2056,7.2394,7.2428,7.3138,7.35,7.35,7.35,7.35,7.35,7.35,7.35,7.3364,7.1887,7.1278,7.1278,7.1278,7.1278,7.1278,7.1278,7.1278,7.1278,7.1278,7.1278,7.1447,7.2191,7.2394,7.2563,7.3274,7.35,7.3601,7.395,7.4052,7.4153,7.4492,7.5013,7.5378,7.5378,7.5834,7.6512,7.7412,7.7586,7.7913,7.8832,7.7468,7.6271,7.6271,7.6271,7.6429,7.6963,7.7362,7.7814,7.8341,7.8755,7.9003,7.9003,7.9478,7.9644,7.9215,7.9359,7.9431,7.9431,7.9431,7.9431,7.9431,7.9431,7.9431,7.9431,7.9811,8.0009,8.0009,7.963,7.9161,0.0,0.0,0.0,0.0,0.0,0.0,0.0,5.7527,5.8062,5.9258,5.95,5.9784,6.0787,6.1086,6.1675,6.3235,6.3612,6.4018,6.4918,6.5019,6.5155,6.5459,6.5222,6.5392,6.6271,6.6914,6.7468,6.8098,6.8876,6.9383,6.9519,6.9654,7.0364,7.1684,7.1751,7.2293,7.35,7.35,7.35,7.35,7.3669,7.3713,7.3713,7.3849,7.394,7.394,7.394,7.394,7.394,7.394,7.394,7.394,7.394,7.394,7.3906,7.3601,7.35,7.35,7.35,7.35,7.35,7.35,7.35,7.3534,7.3646,7.3713,7.3713,7.3906,7.394,7.4052,7.4661,7.496,7.5283,7.5861,7.6837,7.7628,7.7628,7.837,7.9063,7.9262,7.9302,7.938,7.9575,7.9757,7.9656,7.9099,7.9003,7.9063,7.9282,7.9302,7.938,7.9595,7.9614,7.9685,7.9828,8.0782,8.1382,8.1382,8.2189,8.2663,8.2663,8.2663,8.2663,8.2663,8.2663,8.2663,8.2663,8.2663,8.2663,8.2663,8.2663,8.2024,5.4102,5.4521,5.497,5.5059,5.5895,5.7041,0.0,0.0,6.0544,6.1756,6.201,6.205,6.215,6.2743,6.3235,6.3457,6.4072,6.4952,6.6352,6.6555,6.7083,6.8436,6.7387,6.7096,6.8571,6.8808,6.8876,6.8977,6.9654,7.0364,7.1019,7.1684,7.2394,7.3229,7.324,7.3331,7.35,7.35,7.35,7.3534,7.4153,7.4492,7.4492,7.5168,7.5439,7.5439,7.5439,7.5439,7.5439,7.5439,7.5439,7.5439,7.5439,7.5439,7.5303,7.3984,7.35,7.35,7.35,7.35,7.35,7.35,7.35,7.3612,7.4289,7.4492,7.4627,7.527,7.5439,7.5473,7.5574,7.6291,7.7012,7.7115,7.7992,7.8822,7.8822,7.8903,7.9282,8.0255,8.0422,8.0732,8.1681,8.2437,8.203,7.9388,7.9003,7.9341,8.0311,8.0422,8.0786,8.1748,8.1832,8.2108,8.2839,8.3673,8.4164,8.4164,8.4265,8.4315,8.4315,8.4315,8.4315,8.4315,8.4315,8.4315,8.4315,8.4315,8.4315,8.4315,8.4315,8.3494,5.5664,5.6042,5.6256,5.6256,5.6638,5.7316,5.8519,5.9719,6.0933,6.213,6.2753,6.3057,6.3057,6.3632,6.4424,0.0,6.5675,6.6406,6.7929,6.8132,6.8538,6.962,6.9553,6.9519,6.9722,7.0128,7.0567,7.1007,7.1684,7.2282,7.2563,7.2868,7.3375,7.4119,7.4153,7.4356,7.4762,7.4762,7.4762,7.4762,7.51,7.5236,7.5236,7.5574,7.5709,7.5709,7.5709,7.5709,7.5709,7.5709,7.5709,7.5709,7.5709,7.5709,7.5642,7.4999,7.4762,7.4762,7.4762,7.4762,7.4762,7.4762,7.4762,7.483,7.5134,7.5236,7.5303,7.5608,7.5709,7.5842,7.6462,7.6937,7.7489,7.814,7.9143,8.0044,8.0529,8.1125,8.1816,8.2768,8.2947,8.3068,8.3514,8.3875,8.3695,8.245,8.2269,8.2414,8.2858,8.2947,8.3085,8.3548,8.3581,8.3728,8.4058,8.4425,8.4609,8.4609,8.4609,8.4609,8.4609,8.4609,8.4609,8.4609,8.4609,8.4609,8.4609,8.4609,8.4609,8.4609,8.4609,8.4242,5.7276,5.7504,5.7504,5.7504,5.7761,5.8214,5.9103,6.041,6.1637,6.2527,6.3294,6.3781,6.3781,6.458,6.5561,6.6622,6.7163,6.7895,6.9214,6.9586,6.9992,7.0703,7.1447,7.1718,7.1142,7.1582,7.2124,7.2665,7.3206,7.3601,7.3781,7.3781,7.4153,7.4897,7.4897,7.5168,7.5676,7.5709,7.5709,7.5709,7.5709,7.5709,7.5709,7.5709,7.5709,7.5709,7.5709,7.5709,7.5709,7.5709,7.5709,7.5709,7.5709,7.5709,7.5709,7.5709,7.5709,7.5709,7.5709,7.5709,7.5709,7.5709,7.5709,7.5709,7.5709,7.5913,7.616,7.616,7.6381,7.6838,7.7841,7.8328,7.8805,7.983,8.0904,8.1852,8.245,8.3197,8.3895,8.4499,8.4609,8.4609,8.4609,8.4792,8.4939,8.4939,8.5123,8.5123,8.4646,8.4609,8.4609,8.4609,8.4792,8.4939,8.4939,8.5123,8.527,8.527,8.527,8.527,8.527,8.527,8.527,8.527,8.527,8.527,8.527,8.527,8.527,8.527,8.527,8.527,5.8745,5.8745,5.8745,5.8745,5.961,6.0501,6.0522,6.2027,6.3403,6.3477,6.4072,6.458,6.458,6.5764,6.6757,6.6791,6.8064,6.9316,7.0082,7.077,7.1515,7.2259,7.2969,7.3432,0.0,7.3432,7.3466,7.3466,7.35,7.3815,7.4525,7.4593,7.4897,7.5642,7.5676,7.5676,7.5709,7.5709,7.5709,7.5709,7.5709,7.5709,7.5709,7.5709,7.5709,7.5709,7.5709,7.5709,7.5709,7.5709,7.5709,7.5709,7.5709,7.5709,7.5709,7.5709,7.5709,7.5709,7.5709,7.5709,7.5709,7.5709,7.5709,7.5709,7.5709,7.645,7.727,7.727,7.8055,7.9079,7.9919,8.0873,8.1885,8.268,8.3698,8.4502,8.4485,8.4555,8.4572,8.4609,8.4609,8.4609,8.4609,8.5233,8.5747,8.5747,8.6444,8.6354,8.4792,8.4609,8.4609,8.4609,8.5306,8.5747,8.5747,8.6481,8.6904,8.6904,8.6904,8.6904,8.6904,8.6904,8.6904,8.6904,8.6904,8.6904,8.6904,8.6904,8.6904,8.6904,8.6904,8.6904,6.0225,5.9978,5.9978,5.9978,6.0693,6.1353,6.1353,6.2824,6.4241,6.4241,6.4816,6.5459,6.5967,6.688,6.7861,6.8876,6.9485,7.0263,7.1481,7.1887,7.2293,7.3037,7.3781,0.0,0.0,0.0,0.0,7.4221,7.4661,7.5067,7.5337,7.5337,7.5439,7.5676,7.5709,7.5709,7.5709,7.5709,7.5709,7.5709,7.5709,7.5709,7.5709,7.5709,7.5709,7.5709,7.5709,7.5709,7.5709,7.5709,7.5709,7.5743,7.6284,7.6487,7.6555,7.7029,7.7256,7.7063,7.6048,7.5709,7.5818,7.6531,7.6747,7.7008,7.8298,7.8932,7.9332,7.9866,8.0279,8.082,8.1799,8.2329,8.2848,8.3841,8.4352,8.4756,8.527,8.538,8.5563,8.6077,8.617,8.617,8.617,8.6407,8.6591,8.6591,8.6848,8.6794,8.6261,8.617,8.617,8.617,8.6444,8.6591,8.6591,8.6831,8.6978,8.6978,8.6978,8.6978,8.6978,8.6978,8.7252,8.7802,8.7802,8.8059,8.8592,8.8592,8.8592,8.8592,8.8592,8.8592,6.1439,6.1455,6.1654,6.1654,6.2208,6.274,6.274,6.3885,6.4986,6.4986,6.5797,6.6609,6.7117,6.803,6.9045,7.0048,7.0635,7.1312,7.2259,7.2868,7.3375,7.3849,7.4525,7.4999,0.0,0.0,0.0,7.4999,7.5439,7.5709,7.5709,7.5709,7.5709,7.5709,7.5709,7.5709,7.5709,7.5709,7.5709,7.5709,7.598,7.6115,7.6149,7.6386,7.6521,7.6521,7.6521,7.6521,7.6521,7.6521,7.6521,7.6603,7.7557,7.7893,7.7998,7.8878,7.9212,7.9005,7.7603,7.7131,7.7307,7.8419,7.8753,7.9008,8.0235,8.0901,8.1307,8.1846,8.2245,8.2778,8.3756,8.401,8.4227,8.5243,8.5453,8.56,8.6114,8.6224,8.6371,8.6904,8.6978,8.6978,8.6978,8.7234,8.7545,8.7822,8.7858,8.7748,8.7472,8.7435,8.7528,8.7822,8.7858,8.7858,8.7858,8.7858,8.7858,8.7858,8.7858,8.7858,8.7858,8.7858,8.8078,8.861,8.8647,8.8886,8.94,8.94,8.94,8.94,8.94,8.94,6.2468,6.2956,6.3511,6.3545,6.4106,6.4647,6.4647,6.5222,6.5784,6.5818,6.6914,6.7929,6.7996,6.9214,7.0217,7.0251,7.1447,7.2428,7.2462,7.368,7.4603,0.0,0.0,0.0,0.0,0.0,0.0,7.5709,0.0,7.5709,7.5709,7.5709,7.5709,7.5709,7.5709,7.5709,7.5743,7.5811,7.5811,7.5811,7.6589,7.6961,7.6961,7.7671,7.8,7.8,7.8,7.8,7.8,7.8049,7.8098,7.8186,7.9362,7.9828,7.9962,8.1113,8.1509,8.1364,8.0329,7.9907,7.9959,8.1133,8.1469,8.1505,8.1602,8.2356,8.3135,8.3171,8.3934,8.4903,8.5637,8.5857,8.604,8.6811,8.6978,8.6978,8.6978,8.6978,8.7014,8.7051,8.7088,8.7124,8.7124,8.7766,8.8536,8.929,8.94,8.9106,8.8353,8.828,8.8573,8.9326,8.94,8.94,8.94,8.94,8.94,8.94,8.94,8.94,8.94,8.94,8.9436,8.9473,8.9473,8.9473,8.951,8.951,8.951,8.951,8.951,8.9546,6.3091,6.3342,6.3612,6.4174,6.4884,6.5425,6.5425,6.6,6.6677,6.7218,6.7624,6.8233,6.9383,6.9925,7.0364,7.0939,7.1819,7.2597,7.3161,7.4018,0.0,7.5337,0.0,7.5709,7.5709,7.5709,0.0,0.0,7.5709,7.5709,7.5709,7.5709,7.5709,7.5709,7.5709,7.598,7.6589,7.713,7.7401,7.7425,7.7604,7.7705,7.7705,7.7933,7.8,7.8,7.8,7.8,7.8074,7.8931,7.9258,7.9408,8.1126,8.1811,8.1902,8.2743,8.304,8.3124,8.3682,8.2607,8.1153,8.2245,8.2574,8.2871,8.4246,8.4878,8.5199,8.5803,8.6198,8.6427,8.6628,8.6701,8.6738,8.6941,8.6978,8.6978,8.6978,8.6978,8.7161,8.7766,8.8372,8.8776,8.8776,8.8959,8.9143,8.9363,8.94,8.9326,8.9106,8.9069,8.9179,8.9363,8.94,8.94,8.94,8.94,8.94,8.94,8.94,8.94,8.94,8.94,8.9693,9.028,9.028,9.0592,9.1179,9.1179,9.1179,9.1179,9.1179,9.1546,6.3376,6.3951,6.4546,6.4986,6.5628,6.617,6.617,6.6745,6.7421,6.7793,6.8436,6.9147,7.0048,7.0466,7.0906,7.1684,7.2394,7.3138,7.3883,7.4627,7.5236,0.0,7.5709,0.0,7.5709,7.5709,7.5709,0.0,7.5709,7.5709,7.5709,7.5709,7.5845,7.6217,7.6217,7.6589,7.7367,7.7773,7.8,7.8,7.8314,7.8483,7.8483,7.8822,7.8957,7.8957,0.0,7.9235,7.9772,8.0409,8.0968,8.1568,8.3105,8.3712,8.3844,8.4748,8.5084,8.5162,8.5825,8.5095,8.396,8.4573,8.4737,8.4954,8.5996,8.6334,8.6407,8.6867,8.6978,8.6978,8.6978,8.6978,8.6978,8.6978,8.6978,8.7088,8.7472,8.7545,8.7766,8.8573,8.9069,8.951,8.9877,8.9913,9.006,9.0408,9.0427,9.0427,9.0427,9.0134,9.006,9.0427,9.0427,9.0427,9.0427,9.0427,9.0427,9.0427,9.0427,9.0427,9.0427,9.0427,9.0665,9.1106,9.151,9.1913,9.2354,9.2721,9.2905,9.2905,9.2905,9.3161,6.3612,6.4647,6.5717,6.5797,6.6339,6.6791,6.6791,6.7387,6.7929,6.803,6.918,7.0251,7.0331,7.0872,7.1526,7.2293,7.3003,7.3747,7.4492,7.5236,7.5709,7.5709,7.5709,7.5709,7.5709,7.5709,7.5709,7.5709,7.5811,7.5811,7.5709,7.5811,7.6217,7.7029,7.713,7.7502,7.8145,7.8247,7.8305,7.828,7.8957,7.9261,7.9261,8.0046,8.0451,8.0417,8.0591,0.0,8.2152,8.2278,8.295,8.3958,8.5084,8.5525,8.5675,8.6661,8.6978,8.6978,8.6978,8.6978,8.6978,8.6978,8.6978,8.6978,8.6978,8.6978,8.6978,8.6978,8.6978,8.6978,8.6978,8.6978,8.7014,8.7124,8.7178,8.7399,8.8206,8.8426,8.872,8.9436,8.9657,8.995,9.0629,9.0776,9.0996,9.1693,9.1803,9.184,9.195,9.1253,9.1069,9.1877,9.195,9.2024,9.2134,9.2134,9.2134,9.2134,9.2134,9.2134,9.2134,9.2134,9.2134,9.2134,9.2868,9.3272,9.3272,9.3969,9.4299,9.4299,9.4299,9.4336,6.4241,6.5019,6.5852,6.6474,6.669,6.6791,6.6791,6.7387,6.8098,6.8741,6.9586,7.0398,7.1007,7.1188,7.1526,7.2293,7.3003,7.3747,7.4492,7.5236,7.5709,7.5709,7.5709,7.5709,7.5709,7.5709,0.0,0.0,7.6318,7.6386,7.5743,7.6318,7.7029,7.7797,7.8416,7.8788,7.8923,7.9498,7.9803,7.9803,7.9938,8.0006,8.0031,8.1105,8.1605,8.1652,8.2594,0.0,8.3385,8.433,8.4812,8.5123,8.6265,8.6714,8.6731,8.6925,8.6978,8.6978,8.6978,8.6978,8.6978,8.6978,8.6978,8.6978,8.6978,8.6978,8.6978,8.6978,8.6978,8.6978,8.6978,8.6978,8.7161,8.7839,8.7986,8.8206,8.9033,8.9693,9.0225,9.0354,9.0922,9.1436,9.1583,9.1583,9.1657,9.1767,9.1803,9.206,9.2794,9.2134,9.1913,9.2794,9.2868,9.3125,9.3822,9.3859,9.3859,9.3859,9.3859,9.3859,9.3859,9.3859,9.3859,9.3859,9.4006,9.4079,9.4079,9.4226,9.4299,9.4299,9.4299,9.4666,6.4512,6.5425,6.6373,6.669,6.6791,6.6893,6.7286,6.7963,6.8741,6.9519,7.0263,7.0872,7.1222,7.1289,7.1526,7.2293,7.3003,7.3747,7.4492,7.5236,7.5709,7.5709,7.5709,7.5709,7.5709,7.5709,7.5879,7.6284,7.669,7.6724,7.6352,7.7435,7.8213,7.8551,7.9295,7.9667,7.9667,8.0006,8.0209,8.0234,8.0829,8.1077,8.1125,8.2267,8.2795,8.2817,8.335,0.0,8.4532,8.5084,8.5638,8.6247,8.6784,8.6978,8.6978,8.6978,8.6978,8.6978,8.6978,8.6978,8.6978,8.6978,8.6978,8.6978,8.6978,8.6978,8.6978,8.6978,8.7325,8.7619,8.7619,8.7932,8.8335,8.8739,8.916,8.9564,8.995,9.0665,9.1216,9.1216,9.1546,9.1803,9.1803,9.1803,9.1803,9.1803,9.217,9.2648,9.3051,9.3088,9.3272,9.3675,9.3712,9.3859,9.4263,9.4299,9.4299,9.4299,9.4299,9.4299,9.4299,9.4299,9.4299,9.4299,9.4703,9.4923,9.4923,9.5327,9.5547,9.5547,9.5547,9.5768,6.4613,6.5696,6.6791,6.6791,6.6791,6.6994,6.7726,6.8504,6.9316,7.0026,7.0804,7.1289,7.1289,7.1289,7.1526,7.2293,7.3003,7.3747,7.4492,7.5236,7.5709,7.5709,7.5709,7.5709,7.5709,7.5709,0.0,7.6826,7.7198,7.7367,7.7367,7.8483,7.9169,7.9329,7.9904,8.0209,8.0209,8.0442,8.0567,8.0591,8.1723,8.2232,8.2278,8.3436,8.3943,8.4,8.4227,0.0,0.0,8.5638,8.6174,8.6978,8.6978,8.6978,8.6978,8.6978,8.6978,8.6978,8.6978,8.6978,8.7014,8.7198,8.7124,8.7014,8.7198,8.7234,8.7271,8.7455,8.7986,8.8463,8.8463,8.8923,8.9436,8.962,9.028,9.0849,9.0849,9.1363,9.1803,9.1803,9.1803,9.1803,9.1803,9.1803,9.1803,9.1803,9.2537,9.3161,9.3345,9.4042,9.463,9.4813,9.4666,9.463,9.4813,9.4813,9.4813,9.4813,9.4813,9.4813,9.4813,9.4813,9.4813,9.4813,9.5437,9.5749,9.5749,9.6392,9.6685,9.6685,9.6685,9.6685,6.4613,6.5696,6.6791,6.6791,6.6791,6.6994,6.7726,6.8504,6.9316,7.0026,7.0804,7.1289,7.1289,7.1289,7.1526,7.2293,7.3003,7.3747,7.4492,7.5236,7.5709,7.5709,7.5709,7.5709,7.5709,7.5709,7.6014,7.6826,7.8145,7.8923,7.8923,7.9034,7.9431,8.0073,8.0175,8.0209,8.0209,8.1246,8.1746,8.177,8.2906,8.3415,8.3493,8.4613,8.5143,8.5201,8.6247,0.0,0.0,8.6856,8.6908,8.6978,8.6978,8.6978,8.6978,8.6978,8.6978,8.6978,8.6978,8.6978,8.7124,8.7839,8.7619,8.7124,8.7876,8.8096,8.8243,8.8959,8.9216,8.929,8.929,8.9326,8.9583,9.0317,9.1106,9.1693,9.1693,9.173,9.1803,9.1803,9.1803,9.1803,9.1803,9.1803,9.1803,9.1803,9.2537,9.3345,9.4079,9.4887,9.5694,9.6392,9.5841,9.5694,9.6428,9.6465,9.6465,9.6465,9.6465,9.6465,9.6465,9.6465,9.6465,9.6465,9.6539,9.6575,9.6575,9.6649,9.6685,9.6685,9.6685,9.6685,6.4613,6.5696,6.6791,6.6791,6.6791,6.7096,6.8335,6.8876,6.9451,7.0635,7.1109,7.1289,7.1289,7.1289,7.1391,7.1684,7.2732,7.3578,7.3883,7.4965,7.5709,7.5709,7.5709,7.5709,7.5709,0.0,7.6927,7.8145,7.9194,7.9769,7.9769,7.9769,7.9904,8.0175,8.0868,8.1246,8.1246,8.2323,8.2928,8.295,8.4103,8.4613,8.4653,8.5806,8.632,8.6338,8.6784,0.0,0.0,8.6978,8.6978,8.6978,8.6978,8.6978,8.6978,8.6978,8.6978,8.6978,8.6978,8.7308,8.7766,8.8096,8.8316,8.8482,8.8812,8.8923,8.8996,8.9326,8.9767,9.0097,9.0097,9.0464,9.0922,9.1253,9.1583,9.1803,9.1803,9.1803,9.1803,9.1803,9.1803,9.1803,9.1803,9.1803,9.1987,9.2501,9.3272,9.4116,9.4923,9.5731,9.6355,9.6685,9.6428,9.6355,9.6685,9.6685,9.6685,9.6685,9.6685,9.6685,9.6685,9.6685,9.6685,9.6685,9.6685,9.6685,9.6685,9.6685,9.6685,9.6685,9.6685,9.6685,6.4613,6.5696,6.6791,6.6791,6.6791,6.7197,6.8741,6.9113,6.9519,7.0985,7.1289,7.1289,7.1289,7.1289,7.1289,7.1289,7.2529,7.35,7.35,7.4762,7.5709,7.5709,7.5709,7.5709,7.5709,7.6623,7.7739,7.9025,7.9769,8.0209,8.0209,8.0517,8.0706,8.0706,8.1498,8.206,8.2391,8.3522,8.4124,8.4124,8.524,8.5806,8.5825,8.6607,8.6978,8.6978,8.6978,0.0,0.0,8.6978,8.6978,8.6978,8.6978,8.6978,8.6978,8.6978,8.6978,8.7014,8.7288,8.7729,8.828,8.8757,8.929,8.9803,9.0024,8.995,8.9803,9.0024,9.0519,9.0959,9.0959,9.1363,9.1803,9.1803,9.1803,9.1803,9.1803,9.1803,9.1803,9.1803,9.1803,9.1803,9.1803,9.1803,9.2097,9.2978,9.3786,9.4593,9.5382,9.6208,9.6685,9.6685,9.6685,9.6685,9.6685,9.6685,9.6685,9.6685,9.6685,9.6685,9.6685,9.6685,9.6685,9.6685,9.6685,9.6685,9.6685,9.6685,9.6685,9.6685,9.6685,9.6685,6.4613,6.5696,6.6791,6.6791,6.6791,6.7197,6.8741,6.9113,6.9519,7.0985,7.1289,7.1289,7.1289,7.1289,7.1289,7.1289,7.2529,7.35,7.35,7.4762,7.5709,7.5709,7.5709,7.5709,7.5709,7.7063,7.828,7.9058,7.9769,0.0,8.0209,8.1259,8.1875,8.1875,8.1875,8.2436,8.3578,8.4713,8.5278,8.5278,8.6446,8.696,8.696,8.6978,8.6978,0.0,0.0,0.0,0.0,8.6978,8.6978,8.6978,8.6978,8.6978,8.6978,8.6978,8.6978,8.7088,8.7912,8.8206,8.8463,9.0078,9.0592,9.0739,9.1546,9.1216,9.0739,9.1546,9.1767,9.1803,9.1803,9.1803,9.1803,9.1803,9.1803,9.1803,9.1803,9.1803,9.1803,9.1803,9.1803,9.1803,9.1803,9.1803,9.2097,9.2978,9.3786,9.4593,9.5382,9.6208,9.6685,9.6685,9.6685,9.6685,9.6685,9.6685,9.6685,9.6685,9.6685,9.6685,9.6685,9.6685,9.6685,9.6685,9.6685,9.6685,9.6685,9.6685,9.6685,9.6685,9.6685,9.6685,6.4613,6.5696,6.6791,6.6791,6.6791,6.7197,6.8741,6.9113,6.9519,7.0985,7.1289,7.1289,7.1289,7.1289,7.1289,7.1289,7.2529,7.35,7.35,7.4762,7.5709,7.5709,7.5709,7.6115,7.7164,7.7705,7.8517,7.9769,8.0073,8.0209,8.0209,8.1259,8.1898,8.1898,8.3415,8.4411,8.4753,8.588,8.6464,8.6482,8.6838,8.6978,8.6978,8.6978,8.6978,0.0,0.0,0.0,0.0,8.6978,8.6978,8.6978,8.6978,8.6978,8.6978,8.6978,8.6978,8.7014,8.7271,8.8078,8.9106,8.962,9.0519,9.1473,9.173,9.162,9.1473,9.173,9.1803,9.1803,9.1803,9.1803,9.1803,9.1803,9.1803,9.1803,9.1803,9.1803,9.1803,9.1803,9.1803,9.1803,9.1803,9.1803,9.2097,9.2978,9.3786,9.4593,9.5382,9.6208,9.6685,9.6685,9.6685,9.6685,9.6685,9.6685,9.6685,9.6685,9.6685,9.6685,9.6685,9.6685,9.6685,9.6685,9.6685,9.6685,9.6685,9.6685,9.6685,9.6685,9.6685,9.6685,6.4512,6.5696,6.6791,6.6791,6.6791,6.7096,6.8368,6.8876,6.9451,7.0635,7.1109,7.1289,7.1289,7.1289,7.1289,7.1289,7.2529,7.35,7.35,7.4762,7.5709,7.5709,7.5709,7.6318,7.7841,7.8404,7.9238,8.0717,8.1246,8.1474,8.1474,8.2571,8.3177,8.3177,8.4573,8.5506,8.5954,8.6661,8.6978,8.6978,8.6978,8.6978,8.6978,8.6978,8.6978,0.0,0.0,0.0,0.0,8.6978,8.6978,8.6978,8.6978,8.6978,8.6978,8.6978,8.6978,8.7014,8.7344,8.8299,8.9436,8.9767,9.0739,9.1803,9.1803,9.1803,9.1803,9.1803,9.1803,9.1803,9.1803,9.1803,9.1803,9.1803,9.1803,9.1803,9.1803,9.1803,9.1803,9.1803,9.1803,9.1803,9.1803,9.1803,9.2097,9.2978,9.3786,9.4593,9.5382,9.6208,9.6685,9.6685,9.6685,9.6685,9.6685,9.6685,9.6685,9.6685,9.6685,9.6685,9.6685,9.6685,9.6685,9.6685,9.6685,9.6685,9.6685,9.6685,9.6685,9.6685,9.6685,9.6685,0.0,6.5662,6.6724,6.6791,6.6791,6.6994,6.7726,6.8504,0.0,7.0026,7.0804,7.1289,7.1289,7.1289,7.1289,7.1289,7.2529,7.35,7.35,7.4762,7.5709,7.5709,7.5709,7.6284,7.7773,7.9003,8.0269,8.1725,8.2937,8.3621,8.3621,8.4673,8.5297,8.5297,8.5391,8.5917,8.6978,8.6978,8.6978,8.6978,8.6978,8.6978,8.6978,8.6978,8.6978,0.0,0.0,0.0,0.0,8.6978,8.6978,8.6978,8.6978,8.6978,8.6978,8.6978,8.6978,8.7088,8.7876,8.8629,8.9473,9.0317,9.1143,9.1803,9.1803,9.1803,9.1803,9.1803,9.1803,9.1803,9.1803,9.1803,9.1803,9.1803,9.1803,9.1803,9.1803,9.1803,9.1803,9.1803,9.1803,9.1803,9.1803,9.1803,9.206,9.2905,9.3712,9.452,9.5308,9.6135,9.6649,9.6685,9.6685,9.6685,9.6685,9.6685,9.6685,9.6685,9.6685,9.6685,9.6685,9.6685,9.6685,9.6685,9.6685,9.6685,9.6685,9.6685,9.6685,9.6685,9.6685,9.6685,6.441,0.0,6.6102,6.6677,6.6791,6.6994,0.0,6.8504,6.9316,7.0026,7.0804,7.1289,7.1289,7.1289,7.1289,7.1289,7.2529,7.35,7.35,7.4762,7.5709,7.5709,7.5709,7.6082,7.7063,7.8694,8.0061,8.0997,8.2656,8.3621,8.3621,8.4673,8.5297,8.5297,8.6138,8.6731,8.7014,8.6978,8.6978,8.6978,8.6978,8.6978,8.6978,8.6978,8.6978,0.0,0.0,0.0,8.6978,8.6978,8.6978,8.6978,8.6978,8.6978,8.6978,8.6978,8.6978,8.7014,8.7215,8.7802,8.872,9.0152,9.1143,9.1803,9.1803,9.1803,9.1803,9.1803,9.1803,9.1803,9.1803,9.1803,9.1803,9.1803,9.1803,9.1803,9.1803,9.1803,9.1803,9.1803,9.1803,9.1803,9.1803,9.1803,9.1877,9.206,9.2831,9.3675,9.4483,9.529,9.6025,9.6649,9.6685,9.6685,9.6685,9.6685,9.6685,9.6685,9.6685,9.6685,9.6685,9.6685,9.6685,9.6685,9.6685,9.6685,9.6685,9.6685,9.6685,9.6685,9.6685,9.6685,6.4309,6.5121,6.5886,6.6643,6.6791,6.6893,6.732,6.8267,6.9214,6.962,7.0567,7.1289,7.1289,7.1289,7.1391,7.1751,7.2766,7.3737,7.439,7.5202,7.5889,7.6381,7.6416,7.6954,0.0,8.0082,8.1534,8.2256,8.4083,8.5143,8.5143,8.575,8.6083,8.6083,8.6696,8.6978,8.6978,8.6978,8.6978,8.6978,8.6978,8.6978,8.6978,8.6978,8.6978,0.0,0.0,0.0,8.6978,8.6978,8.6978,8.6978,8.6978,8.6978,8.6978,8.6978,8.6978,8.6978,8.6978,8.7545,8.839,8.9657,9.0592,9.1253,9.1253,9.151,9.1803,9.1803,9.1803,9.1803,9.1803,9.1803,9.1803,9.1803,9.1803,9.1803,9.1803,9.1803,9.1803,9.1803,9.1803,9.1803,9.1803,9.1803,9.1803,9.1803,9.2537,9.3272,9.3675,9.4446,9.5254,9.6061,9.6135,9.6282,9.6685,9.6685,9.6685,9.6685,9.6685,9.6685,9.6685,9.6685,9.6685,9.6685,9.6685,9.6685,9.6685,9.6685,9.6685,9.6685,9.6685,9.6685,6.4208,6.5053,6.573,6.6588,6.6791,6.6791,6.6791,6.7895,6.8944,6.9079,7.0195,7.1154,7.1289,7.1289,7.1526,7.2293,7.3105,7.4119,7.5506,7.5709,7.6114,7.7182,7.7314,7.798,7.9761,8.1786,8.3259,8.3907,8.5845,8.6978,8.6978,8.6978,8.6978,8.6978,8.6978,8.6978,8.6978,8.6978,8.6978,8.6978,8.6978,8.6978,8.6978,8.6978,8.6978,8.6978,0.0,0.0,8.6978,8.6978,8.6978,8.6978,8.6978,8.6978,8.6978,8.6978,8.6978,8.6978,8.6978,8.7545,8.8316,8.8996,8.9767,9.0427,9.0427,9.0996,9.162,9.162,9.1693,9.1803,9.1803,9.1803,9.1803,9.1803,9.1803,9.1803,9.1803,9.1803,9.1803,9.1803,9.1803,9.1803,9.1803,9.1803,9.1803,9.1803,9.2427,9.2941,9.3088,9.3712,9.441,9.5254,9.5327,9.564,9.6465,9.6539,9.6575,9.6685,9.6685,9.6685,9.6685,9.6685,9.6685,9.6685,9.6685,9.6685,9.6685,9.6685,9.6685,9.6685,9.6685,9.6685,6.4208,6.4681,6.5087,6.6453,6.6791,6.6791,6.6791,6.7489,6.8267,6.8977,6.9789,7.0567,7.1188,7.1289,7.1526,7.2293,7.3544,7.4728,7.5574,7.5709,7.6114,7.7182,7.7314,7.7771,7.9059,8.1483,8.3061,8.3169,8.5571,8.6978,8.6978,8.6978,8.6978,8.6978,8.6978,8.6978,8.6978,8.6978,8.6978,8.6978,8.6978,8.6978,8.6978,8.6978,8.6978,8.6978,0.0,8.6978,8.6978,8.6978,8.6978,8.6978,8.6978,8.6978,8.6978,8.6978,8.6978,8.6978,8.6978,8.7545,8.8206,8.8353,8.8923,8.9583,8.9583,9.0134,9.0776,9.0776,9.1253,9.1803,9.1803,9.1803,9.1803,9.1803,9.1803,9.1803,9.1803,9.1803,9.1803,9.1803,9.1803,9.1803,9.1803,9.1803,9.1803,9.1803,9.1913,9.2281,9.3015,9.3198,9.3602,9.441,9.4483,9.4813,9.5621,9.5675,9.5969,9.6649,9.6685,9.6685,9.6685,9.6685,9.6685,9.6685,9.6685,9.6685,9.6685,9.6685,9.6685,9.6685,9.6685,9.6685,6.3734,6.4309,6.485,6.5933,6.6508,6.6791,6.6791,6.7387,6.8132,6.8944,6.9688,7.0432,7.1176,7.1289,7.1684,7.28,7.4221,7.5303,7.5642,7.5709,7.6335,0.0,0.0,7.8867,8.0568,8.2248,8.3405,8.3823,8.5413,8.6554,8.6978,8.6978,8.6978,8.6978,8.6978,8.6978,8.6978,8.6978,8.6978,8.6978,8.6978,8.6978,8.6978,8.6978,8.6978,8.6978,0.0,8.6978,8.6978,8.6978,8.6978,8.6978,8.6978,8.6978,8.6978,8.6978,8.6978,8.6978,8.6978,8.7234,8.7545,8.7545,8.8096,8.8739,8.8739,8.929,9.0024,9.0464,9.1179,9.1803,9.1803,9.1803,9.1803,9.1803,9.1803,9.1803,9.1803,9.1803,9.1803,9.1803,9.1803,9.1803,9.1803,9.1803,9.1803,9.1803,9.1803,9.195,9.2354,9.2391,9.2721,9.3565,9.3639,9.3969,9.4777,9.5235,9.5841,9.6649,9.6685,9.6685,9.6685,9.6685,9.6685,9.6685,9.6685,9.6685,9.6685,9.6685,9.6685,9.6685,9.6685,9.6685,6.3274,6.4038,6.4783,6.5514,6.6237,6.6791,6.6791,6.7252,6.7929,6.891,6.9553,7.0229,7.112,7.1582,7.2259,7.3544,7.483,7.5771,7.6043,7.609,7.6882,7.9103,7.9361,8.0107,8.2002,8.292,8.3711,8.4535,8.5343,8.6151,8.6941,8.6978,8.6978,8.6978,8.6978,8.6978,8.6978,8.6978,8.6978,8.6978,8.6978,8.6978,8.6978,8.6978,8.6978,8.6978,8.6978,8.6978,8.6978,8.6978,8.6978,8.6978,8.6978,8.6978,8.6978,8.6978,8.6978,8.6978,8.6978,8.6978,8.6978,8.6978,8.7435,8.7912,8.7912,8.85,8.9253,8.9858,9.0629,9.1326,9.1693,9.1803,9.1803,9.1803,9.1803,9.1803,9.1803,9.1803,9.1803,9.1803,9.1803,9.1803,9.1803,9.1803,9.1803,9.1803,9.1803,9.1803,9.1803,9.1803,9.206,9.2721,9.2794,9.3125,9.3932,9.4777,9.5584,9.6392,9.6612,9.6685,9.6685,9.6685,9.6685,9.6685,9.6685,9.6685,9.6685,9.6685,9.6685,9.6685,9.6685,9.6685,6.3274,6.4038,6.4783,6.5514,6.6237,6.6791,6.6791,6.6825,6.732,6.8808,6.9147,6.962,7.1041,7.2428,7.3578,7.439,7.5202,7.6043,7.7026,0.0,7.8013,8.02,8.0477,8.0929,8.2104,8.292,8.3711,8.4535,8.5343,8.6151,8.6941,8.6978,8.6978,8.6978,8.6978,8.6978,8.6978,8.6978,8.6978,8.6978,8.6978,8.6978,8.6978,8.6978,8.6978,8.6978,8.6978,8.6978,8.6978,8.6978,8.6978,8.6978,8.6978,8.6978,8.6978,8.6978,8.6978,8.6978,8.6978,8.6978,8.6978,8.6978,8.7014,8.7088,8.7088,8.7655,8.8316,8.8353,8.894,8.9913,9.14,9.1803,9.1803,9.1803,9.1803,9.1803,9.1803,9.1803,9.1803,9.1803,9.1803,9.1803,9.1803,9.1803,9.1803,9.1803,9.1803,9.1803,9.1803,9.1803,9.1803,9.1877,9.1877,9.2244,9.3125,9.3932,9.474,9.5528,9.6282,9.6685,9.6685,9.6685,9.6685,9.6685,9.6685,9.6685,9.6685,9.6685,9.6685,9.6685,9.6685,9.6685,6.2753,6.37,6.4681,6.4952,6.5933,6.6791,6.6791,6.6791,6.7231,6.8774,6.9113,6.9688,7.165,7.28,7.3713,7.4492,7.5236,7.609,7.7138,7.7314,7.8105,8.0348,8.0623,8.1036,8.2104,8.248,8.2994,8.3785,8.4609,8.5416,8.6224,8.6738,8.6978,8.6978,8.6978,8.6978,8.6978,8.6978,8.6978,8.6978,8.6978,8.6978,8.6978,8.6978,8.6978,8.6978,8.6978,8.6978,8.6978,8.6978,8.6978,8.6978,8.6978,8.6978,8.6978,8.6978,8.6978,8.6978,8.6978,8.6978,8.6978,8.6978,8.6978,8.6978,8.6978,8.7198,8.7582,8.8059,8.8426,8.9014,9.0629,9.1069,9.1179,9.1693,9.1803,9.1803,9.1803,9.1803,9.1803,9.1803,9.1803,9.1803,9.1803,9.1803,9.1803,9.1803,9.1803,9.1803,9.1803,9.1803,9.1803,9.1803,9.1803,9.2134,9.3015,9.3382,9.3896,9.4703,9.5511,9.6171,9.6685,9.6685,9.6685,9.6685,9.6685,9.6685,9.6685,9.6685,9.6685,9.6685,9.6685,9.6685,6.24,6.3463,6.4613,6.4613,6.573,6.6859,6.7096,6.7151,6.7523,6.8842,6.9654,7.0669,7.2428,7.3341,7.4086,7.483,7.5371,7.6173,7.7628,7.7843,7.8644,8.0857,8.1107,8.1405,8.2137,8.2186,8.2517,8.3344,8.4168,8.4939,8.5747,8.6554,8.6978,8.6978,8.6978,8.6978,8.6978,8.6978,8.6978,8.6978,8.6978,8.6978,8.6978,8.6978,8.6978,8.6978,8.6978,8.6978,8.6978,8.6978,8.6978,8.6978,8.6978,8.6978,8.6978,8.6978,8.6978,8.6978,8.6978,8.6978,8.6978,8.6978,8.6978,8.6978,8.6978,8.6978,8.7088,8.7655,8.7839,8.8133,8.9491,9.0041,9.0427,9.1216,9.1436,9.1473,9.173,9.1803,9.1803,9.1803,9.1803,9.1803,9.1803,9.1803,9.1803,9.1803,9.1803,9.1803,9.1803,9.1803,9.1803,9.1803,9.1803,9.2024,9.2648,9.2684,9.3051,9.3859,9.4446,9.5217,9.6282,9.6318,9.6428,9.6685,9.6685,9.6685,9.6685,9.6685,9.6685,9.6685,9.6685,9.6685,6.24,6.3463,6.4613,6.4613,6.573,6.6994,6.7726,6.7895,6.8132,6.8944,7.0872,7.2631,7.3341,7.4086,7.4864,7.5574,7.5709,7.6462,7.87,7.9003,7.9823,8.1952,8.2186,8.2186,8.2186,8.2186,8.2517,8.3344,8.4132,8.4939,8.5764,8.6554,8.6978,8.6978,8.6978,8.6978,8.6978,8.6978,8.6978,8.6978,8.6978,8.6978,8.6978,8.6978,8.6978,8.6978,8.6978,8.6978,8.6978,8.6978,8.6978,8.6978,8.6978,8.6978,8.6978,8.6978,8.6978,8.6978,8.6978,8.6978,8.6978,8.6978,8.6978,8.6978,8.6978,8.6978,8.6978,8.6978,8.6978,8.7161,8.7986,8.8793,8.9583,9.0408,9.0592,9.0812,9.162,9.1803,9.1803,9.1803,9.1803,9.1803,9.1803,9.1803,9.1803,9.1803,9.1803,9.1803,9.1803,9.1803,9.1803,9.1803,9.1803,9.1803,9.1803,9.1803,9.217,9.3015,9.3088,9.3822,9.5418,9.5492,9.5878,9.6685,9.6685,9.6685,9.6685,9.6685,9.6685,9.6685,9.6685,9.6685,6.24,6.3463,6.4613,6.4613,6.573,6.6994,6.7726,6.7895,6.8267,6.9586,7.121,7.2631,7.3341,7.4086,0.0,7.5574,7.5709,7.6462,7.87,7.9003,7.9823,8.1952,8.2186,8.2186,8.2186,8.2186,8.2296,8.2553,8.3838,8.4682,8.4939,8.6261,8.6978,8.6978,8.6978,8.6978,8.6978,8.6978,8.6978,8.6978,8.6978,8.6978,8.6978,8.6978,8.6978,8.6978,8.6978,8.6978,8.6978,8.6978,8.6978,8.6978,8.6978,8.6978,8.6978,8.6978,8.6978,8.6978,8.6978,8.6978,8.6978,8.6978,8.6978,8.6978,8.6978,8.6978,8.6978,8.6978,8.6978,8.7051,8.7271,8.7528,8.8042,8.9436,9.017,9.0665,9.0922,9.14,9.1803,9.1803,9.1803,9.1803,9.1803,9.1803,9.1803,9.1803,9.1803,9.1803,9.1803,9.1803,9.1803,9.1803,9.1803,9.1803,9.1803,9.1803,9.1913,9.217,9.217,9.2941,9.4593,9.4666,9.5034,9.5841,9.5859,9.6135,9.6685,9.6685,9.6685,9.6685,9.6685,9.6685,6.2753,6.37,6.4681,6.4952,6.5933,6.7083,6.8132,6.8605,6.9248,7.077,7.1988,7.3071,7.3781,7.4525,0.0,7.5642,7.6067,7.6972,7.8761,7.9361,8.0256,8.1985,8.2186,8.2186,8.2186,8.2186,8.2186,8.2186,8.3398,8.4278,8.4572,8.582,8.6664,8.6978,8.6978,8.6978,8.6978,8.6978,8.6978,8.6978,8.6978,8.6978,8.6978,8.6978,8.6978,8.6978,8.6978,8.6978,8.6978,8.6978,8.6978,8.6978,8.6978,8.6978,8.6978,8.6978,8.6978,8.6978,8.6978,8.6978,8.6978,8.6978,8.6978,8.6978,8.6978,8.6978,8.6978,8.6978,8.6978,8.6978,8.6978,8.6978,8.7308,8.8629,8.9307,8.9821,9.0482,9.0996,9.1436,9.173,9.1803,9.1803,9.1803,9.1803,9.1803,9.1803,9.1803,9.1803,9.1803,9.1803,9.1803,9.1803,9.1803,9.1803,9.1803,9.1803,9.1803,9.1803,9.1803,9.2244,9.3272,9.3639,9.4189,9.5034,9.5034,9.5254,9.5731,9.5731,9.5731,9.5731,9.5731,9.5731,6.3274,6.4038,6.4783,6.5514,6.6373,6.7366,6.8774,6.9722,7.0703,7.2124,7.2969,7.3737,7.4458,7.5202,7.5709,7.5709,7.6599,7.7693,7.8842,7.9918,8.1018,8.2088,8.2186,8.2186,8.2186,8.2186,8.2186,8.2186,8.2957,8.3748,8.4572,8.5343,8.6151,8.6978,8.6978,8.6978,8.6978,8.6978,8.6978,8.6978,8.6978,8.6978,8.6978,8.6978,8.6978,8.6978,8.6978,8.6978,8.6978,8.6978,8.6978,8.6978,8.6978,8.6978,8.6978,8.6978,8.6978,8.6978,8.6978,8.6978,8.6978,8.6978,8.6978,8.6978,8.6978,8.6978,8.6978,8.6978,8.6978,8.6978,8.6978,8.6978,8.7161,8.7912,8.8133,8.861,9.0078,9.0519,9.0812,9.1546,9.173,9.1803,9.1803,9.1803,9.1803,9.1803,9.1803,9.1803,9.1803,9.1803,9.1803,9.1803,9.1803,9.1803,9.1803,9.1803,9.1803,9.1803,9.1803,9.1803,9.1803,9.2574,9.3345,9.4153,9.4189,9.4226,9.4299,9.4299,9.4299,9.4299,9.4299,9.4299,6.3274,6.4038,6.4783,6.5514,6.7151,6.8707,6.9011,7.0128,7.1312,7.2225,7.2969,7.3737,7.4458,7.5202,7.5709,7.5709,7.6599,7.7693,7.8842,7.9918,8.1018,8.2088,8.2186,8.2186,8.2186,8.2186,8.2186,8.2186,8.2957,8.3748,8.4572,8.5343,8.6151,8.6978,8.6978,8.6978,8.6978,8.6978,8.6978,8.6978,8.6978,8.6978,8.6978,8.6978,8.6978,8.6978,8.6978,8.6978,8.6978,8.6978,8.6978,8.6978,8.6978,8.6978,8.6978,8.6978,8.6978,8.6978,8.6978,8.6978,8.6978,8.6978,8.6978,8.6978,8.6978,8.6978,8.6978,8.6978,8.6978,8.6978,8.6978,8.6978,8.7014,8.7215,8.7729,8.828,8.8647,8.9711,9.0665,9.0812,9.1363,9.1803,9.1803,9.1803,9.1803,9.1803,9.1803,9.1803,9.1803,9.1803,9.1803,9.1803,9.1803,9.1803,9.1803,9.1803,9.1803,9.1803,9.1803,9.1803,9.1803,9.1987,9.2464,9.3345,9.3345,9.3675,9.4299,9.4299,9.4299,9.4299,9.4299,9.4299,6.3734,6.4309,6.485,6.5967,6.7658,6.9113,6.9113,7.0263,7.1616,7.2699,7.3229,7.3815,7.4931,7.5865,7.6462,7.6462,7.7822,7.9103,7.9672,8.0677,8.1559,8.2137,8.2186,8.2186,8.2186,8.2186,8.2186,8.2186,8.259,8.3177,8.3985,8.4792,8.56,8.6407,8.6794,8.6978,8.6978,8.6978,8.6978,8.6978,8.6978,8.6978,8.6978,8.6978,8.6978,8.6978,8.6978,8.6978,8.6978,8.6978,8.6978,8.6978,8.6978,8.6978,8.6978,8.6978,8.6978,8.6978,8.6978,8.6978,8.6978,8.6978,8.6978,8.6978,8.6978,8.6978,8.6978,8.6978,8.6978,8.6978,8.6978,8.6978,8.6978,8.6978,8.7308,8.7729,8.8133,8.8867,8.9674,9.0445,9.0959,9.1363,9.173,9.1803,9.1803,9.1803,9.1803,9.1803,9.1803,9.1803,9.1803,9.1803,9.1803,9.1803,9.1803,9.1803,9.1803,9.1803,9.1803,9.1803,9.1803,9.1803,9.2024,9.2464,9.2464,9.2684,9.3088,9.3088,9.3088,9.3088,9.3088,9.3088,6.4208,6.4783,6.529,6.6487,6.7963,6.9113,6.9113,7.0263,7.1684,7.3003,7.3432,7.395,7.5439,7.6577,7.7314,7.7314,7.9163,8.0623,8.0623,8.1508,8.2186,8.2186,8.2186,8.2186,8.2186,8.2186,8.2186,8.2186,8.2186,8.2553,8.3344,8.4168,8.4976,8.5764,8.6591,8.6978,8.6978,8.6978,8.6978,8.6978,8.6978,8.6978,8.6978,8.6978,8.6978,8.6978,8.6978,8.6978,8.6978,8.6978,8.6978,8.6978,8.6978,8.6978,8.6978,8.6978,8.6978,8.6978,8.6978,8.6978,8.6978,8.6978,8.6978,8.6978,8.6978,8.6978,8.6978,8.6978,8.6978,8.6978,8.6978,8.6978,8.6978,8.6978,8.6978,8.7161,8.7839,8.8096,8.861,8.9931,9.0408,9.0849,9.1657,9.1803,9.1803,9.1803,9.1803,9.1803,9.1803,9.1803,9.1803,9.1803,9.1803,9.1803,9.1803,9.1803,9.1803,9.1803,9.1803,9.1803,9.1803,9.1803,9.1803,9.1803,9.1803,9.1803,9.1803,9.1803,9.1803,9.1803,9.1803,9.1803,6.4208,6.5527,6.6555,6.6757,6.7963,6.9113,6.9113,7.0263,7.1526,7.236,7.3037,7.395,7.5439,7.6577,7.7314,7.7314,7.9163,8.0623,8.0623,8.1508,8.2186,8.2186,8.2186,8.2186,8.2186,8.2186,8.2186,8.2186,8.2186,8.2553,8.3344,8.4168,8.4976,8.5764,8.6591,8.6978,8.6978,8.6978,8.6978,8.6978,8.6978,8.6978,8.6978,8.6978,8.6978,8.6978,8.6978,8.6978,8.6978,8.6978,8.6978,8.6978,8.6978,8.6978,8.6978,8.6978,8.6978,8.6978,8.6978,8.6978,8.6978,8.6978,8.6978,8.6978,8.6978,8.6978,8.6978,8.6978,8.6978,8.6978,8.6978,8.6978,8.6978,8.6978,8.6978,8.7014,8.7124,8.7729,8.8243,8.8463,8.9638,9.0849,9.1657,9.1803,9.1803,9.1803,9.1803,9.1803,9.1803,9.1803,9.1803,9.1803,9.1803,9.1803,9.1803,9.1803,9.1803,9.1803,9.1803,9.1803,9.1803,9.1803,9.1803,9.1803,9.1803,9.1803,9.1803,9.1803,9.1803,9.1803,9.1803,9.1803,6.4816,6.6,6.6791,6.6791,6.7624,6.8538,6.9011,6.9925,7.1007,7.2157,7.2969,7.3815,7.4897,7.6795,7.8266,7.8266,8.0088,8.1491,8.1491,8.1902,8.2186,8.2186,8.2186,8.2186,8.2186,8.2186,8.2186,8.2186,8.2186,8.2333,8.27,8.3508,8.4315,8.5086,8.5894,8.6554,8.6978,8.6978,8.6978,8.6978,8.6978,8.6978,8.6978,8.6978,8.6978,8.6978,8.6978,8.6978,8.6978,8.6978,8.6978,8.6978,8.6978,8.6978,8.6978,8.6978,8.6978,8.6978,8.6978,8.6978,8.6978,8.6978,8.6978,8.6978,8.6978,8.6978,8.6978,8.6978,8.6978,8.6978,8.6978,8.6978,8.6978,8.6978,8.6978,8.6978,8.6978,8.7288,8.7655,8.8096,8.9491,9.0702,9.1069,9.151,9.1803,9.1803,9.1803,9.1803,9.1803,9.1803,9.1803,9.1803,9.1803,9.1803,9.1803,9.1803,9.1803,9.1803,9.1803,9.1803,9.1803,9.1803,9.1803,9.1803,9.1803,9.1803,9.1803,9.1803,9.1803,9.1803,9.1803,9.1803,6.5392,6.6237,6.6791,6.6791,6.7354,6.8098,6.891,6.9654,7.0567,7.1853,7.2699,7.3524,7.4536,7.7066,7.9003,7.9003,8.0822,8.2186,8.2186,8.2186,8.2186,8.2186,8.2186,8.2186,8.2186,8.2186,8.2186,8.2186,8.2186,8.2186,8.2186,8.2957,8.3675,8.4278,8.527,8.6077,8.6701,8.6904,8.6978,8.6978,8.6978,8.6978,8.6978,8.6978,8.6978,8.6978,8.6978,8.6978,8.6978,8.6978,8.6978,8.6978,8.6978,8.6978,8.6978,8.6978,8.6978,8.6978,8.6978,8.6978,8.6978,8.6978,8.6978,8.6978,8.6978,8.6978,8.6978,8.6978,8.6978,8.6978,8.6978,8.6978,8.6978,8.6978,8.6978,8.6978,8.6978,8.6978,8.7234,8.8059,8.9344,9.0354,9.0537,9.1253,9.1803,9.1803,9.1803,9.1803,9.1803,9.1803,9.1803,9.1803,9.1803,9.1803,9.1803,9.1803,9.1803,9.1803,9.1803,9.1803,9.1803,9.1803,9.1803,9.1803,9.1803,9.1803,9.1803,9.1803,9.1803,9.1803,9.1803,9.1803,6.5683,6.6237,6.6791,6.6791,6.7354,6.8098,6.891,6.9654,7.0398,7.121,7.1954,7.2994,7.4757,7.7228,7.9003,7.9003,8.0822,8.2186,8.2186,8.2186,8.2186,8.2186,8.2186,8.2186,8.2186,8.2186,8.2186,8.2186,8.2186,8.2186,8.2186,8.2957,8.3418,8.3454,8.4976,8.582,8.5857,8.6628,8.6978,8.6978,8.6978,8.6978,8.6978,8.6978,8.6978,8.6978,8.6978,8.6978,8.6978,8.6978,8.6978,8.6978,8.6978,8.6978,8.6978,8.6978,8.6978,8.6978,8.6978,8.6978,8.6978,8.6978,8.6978,8.6978,8.6978,8.6978,8.6978,8.6978,8.6978,8.6978,8.6978,8.6978,8.6978,8.6978,8.6978,8.6978,8.6978,8.6978,8.7234,8.8059,8.8886,8.9693,9.0464,9.1253,9.1803,9.1803,9.1803,9.1803,9.1803,9.1803,9.1803,9.1803,9.1803,9.1803,9.1803,9.1803,9.1803,9.1803,9.1803,9.1803,9.1803,9.1803,9.1803,9.1803,9.1803,9.1803,9.1803,9.1803,9.1803,9.1803,9.1803,9.1803,6.6271,6.6609,6.6791,6.6791,6.6994,6.7387,6.8166,6.9441,7.0475,7.0587,7.2069,7.3555,7.4224,7.6477,7.8619,7.9811,8.1247,8.2186,8.2186,8.2186,8.2186,8.2186,8.2186,8.2186,8.2186,8.2186,8.2186,8.2186,8.2186,8.2186,8.2186,8.248,8.2884,8.3381,8.3968,8.4756,8.5783,8.6591,8.6978,8.6978,8.6978,8.6978,8.6978,8.6978,8.6978,8.6978,8.6978,8.6978,8.6978,8.6978,8.6978,8.6978,8.6978,8.6978,8.6978,8.6978,8.6978,8.6978,8.6978,8.6978,8.6978,8.6978,8.6978,8.6978,8.6978,8.6978,8.6978,8.6978,8.6978,8.6978,8.6978,8.6978,8.6978,8.6978,8.6978,8.6978,8.6978,8.6978,8.7088,8.7362,8.8096,8.8904,8.9693,9.0501,9.1216,9.173,9.1803,9.1803,9.1803,9.1803,9.1803,9.1803,9.1803,9.1803,9.1803,9.1803,9.1803,9.1803,9.1803,9.1803,9.1803,9.1803,9.1803,9.1803,9.1803,9.1803,9.1803,9.1803,9.1803,9.1803,9.1803,9.1803,6.6656,6.6791,6.6791,6.6791,6.6791,6.6994,6.7726,6.8814,6.99,7.0563,7.1998,7.3421,7.4298,7.6137,7.8104,7.99,8.1309,8.2186,8.2186,8.2186,8.2186,8.2186,8.2186,8.2186,8.2186,8.2186,8.2186,8.2186,8.2186,0.0,8.2186,8.2186,8.2553,8.3381,8.3381,8.4168,8.58,8.6334,8.6738,8.6978,8.6978,8.6978,8.6978,8.6978,8.6978,8.6978,8.6978,8.6978,8.6978,8.6978,8.6978,8.6978,8.6978,8.6978,8.6978,8.6978,8.6978,8.6978,8.6978,8.6978,8.6978,8.6978,8.6978,8.6978,8.6978,8.6978,8.6978,8.6978,8.6978,8.6978,8.6978,8.6978,8.6978,8.6978,8.6978,8.6978,8.6978,8.6978,8.6978,8.6978,8.7655,8.8463,8.9253,9.006,9.0886,9.1693,9.1803,9.1803,9.1803,9.1803,9.1803,9.1803,9.1803,9.1803,9.1803,9.1803,9.1803,9.1803,9.1803,9.1803,9.1803,9.1803,9.1803,9.1803,9.1803,9.1803,9.1803,9.1803,9.1803,9.1803,9.1803,9.1803,0.0,0.0,0.0,6.6791,6.6791,6.7015,6.7692,6.7916,6.863,7.1097,7.1674,7.2489,7.499,7.6302,7.7518,7.9107,8.0925,8.215,8.2186,8.2186,8.2186,8.2186,8.2186,8.2186,8.2186,8.2186,8.2186,8.2186,8.2186,8.2186,8.2186,8.2186,8.2553,8.3344,8.3381,8.4168,8.571,8.5764,8.6151,8.6941,8.6941,8.6978,8.6978,8.6978,8.6978,8.6978,8.6978,8.6978,8.6978,8.6978,8.6978,8.6978,8.6978,8.6978,8.6978,8.6978,8.6978,8.6978,8.6978,8.6978,8.6978,8.6978,8.6978,8.6978,8.6978,8.6978,8.6978,8.6978,8.6978,8.6978,8.6978,8.6978,8.6978,8.6978,8.6978,8.6978,8.6978,8.6978,8.6978,8.6978,8.7619,8.8426,8.9216,9.0024,9.0849,9.1657,9.1767,9.1803,9.1803,9.1803,9.1803,9.1803,9.1803,9.1803,9.1803,9.1803,9.1803,9.1803,9.1803,9.1803,9.1803,9.1803,9.1803,9.1803,9.1803,9.1803,9.1803,9.1803,9.1803,9.1803,9.1803,9.1803,6.6791,0.0,0.0,0.0,0.0,0.0,6.7083,6.8104,6.9034,6.8963,7.1012,7.3001,7.3708,7.5568,7.74,7.8601,8.0227,8.1525,8.2113,8.2186,8.2186,8.2186,8.2186,8.2186,8.2186,8.2186,8.2186,0.0,8.2186,8.2186,8.2186,8.2186,8.2296,8.2517,8.3104,8.3601,8.4058,8.4646,8.5343,8.6114,8.6114,8.6444,8.6978,8.6978,8.6978,8.6978,8.6978,8.6978,8.6978,8.6978,8.6978,8.6978,8.6978,8.6978,8.6978,8.6978,8.6978,8.6978,8.6978,8.6978,8.6978,8.6978,8.6978,8.6978,8.6978,8.6978,8.6978,8.6978,8.6978,8.6978,8.6978,8.6978,8.6978,8.6978,8.6978,8.6978,8.6978,8.6978,8.6978,8.6978,8.7161,8.7582,8.839,8.9179,8.9987,9.0812,9.1436,9.1803,9.1803,9.1803,9.1803,9.1803,9.1803,9.1803,9.1803,9.1803,9.1803,9.1803,9.1803,9.1803,9.1803,9.1803,9.1803,9.1803,9.1803,9.1803,9.1803,9.1803,9.1803,9.1803,9.1803,9.1803,0.0,0.0,0.0,0.0,0.0,0.0,6.6791,6.7605,6.8479,6.8946,7.0665,7.2408,7.3475,7.521,7.6806,7.7777,7.91,8.0388,8.1525,8.1709,8.1819,8.215,8.2186,8.2186,8.2186,8.2186,8.2186,8.2186,8.2186,8.2186,8.2186,8.2186,8.2186,8.2186,8.2663,8.3051,8.3381,8.3858,8.4499,8.5306,8.5306,8.571,8.6518,8.6518,8.6701,8.6978,8.6978,8.6978,8.6978,8.6978,8.6978,8.6978,8.6978,8.6978,8.6978,8.6978,8.6978,8.6978,8.6978,8.6978,8.6978,8.6978,8.6978,8.6978,8.6978,8.6978,8.6978,8.6978,8.6978,8.6978,8.6978,8.6978,8.6978,8.6978,8.6978,8.6978,8.6978,8.6978,8.6978,8.6978,8.6978,8.7234,8.8059,8.8849,8.9657,9.0464,9.1289,9.1803,9.1803,9.1803,9.1803,9.1803,9.1803,9.1803,9.1803,9.1803,9.1803,9.1803,9.1803,9.1803,9.1803,9.1803,9.1803,9.1803,9.1803,9.1803,9.1803,9.1803,9.1803,9.1803,9.1803,9.1803,0.0,0.0,0.0,0.0,0.0,0.0,6.6791,6.6791,6.7479,6.9808,7.0456,7.13,7.3579,7.4922,7.5848,7.6603,7.7605,7.8882,8.0629,8.0865,8.1158,8.1966,8.2076,8.2113,8.2186,8.2186,8.2186,8.2186,8.2186,8.2186,8.2186,8.2186,8.2186,8.2186,8.2186,8.2553,8.3271,8.3271,8.3675,8.4462,8.4462,8.4903,8.5673,8.5673,8.6114,8.6885,8.6885,8.6904,8.6978,8.6978,8.6978,8.6978,8.6978,8.6978,8.6978,8.6978,8.6978,8.6978,8.6978,8.6978,8.6978,8.6978,8.6978,8.6978,8.6978,8.6978,8.6978,8.6978,8.6978,8.6978,8.6978,8.6978,8.6978,8.6978,8.6978,8.6978,8.6978,8.6978,8.6978,8.6978,8.6978,8.7234,8.7949,8.8812,8.9657,9.0354,9.1216,9.1803,9.1803,9.1803,9.1803,9.1803,9.1803,9.1803,9.1803,9.1803,9.1803,9.1803,9.1803,9.1803,9.1803,9.1803,9.1803,9.1803,9.1803,9.1803,9.1803,9.1803,9.1803,9.1803,9.1803,9.1803,0.0,0.0,0.0,0.0,0.0,0.0,6.6791,6.6791,6.7112,6.8192,6.9598,7.0942,7.2006,7.3486,7.4627,7.4804,7.5673,7.7215,7.9684,8.0036,8.0314,8.1158,8.1232,8.1489,8.215,8.2186,8.2186,8.2186,8.2186,8.2186,8.2186,8.2186,8.2186,8.2186,8.2186,8.226,8.2443,8.2443,8.2847,8.3638,8.3638,8.4058,8.4829,8.4829,8.527,8.604,8.604,8.6407,8.6978,8.6978,8.6978,8.6978,8.6978,8.6978,8.6978,8.6978,8.6978,8.6978,8.6978,8.6978,8.6978,8.6978,8.6978,8.6978,8.6978,8.6978,8.6978,8.6978,8.6978,8.6978,8.6978,8.6978,8.6978,8.6978,8.6978,8.6978,8.6978,8.6978,8.6978,8.6978,8.6978,8.7051,8.7198,8.8445,8.9436,8.962,9.0886,9.1803,9.1803,9.1803,9.1803,9.1803,9.1803,9.1803,9.1803,9.1803,9.1803,9.1803,9.1803,9.1803,9.1803,9.1803,9.1803,9.1803,9.1803,9.1803,9.1803,9.1803,9.1803,9.1803,9.1803,9.1803,0.0,0.0,0.0,6.6791,0.0,0.0,0.0,6.7062,6.7557,6.8335,6.9518,7.0793,7.2001,7.2968,7.3729,7.4215,7.5138,7.6282,7.7605,7.8592,7.9522,8.0314,8.0388,8.0718,8.1525,8.1599,8.1782,8.215,8.2186,8.2186,8.2186,8.2186,8.2186,8.2186,8.2186,8.2186,8.2186,8.2186,8.2406,8.281,8.281,8.3214,8.4005,8.4005,8.4462,8.5196,8.5196,8.5673,8.6407,8.6407,8.6628,8.6978,8.6978,8.6978,8.6978,8.6978,8.6978,8.6978,8.6978,8.6978,8.6978,8.6978,8.6978,8.6978,8.6978,8.6978,8.6978,8.6978,8.6978,8.6978,8.6978,8.6978,8.6978,8.6978,8.6978,8.6978,8.6978,8.6978,8.6978,8.6978,8.6978,8.6978,8.6978,8.8335,8.94,8.94,9.0776,9.1803,9.1803,9.1803,9.1803,9.1803,9.1803,9.1803,9.1803,9.1803,9.1803,9.1803,9.1803,9.1803,9.1803,9.1803,9.1803,9.1803,9.1803,9.1803,9.1803,9.1803,9.1803,9.1803,9.1803,9.1803,0.0,0.0,0.0,0.0,0.0,6.6791,0.0,0.0,0.0,6.8944,6.9688,7.0673,7.2247,7.2498,0.0,7.3591,0.0,0.0,0.0,7.7145,0.0,7.9486,7.9559,7.9874,8.0681,8.0901,8.1342,8.215,8.2186,8.2186,8.2186,8.2186,8.2186,8.2186,8.2186,8.2186,8.2186,8.2186,8.2186,8.2186,8.2186,8.2553,8.3161,8.3161,8.3601,8.4389,8.4389,8.4829,8.5563,8.5563,8.604,8.6775,8.6958,8.6978,8.6978,8.6978,8.6978,8.6978,8.6978,8.6978,8.6978,8.6978,8.6978,8.6978,8.6978,8.6978,8.6978,8.6978,8.6978,8.6978,8.6978,8.6978,8.6978,8.6978,8.6978,8.6978,8.6978,8.6978,8.6978,8.6978,8.6978,8.6978,8.6978,8.8189,8.9216,8.9363,9.0629,9.162,9.1767,9.1803,9.1803,9.1803,9.1803,9.1803,9.1803,9.1803,9.1803,9.1803,9.1803,9.1803,9.1803,9.1803,9.1803,9.1803,9.1803,9.1803,9.1803,9.1803,9.1803,9.1803,9.1803,9.1803,0.0,0.0,0.0,0.0,6.6791,0.0,0.0,0.0,6.8132,6.8944,0.0,0.0,0.0,0.0,0.0,0.0,0.0,0.0,7.446,7.6186,7.7766,7.8626,7.8736,7.9029,7.9853,8.0571,8.1342,8.215,8.2186,8.2186,8.2186,8.2186,8.2186,8.2186,8.2186,8.2186,8.2186,8.2186,8.2186,8.2186,8.2186,8.226,8.2333,8.2333,8.2774,8.3528,8.3528,8.3968,8.4756,8.4756,8.5196,8.6004,8.6738,8.6978,8.6978,8.6978,8.6978,8.6978,8.6978,8.6978,8.6978,8.6978,8.6978,8.6978,8.6978,8.6978,8.6978,8.6978,8.6978,8.6978,8.6978,8.6978,8.6978,8.6978,8.6978,8.6978,8.6978,8.6978,8.6978,8.6978,8.6978,8.6978,8.6978,8.7729,8.8573,8.929,9.017,9.0996,9.1693,9.1803,9.1803,9.1803,9.1803,9.1803,9.1803,9.1803,9.1803,9.1803,9.1803,9.1803,9.1803,9.1803,9.1803,9.1803,9.1803,9.1803,9.1803,9.1803,9.1803,9.1803,9.1803,9.1803,0.0,0.0,0.0,0.0,0.0,0.0,0.0,0.0,6.9316,0.0,0.0,0.0,0.0,0.0,0.0,0.0,7.2512,0.0,0.0,0.0,7.679,0.0,0.0,0.0,7.9029,8.0241,8.1158,8.1489,8.1929,8.2186,8.2186,8.2186,8.2186,8.2186,8.2186,8.2186,8.2186,8.2186,8.2186,8.2186,8.2186,8.2186,8.2186,8.2186,8.237,8.27,8.27,8.3177,8.3895,8.3895,8.4389,8.5196,8.6004,8.6591,8.6978,8.6978,8.6978,8.6978,8.6978,8.6978,8.6978,8.6978,8.6978,8.6978,8.6978,8.6978,8.6978,8.6978,8.6978,8.6978,8.6978,8.6978,8.6978,8.6978,8.6978,8.6978,8.6978,8.6978,8.6978,8.6978,8.6978,8.6978,8.6978,8.7655,8.8463,8.929,9.006,9.0886,9.1693,9.1803,9.1803,9.1803,9.1803,9.1803,9.1803,9.1803,9.1803,9.1803,9.1803,9.1803,9.1803,9.1803,9.1803,9.1803,9.1803,9.1803,9.1803,9.1803,9.1803,9.1803,9.1803,9.1803,6.7387,0.0,0.0,0.0,0.0,0.0,0.0,0.0,0.0,0.0,0.0,0.0,0.0,0.0,0.0,0.0,0.0,7.29,0.0,7.4702,0.0,0.0,0.0,0.0,0.0,7.9653,8.0534,8.0975,8.1525,8.1966,8.2186,8.2186,8.2186,8.2186,8.2186,8.2186,8.2186,8.2186,8.2186,8.2186,8.2186,8.2186,8.2186,8.2186,8.2186,8.2186,8.2186,8.2517,8.3067,8.3067,8.3544,8.4352,8.4903,8.5637,8.6407,8.6831,8.6978,8.6978,8.6978,8.6978,8.6978,8.6978,8.6978,8.6978,8.6978,8.6978,8.6978,8.6978,8.6978,8.6978,8.6978,8.6978,8.6978,8.6978,8.6978,8.6978,8.6978,8.6978,8.6978,8.6978,8.6978,8.6978,8.6978,8.7472,8.8243,8.9253,8.9913,9.0629,9.1657,9.1803,9.1803,9.1803,9.1803,9.1803,9.1803,9.1803,9.1803,9.1803,9.1803,9.1803,9.1803,9.1803,9.1803,9.1803,9.1803,9.1803,9.1803,9.1803,9.1803,9.1803,9.1803,9.1803,0.0,0.0,0.0,6.9045,0.0,0.0,0.0,0.0,7.0217,0.0,0.0,0.0,0.0,0.0,0.0,0.0,0.0,0.0,0.0,0.0,0.0,0.0,0.0,0.0,0.0,7.8662,7.9323,0.0,8.1012,8.1379,8.215,8.2186,8.2186,8.2186,8.2186,8.2186,8.2186,8.2186,8.2186,8.2186,8.2186,8.2186,8.2186,8.2186,8.2186,8.2186,8.2186,8.2223,8.2223,8.2223,8.27,8.3454,8.3454,8.3968,8.4866,8.6444,8.6978,8.6978,8.6978,8.6978,8.6978,8.6978,8.6978,8.6978,8.6978,8.6978,8.6978,8.6978,8.6978,8.6978,8.6978,8.6978,8.6978,8.6978,8.6978,8.6978,8.6978,8.6978,8.6978,8.6978,8.6978,8.6978,8.6978,8.7014,8.7565,8.9143,8.9436,8.9987,9.1583,9.1803,9.1803,9.1803,9.1803,9.1803,9.1803,9.1803,9.1803,9.1803,9.1803,9.1803,9.1803,9.1803,9.1803,9.1803,9.1803,9.1803,9.1803,9.1803,9.1803,9.1803,9.1803,9.1803,0.0,0.0,6.9113,6.9113,0.0,0.0,0.0,0.0,0.0,0.0,0.0,0.0,0.0,0.0,0.0,0.0,0.0,0.0,0.0,0.0,0.0,0.0,0.0,0.0,0.0,0.0,0.0,7.936,8.0388,8.1122,8.1379,8.1893,8.2186,8.2186,8.2186,8.2186,8.2186,8.2186,8.2186,8.2186,8.2186,8.2186,8.2186,8.2186,8.2186,8.2186,8.2186,8.2186,8.2186,8.2186,8.237,8.2663,8.3197,8.3564,8.4005,8.56,8.6224,8.6261,8.6811,8.6978,8.6978,8.6978,8.6978,8.6978,8.6978,8.6978,8.6978,8.6978,8.6978,8.6978,8.6978,8.6978,8.6978,8.6978,8.6978,8.6978,8.6978,8.6978,8.6978,8.6978,8.6978,8.6978,8.6978,8.6978,8.7344,8.8463,8.9069,8.9803,9.0886,9.1473,9.1803,9.1803,9.1803,9.1803,9.1803,9.1803,9.1803,9.1803,9.1803,9.1803,9.1803,9.1803,9.1803,9.1803,9.1803,9.1803,9.1803,9.1803,9.1803,9.1803,9.1803,9.1803,6.9823,6.9891,0.0,6.9891,7.0229,0.0,7.0601,0.0,0.0,0.0,0.0,0.0,0.0,0.0,0.0,0.0,0.0,0.0,0.0,7.3772,0.0,0.0,0.0,0.0,0.0,0.0,7.8259,7.8589,7.9543,8.0388,0.0,8.1489,8.1893,8.2186,8.2186,8.2186,8.2186,8.2186,8.2186,8.2186,8.2186,8.2186,8.2186,8.2186,8.2186,8.2186,8.2186,8.2186,8.2186,8.2186,8.2186,8.226,8.2774,8.2994,8.3177,8.4792,8.5527,8.593,8.6738,8.6978,8.6978,8.6978,8.6978,8.6978,8.6978,8.6978,8.7051,8.7344,8.7215,8.7051,8.7344,8.7198,8.6978,8.6978,8.6978,8.6978,8.6978,8.6978,8.6978,8.6978,8.6978,8.6978,8.6978,8.6978,8.7288,8.8096,8.8886,8.9693,9.0501,9.1289,9.1803,9.1803,9.1803,9.1803,9.1803,9.1803,9.1803,9.1803,9.1803,9.1803,9.1803,9.1803,9.206,9.2684,9.2097,9.2097,9.2684,9.2097,9.1803,9.1803,9.1803,9.1803]}]]